Date StartTime U_cm/s V_cm/s W_cm/s Ustd_cm/s Vstd_cm/s Wstd_cm/s Uvar_(cm/s)^2 Vvar_(cm/s)^2 Wvar_(cm/s)^2 KE_(m/s)^2 TurbulentKE_(m/s)^2 HorizWindSpeed_cm/s FrictionSpeec_cm/s DragCoef SpeedOfSound_m/s SonicTemperature_C Pressure_mb 
04/14/2014  00:00:00      -38.476       -5.175      -12.220       24.281       21.908       11.112      589.555      479.972      123.479        0.142        0.060       38.822        8.951        0.053      336.807        8.358      866.172
04/14/2014  00:01:00      -15.905       14.704       -1.319       23.205       13.742       13.476      538.487      188.843      181.614        0.069        0.045       21.661        8.380        0.150      336.984        8.653      866.169
04/14/2014  00:02:00       -7.122       -4.116       -1.204       16.320       15.743       10.552      266.346      247.836      111.336        0.035        0.031        8.226       10.058        1.495      336.909        8.527      866.168
04/14/2014  00:03:00        9.632      -45.968       -0.953       22.422       30.644       16.818      502.753      939.047      282.852        0.197        0.086       46.967       15.223        0.105      336.880        8.479      866.181
04/14/2014  00:04:00      -11.089      -26.573       -4.967       20.535       33.083       13.368      421.692     1094.463      178.708        0.127        0.085       28.794       13.869        0.232      336.539        7.910      866.195
04/14/2014  00:05:00      -53.614       10.689      -11.850       15.665       12.682        8.610      245.388      160.826       74.126        0.180        0.024       54.669        6.573        0.014      336.774        8.302      866.197
04/14/2014  00:06:00      -41.593       31.258      -12.136       29.624       21.901       12.597      877.603      479.655      158.676        0.218        0.076       52.029       11.792        0.051      337.084        8.821      866.182
04/14/2014  00:07:00        7.127       45.324       -4.748       35.612       27.536       17.716     1268.232      758.215      313.873        0.223        0.117       45.880       11.170        0.059      337.503        9.519      866.191
04/14/2014  00:08:00       15.958       69.061       -9.547       19.594       18.276        9.069      383.934      334.018       82.245        0.296        0.040       70.880        8.809        0.015      337.571        9.634      866.208
04/14/2014  00:09:00      -18.224       49.347       -5.511       18.177       17.593       14.216      330.401      309.497      202.089        0.182        0.042       52.605        8.198        0.024      337.503        9.521      866.194
04/14/2014  00:10:00       -5.822       31.173        0.275       16.882       13.081       14.578      284.987      171.100      212.518        0.084        0.033       31.712       13.193        0.173      337.552        9.603      866.176
04/14/2014  00:11:00      -26.580       20.440       -4.502       22.766       29.229       10.619      518.297      854.332      112.760        0.131        0.074       33.531       12.316        0.135      337.169        8.962      866.171
04/14/2014  00:12:00      -82.538      -12.958      -12.476       22.021       19.281       11.967      484.924      371.750      143.211        0.407        0.050       83.549        6.698        0.006      336.307        7.520      866.184
04/14/2014  00:13:00     -123.901        0.396      -18.677       28.798       22.652       22.289      829.315      513.118      496.791        0.877        0.092      123.902       18.586        0.023      336.291        7.493      866.193
04/14/2014  00:14:00     -106.849      -10.572       -9.754       34.282       22.180       17.645     1175.228      491.941      311.360        0.680        0.099      107.371       13.740        0.016      336.273        7.464      866.189
04/14/2014  00:15:00      -58.039       -5.518       -6.754       40.508       23.310       17.612     1640.937      543.349      310.199        0.297        0.125       58.300       18.918        0.105      336.441        7.745      866.194
04/14/2014  00:16:00      -78.250      -15.167      -19.521       38.791       24.306       15.087     1504.725      590.776      227.620        0.453        0.116       79.707       15.892        0.040      336.428        7.723      866.210
04/14/2014  00:17:00      -71.040      -22.878       -7.411       20.214       26.729       14.485      408.614      714.466      209.822        0.348        0.067       74.633        9.542        0.016      336.395        7.668      866.218
04/14/2014  00:18:00      -69.206      -17.463      -14.144       20.465       15.166       12.762      418.806      230.008      162.868        0.305        0.041       71.375        6.848        0.009      336.395        7.668      866.225
04/14/2014  00:19:00      -49.186       -5.952      -15.140       18.282       13.099        9.872      334.219      171.572       97.457        0.164        0.030       49.545        6.714        0.018      336.520        7.877      866.234
04/14/2014  00:20:00      -55.179      -16.413      -15.610       13.507       20.824       13.376      182.437      433.622      178.913        0.218        0.040       57.569       10.692        0.034      336.403        7.681      866.238
04/14/2014  00:21:00      -75.389      -17.616      -13.610       10.688       16.324        9.465      114.239      266.464       89.582        0.332        0.024       77.420        5.987        0.006      336.336        7.569      866.233
04/14/2014  00:22:00      -83.964      -25.844      -11.215       21.253       18.436       14.228      451.685      339.872      202.448        0.442        0.050       87.851        9.924        0.013      336.348        7.590      866.215
04/14/2014  00:23:00     -103.613      -31.803      -20.648       17.161       18.321       13.922      294.495      335.666      193.816        0.650        0.041      108.384        9.456        0.008      336.267        7.456      866.199
04/14/2014  00:24:00      -93.297      -29.839      -11.369       24.841       20.623       17.550      617.072      425.319      308.008        0.554        0.068       97.953       14.569        0.022      336.229        7.391      866.185
04/14/2014  00:25:00      -96.582      -19.297      -13.039       27.027       16.650       14.573      730.458      277.213      212.378        0.554        0.061       98.491       13.256        0.018      336.279        7.474      866.158
04/14/2014  00:26:00      -81.505      -19.532      -17.111       19.002       18.872       15.800      361.073      356.141      249.647        0.414        0.048       83.812       11.040        0.017      336.253        7.430      866.147
04/14/2014  00:27:00      -67.795      -10.974      -14.885       19.917       18.141       11.863      396.681      329.085      140.733        0.290        0.043       68.678       11.721        0.029      336.309        7.525      866.149
04/14/2014  00:28:00      -50.841      -22.554      -10.953       15.281       15.797        9.192      233.506      249.543       84.494        0.189        0.028       55.619        5.570        0.010      336.453        7.766      866.157
04/14/2014  00:29:00      -56.100      -25.370      -19.485       14.282       10.562       10.500      203.972      111.554      110.243        0.230        0.021       61.570        5.503        0.008      336.448        7.756      866.168
04/14/2014  00:30:00      -40.135      -20.440       -3.727       19.386       13.535        7.738      375.799      183.201       59.874        0.133        0.031       45.040        8.400        0.035      336.250        7.426      866.180
04/14/2014  00:31:00        2.045       -6.986       -2.594        7.915        5.959        5.495       62.640       35.514       30.191        0.009        0.006        7.280        4.032        0.307      336.517        7.870      866.193
04/14/2014  00:32:00       -6.010       24.045        0.157       21.200       22.962       12.185      449.434      527.261      148.471        0.087        0.056       24.784       12.812        0.267      337.046        8.756      866.203
04/14/2014  00:33:00       -0.565       70.307      -12.760       21.677       12.962        9.319      469.901      168.006       86.838        0.292        0.036       70.309        7.595        0.012      337.247        9.092      866.207
04/14/2014  00:34:00        4.395       41.765        0.749       13.821       15.222        8.588      191.029      231.705       73.757        0.113        0.025       41.995        5.679        0.018      337.324        9.221      866.205
04/14/2014  00:35:00        4.291       15.611        4.945       17.746       14.112        9.698      314.911      199.155       94.053        0.045        0.030       16.190        6.702        0.171      337.133        8.900      866.215
04/14/2014  00:36:00       -5.232       22.735       -2.273       20.037       23.674       12.017      401.475      560.439      144.402        0.083        0.055       23.329       10.409        0.199      337.241        9.082      866.206
04/14/2014  00:37:00       20.091       22.578       21.895       24.512       31.238       25.676      600.820      975.822      659.256        0.181        0.112       30.222       16.407        0.295      336.797        8.340      866.206
04/14/2014  00:38:00       50.524      -36.660        3.795       30.899       23.117       16.492      954.723      534.373      271.992        0.284        0.088       62.423       13.116        0.044      337.204        9.020      866.214
04/14/2014  00:39:00        4.376      -37.011       -5.032       50.579       22.188       16.356     2558.219      492.324      267.521        0.237        0.166       37.268       19.587        0.276      337.043        8.751      866.215
04/14/2014  00:40:00      -37.975      -28.852       -5.308       19.691       23.188       12.241      387.747      537.667      149.840        0.169        0.054       47.693        7.472        0.025      336.431        7.728      866.235
04/14/2014  00:41:00      -48.980      -32.204       -3.319       21.073       11.193       13.194      444.085      125.284      174.094        0.210        0.037       58.618       13.913        0.056      336.314        7.534      866.258
04/14/2014  00:42:00      -65.073      -36.121      -12.037       15.608       18.432       10.780      243.619      339.730      116.202        0.319        0.035       74.426       10.342        0.019      336.382        7.646      866.267
04/14/2014  00:43:00      -72.576      -21.156       -1.278        9.027       18.906       12.633       81.485      357.425      159.605        0.316        0.030       75.596       13.012        0.030      336.299        7.507      866.276
04/14/2014  00:44:00      -85.882      -34.923      -10.603       17.041        9.898        7.402      290.390       97.968       54.784        0.458        0.022       92.711        7.815        0.007      336.328        7.556      866.296
04/14/2014  00:45:00      -94.824       -7.930      -13.615       12.040       13.784       13.255      144.959      189.985      175.692        0.488        0.026       95.155        8.844        0.009      336.233        7.397      866.306
04/14/2014  00:46:00      -92.291      -19.626      -17.724       13.982       10.735        8.161      195.498      115.251       66.596        0.480        0.019       94.355        6.634        0.005      336.244        7.415      866.326
04/14/2014  00:47:00      -53.588      -14.291       -7.706       17.974       14.709       10.098      323.060      216.350      101.973        0.189        0.032       55.460       10.371        0.035      336.566        7.953      866.341
04/14/2014  00:48:00      -26.650        4.985       -2.224       10.981       20.625        8.738      120.572      425.394       76.349        0.068        0.031       27.112        3.701        0.019      336.631        8.064      866.339
04/14/2014  00:49:00        5.968       32.294       -2.862       31.149       14.893        9.188      970.242      221.792       84.412        0.118        0.064       32.841        5.370        0.027      336.980        8.646      866.321
04/14/2014  00:50:00        1.430       70.123       -8.688       11.910       14.678        9.298      141.855      215.446       86.460        0.272        0.022       70.137        7.250        0.011      337.145        8.920      866.311
04/14/2014  00:51:00        0.311       80.374      -12.260        8.627       10.854        5.139       74.421      117.801       26.411        0.341        0.011       80.374        2.955        0.001      337.248        9.095      866.299
04/14/2014  00:52:00       14.819       79.598      -13.633       16.244       18.612       11.269      263.861      346.403      126.980        0.374        0.037       80.966        9.162        0.013      337.243        9.082      866.295
04/14/2014  00:53:00       17.690       45.115      -10.079       21.221       26.721       17.524      450.347      714.001      307.094        0.196        0.074       48.459       14.403        0.088      337.141        8.915      866.309
04/14/2014  00:54:00       22.707       73.132      -13.006       17.622       34.612       13.759      310.518     1197.984      189.317        0.387        0.085       76.576       14.108        0.034      337.174        8.970      866.318
04/14/2014  00:55:00       14.740       35.205       -8.048       24.718       39.664       15.818      610.992     1573.261      250.222        0.198        0.122       38.166       12.012        0.099      337.106        8.856      866.327
04/14/2014  00:56:00       11.015       41.129      -12.122       19.534       24.501        9.069      381.593      600.310       82.247        0.151        0.053       42.578        7.136        0.028      337.049        8.758      866.336
04/14/2014  00:57:00      -35.004      -12.623      -10.472       45.451       19.715        6.175     2065.777      388.669       38.127        0.199        0.125       37.211        8.088        0.047      336.433        7.730      866.351
04/14/2014  00:58:00      -90.566      -28.319      -13.199       13.137       12.359        7.703      172.575      152.754       59.337        0.478        0.019       94.890        5.886        0.004      335.940        6.908      866.360
04/14/2014  00:59:00      -92.494      -19.390      -17.904       13.688       10.887        9.590      187.358      118.533       91.973        0.482        0.020       94.505        5.231        0.003      336.040        7.075      866.353
04/14/2014  01:00:00      -91.238      -17.496      -14.987       11.627       11.169       11.640      135.188      124.747      135.489        0.463        0.020       92.900        6.827        0.005      335.947        6.920      866.337
04/14/2014  01:01:00      -77.537       -5.918      -14.867       20.985       15.494       13.323      440.378      240.049      177.515        0.356        0.043       77.763       12.048        0.024      336.126        7.218      866.325
04/14/2014  01:02:00      -93.899        1.885      -11.174       15.641       13.725       15.478      244.640      188.379      239.566        0.481        0.034       93.918       11.768        0.016      336.021        7.042      866.322
04/14/2014  01:03:00     -105.130       -2.314      -23.071       17.424       11.828       11.643      303.605      139.894      135.561        0.608        0.029      105.156        6.519        0.004      336.002        7.011      866.324
04/14/2014  01:04:00      -95.271      -12.077      -10.671       19.227       13.312       15.337      369.672      177.217      235.218        0.506        0.039       96.033        9.213        0.009      335.977        6.970      866.327
04/14/2014  01:05:00     -134.710       -6.065      -18.593       19.058       16.460       13.248      363.205      270.936      175.519        0.967        0.040      134.846       11.629        0.007      335.867        6.786      866.331
04/14/2014  01:06:00     -118.475      -18.406      -25.101       23.219       16.387       15.103      539.123      268.520      228.087        0.802        0.052      119.896       11.854        0.010      335.796        6.668      866.335
04/14/2014  01:07:00     -137.785      -20.184      -23.580       14.448       12.576       13.229      208.731      158.165      175.002        1.024        0.027      139.255        5.622        0.002      335.786        6.650      866.345
04/14/2014  01:08:00     -113.568      -16.285      -23.033       25.527       22.546       15.339      651.638      508.316      235.275        0.754        0.070      114.729       13.474        0.014      335.809        6.691      866.349
04/14/2014  01:09:00      -83.822      -36.252      -16.309       28.977       21.629       18.363      839.660      467.803      337.189        0.513        0.082       91.326       18.554        0.041      335.872        6.795      866.356
04/14/2014  01:10:00      -51.075      -49.731       -6.437       35.990       19.834       16.762     1295.283      393.372      280.955        0.355        0.098       71.287       15.131        0.045      335.890        6.825      866.356
04/14/2014  01:11:00      -61.314      -31.467      -10.037       23.687       21.333       18.333      561.062      455.117      336.115        0.310        0.068       68.917       14.513        0.044      335.860        6.776      866.349
04/14/2014  01:12:00      -67.893      -46.973      -14.357       19.310       23.319       14.579      372.882      543.768      212.539        0.408        0.056       82.559        8.744        0.011      335.909        6.855      866.338
04/14/2014  01:13:00      -81.567      -26.975      -10.585       26.254       29.246       16.077      689.262      855.321      258.468        0.465        0.090       85.911       10.339        0.014      335.987        6.987      866.327
04/14/2014  01:14:00      -95.868      -23.202      -11.435       18.925       26.222       15.478      358.145      687.606      239.570        0.557        0.064       98.636        4.036        0.002      335.980        6.975      866.312
04/14/2014  01:15:00     -106.686      -31.880      -18.326       26.352       22.831       14.841      694.435      521.254      220.267        0.708        0.072      111.348       11.133        0.010      335.787        6.654      866.310
04/14/2014  01:16:00      -95.631      -21.876      -16.008       33.591       28.104       23.734     1128.347      789.843      563.312        0.618        0.124       98.101       18.866        0.037      335.659        6.441      866.324
04/14/2014  01:17:00      -99.548      -32.216      -10.102       36.456       32.364       15.355     1329.069     1047.446      235.781        0.683        0.131      104.631       12.883        0.015      335.645        6.416      866.341
04/14/2014  01:18:00      -99.175      -25.199      -11.655       21.509       18.112       12.039      462.617      328.038      144.940        0.577        0.047      102.327        9.468        0.009      335.715        6.535      866.355
04/14/2014  01:19:00      -62.875      -27.704      -14.985       33.913       22.661       17.488     1150.104      513.524      305.840        0.346        0.098       68.707        6.155        0.008      335.819        6.706      866.357
04/14/2014  01:20:00      -92.367      -21.243      -18.013       15.271       21.382       17.390      233.190      457.172      302.415        0.515        0.050       94.778        6.717        0.005      335.678        6.471      866.369
04/14/2014  01:21:00     -107.217      -24.131      -16.136       22.706       28.661       17.339      515.585      821.427      300.634        0.699        0.082      109.899       14.760        0.018      335.644        6.415      866.369
04/14/2014  01:22:00     -138.094       -3.409      -20.498       20.705       25.238       17.507      428.688      636.947      306.512        1.044        0.069      138.136       10.656        0.006      335.607        6.352      866.351
04/14/2014  01:23:00     -127.790      -28.973      -11.875       25.304       23.185       14.262      640.290      537.545      203.399        0.935        0.069      131.033       10.756        0.007      335.516        6.202      866.353
04/14/2014  01:24:00      -71.036      -52.872       -8.763       36.486       31.935       23.535     1331.225     1019.859      553.874        0.541        0.145       88.552       19.030        0.046      335.583        6.315      866.338
04/14/2014  01:25:00      -93.209      -28.552      -18.074       30.997       27.408       14.755      960.788      751.225      217.697        0.588        0.096       97.485        9.729        0.010      335.585        6.318      866.320
04/14/2014  01:26:00     -108.042      -14.568      -17.465       44.290       36.605       15.962     1961.639     1339.911      254.790        0.787        0.178      109.020       12.031        0.012      335.586        6.320      866.312
04/14/2014  01:27:00      -95.159      -19.084      -18.661       18.065       24.509       14.527      326.353      600.682      211.030        0.545        0.057       97.054        5.819        0.004      335.557        6.271      866.303
04/14/2014  01:28:00      -90.709      -30.784      -10.449       20.302       23.494       15.132      412.175      551.983      228.989        0.524        0.060       95.790        9.766        0.010      335.599        6.341      866.311
04/14/2014  01:29:00      -82.562      -35.771      -19.468       28.416       22.749       18.100      807.493      517.499      327.594        0.506        0.083       89.978        8.150        0.008      335.649        6.424      866.345
04/14/2014  01:30:00     -114.940        6.573      -20.565       17.070       18.094       12.578      291.384      327.389      158.211        0.723        0.039      115.128        9.569        0.007      335.625        6.383      866.344
04/14/2014  01:31:00      -74.646      -18.850      -11.724       40.171       24.846       18.272     1613.684      617.311      333.849        0.431        0.128       76.990       15.877        0.043      335.664        6.449      866.343
04/14/2014  01:32:00      -24.042      -21.326      -13.885       19.522       21.853       12.143      381.099      477.565      147.460        0.112        0.050       32.137        7.973        0.062      335.675        6.467      866.345
04/14/2014  01:33:00      -74.055      -24.368      -12.019       15.465       11.773       12.731      239.175      138.601      162.079        0.338        0.027       77.961        6.321        0.007      335.697        6.504      866.330
04/14/2014  01:34:00      -59.337      -33.949      -14.607       17.188       17.199       10.663      295.434      295.792      113.705        0.280        0.035       68.362        8.430        0.015      335.819        6.708      866.342
04/14/2014  01:35:00      -49.777      -20.118      -12.794       14.741       12.249       10.162      217.288      150.040      103.270        0.176        0.024       53.689        3.980        0.005      335.923        6.880      866.344
04/14/2014  01:36:00      -84.078      -22.697      -13.223       17.837       19.594       13.989      318.176      383.940      195.683        0.433        0.045       87.088        9.310        0.011      335.710        6.526      866.354
04/14/2014  01:37:00     -102.449      -30.533      -19.371       12.838       11.833       12.043      164.819      140.020      145.030        0.613        0.022      106.902        7.461        0.005      335.595        6.334      866.349
04/14/2014  01:38:00      -94.532      -18.666      -17.242       18.008       21.956       15.342      324.303      482.067      235.378        0.531        0.052       96.357       13.899        0.021      335.558        6.273      866.355
04/14/2014  01:39:00      -92.035       -9.258       -9.017       19.409       15.173       17.867      376.711      230.222      319.215        0.478        0.046       92.499       12.813        0.019      335.529        6.225      866.345
04/14/2014  01:40:00      -60.000      -12.132      -11.133       22.971       18.320       16.341      527.652      335.634      267.030        0.250        0.057       61.214       13.066        0.046      335.620        6.375      866.347
04/14/2014  01:41:00      -79.601      -19.972      -15.432       13.372       10.338        9.750      178.818      106.881       95.065        0.368        0.019       82.068        5.170        0.004      335.633        6.398      866.335
04/14/2014  01:42:00      -68.187      -25.047      -17.525       18.500       17.270       11.587      342.260      298.250      134.266        0.318        0.039       72.642        7.393        0.010      335.759        6.607      866.324
04/14/2014  01:43:00      -75.877      -18.189      -13.696       15.092       16.872       14.577      227.777      284.659      212.498        0.350        0.036       78.027        7.464        0.009      335.720        6.542      866.317
04/14/2014  01:44:00      -67.651      -23.777      -20.593       12.171       14.123       11.106      148.143      199.469      123.338        0.302        0.024       71.708        9.199        0.016      335.675        6.468      866.307
04/14/2014  01:45:00      -71.468      -27.081      -20.136       20.957       14.076       10.378      439.179      198.132      107.704        0.350        0.037       76.427        4.664        0.004      335.609        6.358      866.307
04/14/2014  01:46:00      -76.861      -31.115      -13.916       17.790       18.345       15.361      316.489      336.548      235.957        0.398        0.044       82.920        8.578        0.011      335.617        6.372      866.326
04/14/2014  01:47:00      -86.478      -19.200      -15.527       17.264       22.043       15.603      298.056      485.897      243.468        0.456        0.051       88.584        8.843        0.010      335.558        6.272      866.310
04/14/2014  01:48:00      -77.079      -33.685      -17.253       18.808       17.890       11.588      353.739      320.057      134.287        0.409        0.040       84.118        7.445        0.008      335.552        6.261      866.316
04/14/2014  01:49:00     -102.210      -23.900      -14.445       13.230       10.805       13.077      175.046      116.754      171.002        0.584        0.023      104.967        8.028        0.006      335.500        6.175      866.310
04/14/2014  01:50:00      -93.964      -44.341      -13.625       20.086       25.653       14.947      403.463      658.096      223.411        0.613        0.064      103.900       11.854        0.013      335.474        6.130      866.296
04/14/2014  01:51:00      -97.834      -49.791      -19.334       19.207       20.985       13.011      368.899      440.389      169.292        0.670        0.049      109.775        9.991        0.008      335.443        6.080      866.289
04/14/2014  01:52:00     -136.001      -25.751      -20.171       24.081       20.679       17.342      579.883      427.615      300.729        1.044        0.065      138.418       12.782        0.009      335.406        6.019      866.281
04/14/2014  01:53:00     -116.801      -47.149      -20.996       22.019       24.969       15.283      484.834      623.457      233.570        0.882        0.067      125.959        6.830        0.003      335.385        5.983      866.277
04/14/2014  01:54:00     -115.287      -50.659      -17.886       30.307       39.681       22.717      918.509     1574.596      516.045        0.959        0.150      125.927       19.294        0.023      335.370        5.959      866.272
04/14/2014  01:55:00     -145.017      -34.712      -21.886       25.063       31.644       20.154      628.140     1001.317      406.197        1.237        0.102      149.114       14.156        0.009      335.385        5.982      866.277
04/14/2014  01:56:00     -115.026      -57.604      -24.055       38.240       37.595       21.638     1462.275     1413.415      468.219        1.024        0.167      128.644       18.058        0.020      335.367        5.952      866.271
04/14/2014  01:57:00      -94.316      -55.151      -26.151       40.137       32.451       21.233     1610.976     1053.075      450.819        0.787        0.156      109.257       14.292        0.017      335.414        6.031      866.275
04/14/2014  01:58:00      -39.581      -63.652        7.033       36.248       33.272       30.020     1313.893     1107.019      901.225        0.449        0.166       74.955       19.536        0.068      335.398        6.006      866.276
04/14/2014  01:59:00      -96.474      -61.896      -15.667       26.886       21.692       16.971      722.862      470.543      288.029        0.743        0.074      114.623       10.580        0.009      335.341        5.910      866.283
04/14/2014  02:00:00     -122.786      -47.650      -11.897       24.835       25.970       20.669      616.791      674.423      427.223        0.960        0.086      131.708       13.277        0.010      335.387        5.986      866.273
04/14/2014  02:01:00     -118.491      -55.449      -19.085       17.957       31.283       17.464      322.466      978.621      305.003        0.954        0.080      130.823       13.440        0.011      335.313        5.863      866.285
04/14/2014  02:02:00      -74.801      -55.011       -7.306       44.076       31.885       24.287     1942.675     1016.646      589.858        0.611        0.177       92.852       26.004        0.078      335.349        5.922      866.274
04/14/2014  02:03:00      -66.819      -48.382       -6.494       38.933       36.539       24.100     1515.741     1335.100      580.823        0.514        0.172       82.496       21.623        0.069      335.367        5.954      866.279
04/14/2014  02:04:00      -92.220      -34.678      -13.334       32.144       23.884       18.085     1033.223      570.433      327.050        0.591        0.097       98.524       15.167        0.024      335.403        6.014      866.283
04/14/2014  02:05:00      -83.575      -33.595       -7.083       25.905       19.871       16.393      671.084      394.868      268.719        0.475        0.067       90.075        8.916        0.010      335.502        6.177      866.274
04/14/2014  02:06:00     -100.427      -15.710      -12.355       32.741       17.323       18.792     1071.974      300.082      353.154        0.610        0.086      101.648       15.004        0.022      335.439        6.073      866.264
04/14/2014  02:07:00      -67.920      -26.273       -5.190       25.983       20.545       17.318      675.091      422.087      299.926        0.336        0.070       72.824        7.681        0.011      335.448        6.089      866.259
04/14/2014  02:08:00      -64.812      -20.423       -5.444       24.760       15.358       10.787      613.053      235.859      116.350        0.281        0.048       67.954        4.909        0.005      335.399        6.005      866.254
04/14/2014  02:09:00      -76.747      -22.996      -22.436       15.740       12.666       14.879      247.753      160.433      221.384        0.378        0.031       80.118        9.216        0.013      335.529        6.224      866.238
04/14/2014  02:10:00      -84.417      -31.627      -16.555       13.374       14.439       11.947      178.870      208.496      142.722        0.447        0.027       90.147        6.526        0.005      335.510        6.192      866.216
04/14/2014  02:11:00      -89.020      -28.435      -16.232       24.400       19.632       14.049      595.383      385.435      197.385        0.509        0.059       93.451        8.686        0.009      335.427        6.053      866.213
04/14/2014  02:12:00      -98.131      -44.757      -18.326       19.793       19.300       14.628      391.744      372.485      213.974        0.647        0.049      107.856        8.185        0.006      335.441        6.075      866.213
04/14/2014  02:13:00      -90.704      -24.118      -22.613       20.442       17.172       12.027      417.865      294.889      144.647        0.509        0.043       93.856       10.971        0.014      335.352        5.929      866.206
04/14/2014  02:14:00      -77.533      -34.251      -13.039       22.740       32.235       17.189      517.106     1039.072      295.470        0.460        0.093       84.761       11.893        0.020      335.296        5.834      866.207
04/14/2014  02:15:00      -76.643      -33.780      -14.571       16.253       23.197       13.719      264.157      538.118      188.201        0.411        0.050       83.757        5.816        0.005      335.489        6.157      866.216
04/14/2014  02:16:00      -84.852      -22.282      -14.012       17.435       18.333       15.980      303.977      336.083      255.356        0.439        0.045       87.728        9.727        0.012      335.448        6.088      866.231
04/14/2014  02:17:00      -87.911      -34.051       -9.182       19.848       15.590       11.597      393.923      243.056      134.496        0.487        0.039       94.275        4.765        0.003      335.337        5.904      866.240
04/14/2014  02:18:00      -93.523      -31.562      -15.054       12.453       14.661       12.629      155.080      214.931      159.487        0.525        0.026       98.705        8.480        0.007      335.305        5.850      866.226
04/14/2014  02:19:00      -90.730       -5.069      -19.816       13.128       17.786       10.334      172.335      316.348      106.784        0.462        0.030       90.872        3.682        0.002      335.463        6.114      866.214
04/14/2014  02:20:00      -75.629      -15.884      -17.787       13.147       14.022       13.732      172.836      196.621      188.555        0.342        0.028       77.279        7.365        0.009      335.421        6.043      866.191
04/14/2014  02:21:00      -78.561      -25.165      -12.515       12.140       13.462       10.601      147.369      181.228      112.377        0.370        0.022       82.493        6.159        0.006      335.363        5.947      866.174
04/14/2014  02:22:00      -59.844      -28.900      -14.673       14.414       11.901        6.790      207.761      141.641       46.098        0.251        0.020       66.457        4.750        0.005      335.302        5.846      866.164
04/14/2014  02:23:00      -73.153      -34.051      -13.830       19.939       15.287        8.597      397.546      233.691       73.916        0.370        0.035       80.689        5.139        0.004      335.319        5.874      866.145
04/14/2014  02:24:00     -106.691      -24.423      -15.199       11.751       14.257       10.372      138.077      203.249      107.580        0.633        0.022      109.451        7.317        0.004      335.193        5.663      866.136
04/14/2014  02:25:00      -91.705      -54.451      -18.350       13.905       20.677       13.840      193.361      427.521      191.538        0.626        0.041      106.652        8.811        0.007      335.292        5.828      866.132
04/14/2014  02:26:00      -90.196      -32.967      -18.772       24.854       23.155       16.514      617.723      536.173      272.716        0.550        0.071       96.032       10.926        0.013      335.368        5.955      866.121
04/14/2014  02:27:00     -103.903      -23.734      -22.148       21.367       19.139       16.552      456.563      366.316      273.961        0.647        0.055      106.579       15.018        0.020      335.236        5.735      866.115
04/14/2014  02:28:00      -92.854      -29.701      -16.626       19.205       20.975       13.291      368.815      439.937      176.648        0.538        0.049       97.488       10.829        0.012      335.286        5.819      866.117
04/14/2014  02:29:00      -64.656      -33.779      -27.409       22.268       20.301       16.380      495.865      412.143      268.302        0.362        0.059       72.948       10.576        0.021      335.645        6.416      866.111
04/14/2014  02:30:00      -81.304      -32.490      -15.980       12.910       13.895       11.160      166.664      193.063      124.536        0.420        0.024       87.556        2.413        0.001      335.244        5.749      866.122
04/14/2014  02:31:00      -83.780      -19.186      -17.417       10.081       12.105        8.210      101.634      146.523       67.410        0.400        0.016       85.948        4.678        0.003      335.312        5.862      866.112
04/14/2014  02:32:00      -68.808      -17.895       -8.996       19.026       20.961       13.906      361.987      439.343      193.371        0.307        0.050       71.097       12.078        0.029      335.265        5.781      866.101
04/14/2014  02:33:00      -82.882      -22.805      -14.750        8.670       10.120        9.483       75.174      102.409       89.923        0.394        0.013       85.962        6.556        0.006      335.272        5.794      866.102
04/14/2014  02:34:00      -79.145      -39.401       -9.069       22.150       22.187       17.634      490.616      492.278      310.964        0.460        0.065       88.410        5.938        0.005      335.231        5.727      866.107
04/14/2014  02:35:00     -112.876      -43.903      -17.337       27.998       27.851       18.251      783.895      775.685      333.110        0.843        0.095      121.113       17.887        0.022      335.124        5.549      866.101
04/14/2014  02:36:00     -116.927      -35.401      -20.089       23.183       24.883       16.773      537.439      619.150      281.327        0.838        0.072      122.168        6.292        0.003      335.119        5.543      866.106
04/14/2014  02:37:00      -85.010      -31.791      -15.875       25.362       19.538       15.001      643.235      381.737      225.028        0.487        0.063       90.761        7.812        0.007      335.143        5.582      866.116
04/14/2014  02:38:00     -121.433       -6.318      -22.235       29.251       23.752       19.170      855.598      564.137      367.485        0.853        0.089      121.598       16.112        0.018      335.181        5.644      866.092
04/14/2014  02:39:00      -95.359      -22.753      -11.591       27.636       18.672       16.613      763.749      348.661      275.992        0.557        0.069       98.036       16.078        0.027      335.106        5.519      866.079
04/14/2014  02:40:00      -92.982        9.050      -11.550       22.025       18.080       16.840      485.099      326.891      283.585        0.498        0.055       93.421       11.014        0.014      335.136        5.569      866.069
04/14/2014  02:41:00      -68.643      -34.024      -10.874       21.077       22.611       16.140      444.258      511.236      260.490        0.360        0.061       76.613        7.622        0.010      335.168        5.621      866.053
04/14/2014  02:42:00      -74.029      -55.043       -9.964       33.608       23.419       15.901     1129.490      548.451      252.845        0.527        0.097       92.250       11.242        0.015      335.193        5.663      866.043
04/14/2014  02:43:00     -122.346      -30.871      -13.047       18.004       17.388       13.194      324.158      302.334      174.085        0.845        0.040      126.181        5.606        0.002      335.089        5.492      866.042
04/14/2014  02:44:00     -125.056      -58.012      -12.139       18.781       20.319       12.973      352.712      412.875      168.310        1.004        0.047      137.856        7.855        0.003      335.096        5.504      866.045
04/14/2014  02:45:00     -110.372      -65.265       -8.926       46.356       23.566       25.952     2148.894      555.361      673.481        0.995        0.169      128.225       23.396        0.033      335.157        5.604      866.054
04/14/2014  02:46:00      -90.553      -90.709       -9.119       50.731       51.573       31.321     2573.671     2659.731      981.010        1.136        0.311      128.171       22.394        0.031      335.036        5.405      866.065
04/14/2014  02:47:00      -87.597      -49.267       -2.554       55.201       44.905       29.287     3047.167     2016.459      857.739        0.801        0.296      100.502       27.440        0.075      334.987        5.324      866.072
04/14/2014  02:48:00     -112.879      -69.332       -5.124       36.784       27.020       17.244     1353.035      730.077      297.340        0.998        0.119      132.471       17.764        0.018      334.975        5.302      866.050
04/14/2014  02:49:00      -97.846      -54.308      -13.248       36.445       22.123       17.109     1328.260      489.419      292.729        0.740        0.106      111.907       10.913        0.010      335.005        5.353      866.037
04/14/2014  02:50:00      -84.644      -78.696       -2.165       40.144       24.664       25.422     1611.572      608.301      646.299        0.811        0.143      115.576       17.769        0.024      334.973        5.299      866.050
04/14/2014  02:51:00     -101.264     -105.475        4.397       45.859       47.040       31.207     2103.003     2212.717      973.860        1.334        0.264      146.217       23.354        0.026      334.934        5.235      866.062
04/14/2014  02:52:00     -154.140     -123.081       -5.514       46.918       57.264       31.234     2201.283     3279.191      975.589        2.270        0.323      197.251       32.490        0.027      334.859        5.107      866.062
04/14/2014  02:53:00      -94.608      -67.115        7.094       67.429       41.429       33.499     4546.663     1716.324     1122.168        1.044        0.369      115.996       31.675        0.075      334.880        5.145      866.069
04/14/2014  02:54:00     -139.525      -86.731       -0.448       48.872       32.856       25.316     2388.494     1079.490      640.881        1.555        0.205      164.285       28.046        0.029      334.856        5.103      866.091
04/14/2014  02:55:00      -99.453      -62.232       -4.391       50.274       31.829       20.007     2527.488     1013.059      400.294        0.886        0.197      117.319       12.516        0.011      334.852        5.097      866.093
04/14/2014  02:56:00     -102.334      -67.124       -2.200       58.333       36.702       25.335     3402.685     1347.037      641.863        1.019        0.270      122.384       29.326        0.057      334.834        5.068      866.074
04/14/2014  02:57:00     -124.797      -87.487       -5.880       29.741       29.340       18.474      884.555      860.817      341.305        1.267        0.104      152.408       10.046        0.004      334.808        5.026      866.091
04/14/2014  02:58:00     -110.435      -73.097      -10.185       25.535       22.925       21.775      652.033      525.573      474.157        0.965        0.083      132.435       12.654        0.009      334.890        5.161      866.105
04/14/2014  02:59:00      -77.202      -60.797        3.264       45.665       29.445       20.265     2085.302      866.995      410.666        0.651        0.168       98.267       19.209        0.038      334.927        5.223      866.110
04/14/2014  03:00:00     -113.084      -57.375       -4.370       21.753       19.061       14.592      473.204      363.336      212.922        0.857        0.052      126.807       11.041        0.008      334.864        5.116      866.127
04/14/2014  03:01:00     -122.515      -25.866       -8.775       33.584       29.324       22.487     1127.866      859.869      505.646        0.912        0.125      125.215       22.031        0.031      334.858        5.107      866.126
04/14/2014  03:02:00     -132.625      -42.856        1.941       34.240       36.062       21.068     1172.391     1300.504      443.842        1.117        0.146      139.377       20.486        0.022      334.814        5.034      866.118
04/14/2014  03:03:00     -150.008      -68.007        0.533       33.810       22.549       17.064     1143.141      508.458      291.194        1.453        0.097      164.704       15.338        0.009      334.930        5.227      866.122
04/14/2014  03:04:00     -121.873      -63.783        3.389       52.582       32.385       26.325     2764.914     1048.811      692.980        1.172        0.225      137.555       25.260        0.034      334.941        5.245      866.123
04/14/2014  03:05:00     -152.975      -39.466       -7.669       38.776       38.609       24.742     1503.556     1490.644      612.174        1.431        0.180      157.984       18.164        0.013      334.951        5.263      866.109
04/14/2014  03:06:00     -157.435      -51.806        1.163       29.873       26.701       17.068      892.410      712.924      291.307        1.468        0.095      165.739       13.038        0.006      334.965        5.285      866.100
04/14/2014  03:07:00     -135.011      -47.972       -5.314       38.601       25.575       19.138     1490.065      654.087      366.250        1.153        0.126      143.281       18.265        0.016      334.976        5.304      866.081
04/14/2014  03:08:00     -148.640      -64.940       -7.980       28.974       29.190       20.560      839.487      852.046      422.711        1.424        0.106      162.207       13.992        0.007      334.925        5.219      866.062
04/14/2014  03:09:00      -68.223      -34.512       -5.060       37.477       28.011       22.732     1404.549      784.615      516.724        0.429        0.135       76.456       18.833        0.061      334.945        5.252      866.073
04/14/2014  03:10:00     -123.391      -25.791      -12.090       20.316       30.530       13.926      412.754      932.071      193.921        0.879        0.077      126.057        6.513        0.003      334.879        5.143      866.081
04/14/2014  03:11:00     -135.779      -48.270      -13.739       30.357       27.840       14.251      921.519      775.044      203.085        1.143        0.095      144.103       13.447        0.009      334.877        5.139      866.068
04/14/2014  03:12:00      -38.386      -41.715       10.995       52.002       31.947       26.296     2704.168     1020.580      691.468        0.387        0.221       56.689       31.167        0.302      334.795        5.002      866.069
04/14/2014  03:13:00     -108.190      -76.451      -15.665       37.338       24.946       15.837     1394.116      622.326      250.795        1.003        0.113      132.476       12.591        0.009      334.819        5.041      866.079
04/14/2014  03:14:00     -125.084      -33.519      -17.198       15.327       19.221       12.517      234.910      369.438      156.676        0.891        0.038      129.497        6.263        0.002      334.750        4.928      866.081
04/14/2014  03:15:00     -132.212      -26.487      -17.789       17.038       24.248       14.786      290.307      587.974      218.612        0.980        0.055      134.839        6.122        0.002      334.735        4.903      866.063
04/14/2014  03:16:00     -115.843      -14.119      -17.299       26.259       23.366       18.651      689.521      545.953      347.859        0.775        0.079      116.700       14.686        0.016      334.703        4.851      866.061
04/14/2014  03:17:00     -117.807        0.240      -16.168       23.914       20.847       14.119      571.893      434.615      199.338        0.767        0.060      117.807       10.718        0.008      334.566        4.624      866.051
04/14/2014  03:18:00      -76.376      -11.722      -13.068       16.867       10.772       13.002      284.482      116.036      169.044        0.336        0.028       77.270        9.727        0.016      334.641        4.747      866.043
04/14/2014  03:19:00      -84.525       -9.002      -16.297       12.810       12.721       13.491      164.096      161.826      182.013        0.400        0.025       85.003        2.859        0.001      334.631        4.731      866.054
04/14/2014  03:20:00     -104.916       -3.794      -11.940       17.699       20.468       17.674      313.238      418.933      312.367        0.610        0.052      104.984       10.196        0.009      334.672        4.799      866.061
04/14/2014  03:21:00      -94.170        2.781      -14.965       26.054       18.548       16.884      678.808      344.019      285.075        0.520        0.065       94.211       10.992        0.014      334.751        4.931      866.060
04/14/2014  03:22:00      -91.078       -2.667      -16.926       21.774       22.195       14.928      474.107      492.629      222.831        0.489        0.059       91.117       13.721        0.023      334.732        4.899      866.054
04/14/2014  03:23:00      -73.583       -0.945      -11.854       15.940       14.449       11.472      254.097      208.772      131.609        0.308        0.030       73.589       10.374        0.020      334.822        5.048      866.066
04/14/2014  03:24:00      -85.907      -16.473      -15.215       16.049       14.821        8.418      257.561      219.670       70.856        0.422        0.027       87.472        5.110        0.003      334.739        4.910      866.066
04/14/2014  03:25:00      -95.949      -28.000      -14.636       13.521       15.193       12.114      182.820      230.813      146.742        0.538        0.028       99.951        6.675        0.004      334.712        4.865      866.063
04/14/2014  03:26:00      -83.001      -21.663      -15.947       25.314       18.171       17.505      640.775      330.177      306.438        0.444        0.064       85.782       13.462        0.025      334.825        5.052      866.071
04/14/2014  03:27:00      -48.606      -32.794       -1.279       23.296       19.978       13.747      542.709      399.105      188.985        0.228        0.057       58.634        8.490        0.021      334.850        5.095      866.084
04/14/2014  03:28:00      -57.214      -20.992      -12.468       15.863       17.254       15.674      251.644      297.694      245.674        0.233        0.040       60.944        6.682        0.012      334.891        5.161      866.087
04/14/2014  03:29:00      -39.871      -34.691        1.350       24.186       15.261       15.317      584.957      232.902      234.616        0.192        0.053       52.850       12.759        0.058      334.856        5.106      866.092
04/14/2014  03:30:00      -77.107      -45.857      -16.371       24.989       15.874       14.361      624.473      251.989      206.251        0.470        0.054       89.712        6.480        0.005      334.723        4.884      866.110
04/14/2014  03:31:00     -105.768      -44.973      -19.599       17.887       17.026       11.825      319.943      289.869      139.831        0.717        0.037      114.932        5.038        0.002      334.644        4.752      866.114
04/14/2014  03:32:00      -95.836      -25.774      -11.357       13.349       17.804       14.220      178.189      316.995      202.212        0.534        0.035       99.241       10.240        0.011      334.662        4.782      866.113
04/14/2014  03:33:00      -73.754      -29.284      -16.657       13.974       15.761       14.659      195.266      248.400      214.900        0.362        0.033       79.355        8.831        0.012      334.650        4.762      866.117
04/14/2014  03:34:00      -75.169      -13.921       -9.931       13.005       14.262       10.163      169.130      203.400      103.288        0.321        0.024       76.447        4.578        0.004      334.723        4.885      866.120
04/14/2014  03:35:00      -77.060      -27.048      -15.547       14.424       14.867       13.156      208.055      221.029      173.086        0.376        0.030       81.669        5.784        0.005      334.721        4.882      866.127
04/14/2014  03:36:00      -82.385      -43.264      -14.298       19.300       24.523       15.704      372.503      601.372      246.615        0.504        0.061       93.054       12.582        0.018      334.658        4.776      866.134
04/14/2014  03:37:00     -121.931      -49.405      -16.083       21.039       19.742       12.510      442.645      389.766      156.496        0.928        0.049      131.560        8.927        0.005      334.630        4.729      866.151
04/14/2014  03:38:00     -151.138      -31.665      -16.397       17.514       17.983       14.277      306.753      323.373      203.830        1.247        0.042      154.420        6.390        0.002      334.541        4.582      866.161
04/14/2014  03:39:00      -99.578      -62.725       -7.953       43.949       33.224       21.464     1931.512     1103.804      460.719        0.870        0.175      117.687       13.459        0.013      334.627        4.724      866.173
04/14/2014  03:40:00     -112.104      -76.937        3.218       36.532       27.041       22.923     1334.618      731.210      525.475        1.054        0.130      135.966       17.866        0.017      334.529        4.560      866.195
04/14/2014  03:41:00      -93.175      -62.951       -0.625       35.488       27.564       19.716     1259.376      759.765      388.735        0.753        0.120      112.447       17.634        0.025      334.476        4.473      866.223
04/14/2014  03:42:00     -136.345      -53.888       -2.586       29.422       23.472       20.099      865.668      550.953      403.963        1.166        0.091      146.608       17.021        0.013      334.546        4.589      866.224
04/14/2014  03:43:00     -111.219      -62.011      -11.910       22.842       21.456       14.934      521.738      460.365      223.038        0.878        0.060      127.339        8.383        0.004      334.521        4.549      866.224
04/14/2014  03:44:00     -114.424      -48.654      -11.501       20.504       15.330       13.085      420.409      235.001      171.217        0.821        0.041      124.338        8.709        0.005      334.448        4.429      866.236
04/14/2014  03:45:00     -132.781      -45.125      -15.661       17.932       17.546       11.334      321.557      307.846      128.459        1.033        0.038      140.239        6.820        0.002      334.396        4.341      866.233
04/14/2014  03:46:00     -129.567      -29.680      -13.557       17.034       21.531       13.510      290.159      463.598      182.531        0.939        0.047      132.923        7.556        0.003      334.413        4.370      866.218
04/14/2014  03:47:00     -117.485      -43.530      -13.634       15.997       19.213       14.768      255.888      369.151      218.097        0.836        0.042      125.290        7.589        0.004      334.432        4.401      866.212
04/14/2014  03:48:00     -113.943      -42.823       -9.204       24.982       22.742       16.578      624.111      517.178      274.833        0.816        0.071      121.724        3.981        0.001      334.453        4.437      866.205
04/14/2014  03:49:00      -63.352      -49.687        4.764       48.729       28.468       22.944     2374.538      810.424      526.408        0.511        0.186       80.513       27.678        0.118      334.372        4.302      866.200
04/14/2014  03:50:00      -99.728      -70.240        2.408       49.265       38.436       26.940     2427.045     1477.355      725.784        0.976        0.232      121.980       27.193        0.050      334.283        4.155      866.195
04/14/2014  03:51:00     -120.947      -62.047       -1.761       22.082       27.425       16.694      487.598      752.117      278.690        1.000        0.076      135.934       11.710        0.007      334.291        4.168      866.196
04/14/2014  03:52:00     -125.696      -66.184       -7.969       19.177       20.653       13.376      367.752      426.556      178.928        1.061        0.049      142.055        9.738        0.005      334.333        4.238      866.185
04/14/2014  03:53:00      -75.022      -52.312        1.738       36.574       28.912       19.826     1337.681      835.901      393.066        0.547        0.128       91.459       19.475        0.045      334.356        4.275      866.191
04/14/2014  03:54:00      -79.837      -66.049       -4.081       46.834       28.333       18.717     2193.421      802.756      350.334        0.705        0.167      103.617       11.061        0.011      334.352        4.268      866.203
04/14/2014  03:55:00      -81.486      -87.118        6.432       49.749       45.577       24.526     2474.970     2077.298      601.527        0.971        0.258      119.288       25.582        0.046      334.300        4.182      866.215
04/14/2014  03:56:00     -113.588      -62.139        5.661       57.432       40.011       29.198     3298.442     1600.890      852.498        1.127        0.288      129.474       29.637        0.052      334.323        4.220      866.214
04/14/2014  03:57:00     -155.218      -80.231       -5.592       47.730       33.685       23.420     2278.144     1134.669      548.511        1.726        0.198      174.728       25.869        0.022      334.347        4.260      866.198
04/14/2014  03:58:00     -123.957      -62.096      -11.303       29.450       17.890       15.520      867.297      320.061      240.879        1.039        0.071      138.641        9.906        0.005      334.307        4.193      866.195
04/14/2014  03:59:00     -139.335      -71.427      -12.771       36.409       22.812       16.520     1325.588      520.398      272.907        1.340        0.106      156.576       13.876        0.008      334.303        4.187      866.208
04/14/2014  04:00:00     -115.554      -51.234       -2.949       30.863       29.288       17.459      952.541      857.786      304.818        0.905        0.106      126.403       13.737        0.012      334.433        4.403      866.216
04/14/2014  04:01:00      -89.383      -55.988       -2.450       43.998       27.627       22.841     1935.802      763.237      521.710        0.717        0.161      105.470       19.627        0.035      334.360        4.282      866.223
04/14/2014  04:02:00     -123.637      -56.934      -12.505       30.435       21.197       18.911      926.265      449.315      357.617        1.021        0.087      136.116       17.732        0.017      334.342        4.250      866.218
04/14/2014  04:03:00     -121.693      -36.104      -13.350       15.222       18.876       14.236      231.698      356.319      202.656        0.854        0.040      126.935        8.482        0.004      334.295        4.173      866.215
04/14/2014  04:04:00     -111.910      -48.525      -12.145       20.919       15.898       13.550      437.588      252.759      183.597        0.795        0.044      121.977        7.984        0.004      334.337        4.245      866.212
04/14/2014  04:05:00     -106.030      -44.153       -9.861       21.937       16.406       17.291      481.227      269.141      298.966        0.717        0.052      114.856       14.853        0.017      334.385        4.323      866.193
04/14/2014  04:06:00     -147.780      -36.453      -17.277       19.823       16.455       14.596      392.963      270.754      213.055        1.217        0.044      152.209        8.434        0.003      334.413        4.371      866.165
04/14/2014  04:07:00     -109.706      -24.781      -14.985       19.107       18.458       15.057      365.087      340.711      226.710        0.690        0.047      112.470        9.301        0.007      334.337        4.243      866.149
04/14/2014  04:08:00      -91.695      -23.609       -6.131       21.113       19.361       16.256      445.766      374.833      264.242        0.504        0.054       94.685       12.566        0.018      334.243        4.087      866.138
04/14/2014  04:09:00      -61.598      -40.631       -8.766       34.694       20.487       14.425     1203.673      419.714      208.067        0.368        0.092       73.792       10.915        0.022      334.266        4.125      866.132
04/14/2014  04:10:00      -41.040      -36.758        1.792       36.977       28.124       25.013     1367.317      790.967      625.647        0.291        0.139       55.094       24.852        0.203      334.290        4.164      866.129
04/14/2014  04:11:00      -51.455      -29.975       -5.230       43.028       28.619       29.832     1851.450      819.048      889.952        0.357        0.178       59.549       30.206        0.257      334.348        4.262      866.124
04/14/2014  04:12:00      -53.340      -50.697       -9.173       36.345       34.683       27.790     1320.974     1202.921      772.296        0.440        0.165       73.589       19.799        0.072      334.377        4.310      866.129
04/14/2014  04:13:00      -58.892      -44.100       -5.382       57.190       29.346       25.658     3270.706      861.208      658.343        0.512        0.240       73.573       27.601        0.141      334.342        4.252      866.143
04/14/2014  04:14:00     -138.147      -59.950      -17.471       24.653       20.954       13.802      607.777      439.074      190.495        1.211        0.062      150.594       10.440        0.005      334.193        4.005      866.135
04/14/2014  04:15:00     -146.231      -67.519      -10.967       29.010       22.356       19.998      841.566      499.798      399.933        1.390        0.087      161.066       15.327        0.009      334.132        3.902      866.125
04/14/2014  04:16:00     -140.433      -65.265      -11.110       19.455       23.958       17.618      378.491      573.965      310.399        1.268        0.063      154.858       10.194        0.004      334.172        3.970      866.120
04/14/2014  04:17:00     -128.794      -55.685       -7.091       32.239       25.849       16.993     1039.367      668.173      288.751        1.087        0.100      140.317       16.243        0.013      334.277        4.143      866.112
04/14/2014  04:18:00     -106.580      -59.046       -9.968       13.397       13.738       12.790      179.487      188.730      163.587        0.774        0.027      121.843        3.495        0.001      334.372        4.301      866.103
04/14/2014  04:19:00      -91.473      -28.289       -9.793       12.314       13.636       12.413      151.642      185.948      154.073        0.488        0.025       95.748        7.553        0.006      334.321        4.218      866.096
04/14/2014  04:20:00     -112.156      -34.537      -15.851       13.998       11.530       11.668      195.955      132.934      136.143        0.724        0.023      117.354        9.059        0.006      334.352        4.268      866.087
04/14/2014  04:21:00     -112.962      -33.179      -14.371       11.850       10.611        8.609      140.423      112.601       74.120        0.720        0.016      117.734        5.693        0.002      334.318        4.211      866.088
04/14/2014  04:22:00     -109.422      -42.009      -13.100       17.676       20.123       12.420      312.443      404.942      154.245        0.739        0.044      117.209        7.733        0.004      334.246        4.092      866.087
04/14/2014  04:23:00      -86.492      -50.725       -7.544       19.148       17.530       14.636      366.650      307.285      214.217        0.550        0.044      100.269       12.513        0.016      334.197        4.009      866.081
04/14/2014  04:24:00      -83.781      -51.711       -8.618       15.386       12.316        9.378      236.721      151.677       87.951        0.512        0.024       98.454        3.736        0.001      334.131        3.900      866.078
04/14/2014  04:25:00      -96.656      -44.111      -11.281       17.380       12.940       15.328      302.050      167.455      234.962        0.606        0.035      106.245       10.685        0.010      334.223        4.053      866.075
04/14/2014  04:26:00     -108.377      -49.198      -16.494       17.847       17.358       16.687      318.498      301.285      278.448        0.767        0.045      119.021       10.021        0.007      334.264        4.122      866.053
04/14/2014  04:27:00      -90.534      -62.751       -7.538       28.259       16.948       17.988      798.568      287.248      323.561        0.680        0.070      110.155       11.725        0.011      334.187        3.995      866.039
04/14/2014  04:28:00      -74.181      -59.629       -7.908       29.077       15.368       14.882      845.451      236.161      221.474        0.521        0.065       95.175       13.064        0.019      334.119        3.882      866.038
04/14/2014  04:29:00     -109.800      -59.647      -14.391       15.625       16.027       10.923      244.139      256.880      119.309        0.822        0.031      124.955        5.727        0.002      334.157        3.946      866.039
04/14/2014  04:30:00     -112.715      -58.649      -18.490       19.897       20.170       14.396      395.894      406.819      207.233        0.875        0.050      127.060       12.073        0.009      334.132        3.904      866.052
04/14/2014  04:31:00     -107.527      -50.773      -19.360       16.654       13.963       12.303      277.364      194.974      151.359        0.757        0.031      118.911        6.869        0.003      334.110        3.865      866.049
04/14/2014  04:32:00      -86.450      -51.981      -12.885       22.514       16.545       15.806      506.865      273.736      249.817        0.569        0.052      100.875       14.179        0.020      334.166        3.959      866.037
04/14/2014  04:33:00      -89.739      -48.140      -18.754       12.140       13.479        8.429      147.383      181.673       71.056        0.556        0.020      101.836        5.674        0.003      334.085        3.824      866.023
04/14/2014  04:34:00      -87.736      -38.104      -14.973       17.059       20.218       13.946      290.998      408.780      194.481        0.513        0.045       95.653        6.491        0.005      334.108        3.861      866.021
04/14/2014  04:35:00      -94.975      -46.616      -20.837       13.637       14.416        9.953      185.977      207.826       99.067        0.606        0.025      105.799        9.105        0.007      334.098        3.847      866.019
04/14/2014  04:36:00     -111.550      -20.237      -18.220       20.731       13.879       12.830      429.777      192.632      164.617        0.699        0.039      113.371       10.469        0.009      334.120        3.884      866.013
04/14/2014  04:37:00     -123.139      -34.720      -20.073       11.825       15.440       12.543      139.833      238.383      157.326        0.865        0.027      127.940        5.481        0.002      334.111        3.867      866.011
04/14/2014  04:38:00     -124.687      -66.852      -17.354       27.227       24.182       17.368      741.299      584.789      301.648        1.097        0.081      141.478        9.476        0.004      334.114        3.874      866.009
04/14/2014  04:39:00     -101.664      -84.654       -7.499       45.903       34.113       23.505     2107.080     1163.701      552.502        1.069        0.191      132.294       12.419        0.009      334.038        3.747      866.018
04/14/2014  04:40:00     -135.286      -88.884       -2.230       32.679       29.516       23.507     1067.908      871.216      552.584        1.435        0.125      161.872       18.776        0.013      334.166        3.960      866.031
04/14/2014  04:41:00     -122.344      -83.567        4.902       43.561       37.483       26.677     1897.550     1404.963      711.675        1.299        0.201      148.160       23.859        0.026      334.066        3.792      866.022
04/14/2014  04:42:00     -140.788      -72.002       -1.147       54.567       30.443       26.340     2977.588      926.801      693.771        1.480        0.230      158.131       28.151        0.032      334.024        3.723      866.010
04/14/2014  04:43:00      -96.567      -69.874        7.602       50.511       34.084       23.475     2551.393     1161.714      551.074        0.926        0.213      119.195       23.670        0.039      333.979        3.650      865.990
04/14/2014  04:44:00     -126.629      -53.212      -11.864       36.590       23.528       21.254     1338.861      553.567      451.739        1.068        0.117      137.355       16.115        0.014      334.025        3.725      865.983
04/14/2014  04:45:00      -99.044      -82.720       -5.378       40.197       36.867       27.924     1615.798     1359.156      779.766        1.022        0.188      129.044       19.474        0.023      334.045        3.759      865.990
04/14/2014  04:46:00      -92.402      -69.943        3.460       55.165       43.359       29.101     3043.133     1880.044      846.870        0.960        0.289      115.889       31.685        0.075      333.999        3.681      865.993
04/14/2014  04:47:00     -123.228      -84.817        1.472       47.916       31.020       23.043     2295.930      962.212      530.971        1.308        0.189      149.596       22.992        0.024      333.989        3.664      866.002
04/14/2014  04:48:00     -111.628      -50.215        0.221       26.811       20.143       18.915      718.856      405.759      357.761        0.823        0.074      122.402       14.120        0.013      333.993        3.672      865.999
04/14/2014  04:49:00     -121.449      -65.723      -15.586       17.525       20.900       15.561      307.127      436.802      242.134        1.015        0.049      138.092        8.437        0.004      333.989        3.666      866.005
04/14/2014  04:50:00     -117.006      -62.730      -14.168       23.109       24.832       16.212      534.047      616.634      262.842        0.962        0.071      132.761       13.385        0.010      333.972        3.638      865.990
04/14/2014  04:51:00     -137.167      -35.188      -10.553       30.177       20.693       18.262      910.660      428.189      333.493        1.092        0.084      141.608       12.185        0.007      333.944        3.590      865.987
04/14/2014  04:52:00     -157.927      -34.814       -9.044       28.132       21.898       17.375      791.400      479.544      301.891        1.390        0.079      161.718       13.882        0.007      334.014        3.706      865.975
04/14/2014  04:53:00     -122.758      -56.984       -4.269       30.082       29.835       20.588      904.946      890.119      423.869        1.028        0.111      135.339       16.994        0.016      333.966        3.628      865.969
04/14/2014  04:54:00     -123.983      -86.006      -11.407       34.723       27.154       14.891     1205.703      737.338      221.729        1.253        0.108      150.894        7.774        0.003      333.990        3.666      865.964
04/14/2014  04:55:00     -131.287      -70.994       -0.937       29.867       27.158       18.342      892.051      737.563      336.441        1.212        0.098      149.253       16.016        0.012      333.964        3.623      865.954
04/14/2014  04:56:00     -123.741      -59.398       -8.632       31.978       25.738       17.309     1022.609      662.433      299.616        1.045        0.099      137.258       13.393        0.010      333.994        3.674      865.950
04/14/2014  04:57:00     -136.849      -39.034       -8.075       25.171       19.553       17.243      633.571      382.324      297.324        1.081        0.066      142.307       12.528        0.008      334.022        3.720      865.956
04/14/2014  04:58:00     -145.840      -50.703      -10.360       21.537       19.295       15.656      463.856      372.280      245.115        1.251        0.054      154.403       10.235        0.004      334.001        3.685      865.955
04/14/2014  04:59:00     -151.208      -56.474      -12.366       21.777       20.787       16.301      474.244      432.090      265.720        1.369        0.059      161.410       12.293        0.006      334.028        3.732      865.942
04/14/2014  05:00:00     -116.353      -54.798      -13.662       25.299       18.563       13.797      640.024      344.601      190.367        0.895        0.059      128.611        7.751        0.004      333.959        3.616      865.941
04/14/2014  05:01:00     -116.962      -51.888      -14.866       39.862       25.219       20.336     1589.016      635.978      413.539        0.962        0.132      127.955       15.889        0.015      334.044        3.757      865.942
04/14/2014  05:02:00     -104.858      -48.925      -15.116       25.348       17.236       13.576      642.503      297.078      184.319        0.737        0.056      115.710        5.023        0.002      333.944        3.591      865.940
04/14/2014  05:03:00     -108.673      -38.311      -13.102       24.282       21.877       14.687      589.609      478.589      215.711        0.737        0.064      115.228       11.652        0.010      333.972        3.638      865.943
04/14/2014  05:04:00     -126.119      -48.892       -7.332       22.574       19.962       13.316      509.567      398.499      177.308        0.972        0.054      135.264       11.317        0.007      333.944        3.592      865.942
04/14/2014  05:05:00     -130.035      -70.193      -13.477       20.582       25.264       15.348      423.633      638.260      235.576        1.166        0.065      147.771       11.708        0.006      333.947        3.595      865.957
04/14/2014  05:06:00     -138.562      -72.278      -17.919       40.186       33.779       26.075     1614.887     1141.053      679.895        1.409        0.172      156.280       18.530        0.014      333.855        3.443      865.968
04/14/2014  05:07:00     -118.902      -77.365        0.533       38.653       34.640       28.631     1494.019     1199.914      819.762        1.182        0.176      141.856       25.644        0.033      333.767        3.298      865.980
04/14/2014  05:08:00     -123.802      -64.832        2.127       32.742       25.673       22.709     1072.070      659.094      515.689        1.089        0.112      139.751       20.667        0.022      333.864        3.459      865.992
04/14/2014  05:09:00     -103.598      -62.729      -11.802       22.106       20.780       12.801      488.690      431.796      163.878        0.795        0.054      121.110        9.059        0.006      333.922        3.554      866.001
04/14/2014  05:10:00     -104.333      -51.995      -10.784       22.752       20.762       15.139      517.638      431.069      229.200        0.744        0.059      116.571       11.312        0.009      333.982        3.656      866.009
04/14/2014  05:11:00      -79.405      -51.742       -3.644       45.117       31.891       27.348     2035.501     1017.048      747.908        0.640        0.190       94.775       12.329        0.017      333.896        3.511      866.005
04/14/2014  05:12:00      -81.547      -74.796        5.828       47.243       48.320       24.937     2231.916     2334.781      621.852        0.873        0.259      110.654       26.087        0.056      333.823        3.390      866.011
04/14/2014  05:13:00      -85.075      -76.921       -1.133       21.742       21.764       17.945      472.721      473.676      322.021        0.721        0.063      114.693       10.905        0.009      333.830        3.401      866.008
04/14/2014  05:14:00      -89.183      -57.635       -1.946       54.927       43.641       25.328     3016.979     1904.508      641.482        0.842        0.278      106.185       23.375        0.048      333.858        3.449      866.005
04/14/2014  05:15:00      -93.328     -105.613        0.888       48.995       58.402       33.316     2400.468     3410.797     1109.925        1.339        0.346      140.941       30.336        0.046      333.683        3.158      866.012
04/14/2014  05:16:00     -125.476      -60.786        5.931       48.580       45.659       26.230     2359.993     2084.704      688.005        1.230        0.257      139.425       19.781        0.020      333.660        3.120      866.007
04/14/2014  05:17:00     -149.944      -88.128      -11.738       65.466       42.844       33.013     4285.833     1835.630     1089.832        1.880        0.361      173.925       35.275        0.041      333.632        3.072      866.001
04/14/2014  05:18:00     -140.048      -95.192        1.446       62.018       48.095       30.710     3846.286     2313.165      943.111        1.789        0.355      169.337       32.086        0.036      333.621        3.054      865.996
04/14/2014  05:19:00     -107.184      -71.543        4.495       46.421       35.274       27.166     2154.921     1244.268      738.015        1.038        0.207      128.867       20.328        0.025      333.656        3.113      866.013
04/14/2014  05:20:00     -159.053      -96.228       -4.929       30.731       29.257       25.351      944.406      855.977      642.693        1.851        0.122      185.897       18.762        0.010      333.683        3.157      866.019
04/14/2014  05:21:00     -109.909      -83.773        1.555       50.012       41.785       27.652     2501.243     1745.976      764.619        1.206        0.251      138.195       26.345        0.036      333.696        3.179      866.034
04/14/2014  05:22:00     -109.658      -83.789        6.484       55.568       40.616       27.548     3087.792     1649.634      758.903        1.229        0.275      138.005       30.163        0.048      333.682        3.157      866.051
04/14/2014  05:23:00     -117.488      -63.525        6.563       44.500       36.571       27.007     1980.225     1337.463      729.391        1.096        0.202      133.562       28.542        0.046      333.649        3.102      866.060
04/14/2014  05:24:00     -147.983      -67.946      -11.437       28.896       24.001       21.739      834.984      576.040      472.596        1.426        0.094      162.836       16.212        0.010      333.747        3.265      866.055
04/14/2014  05:25:00     -127.866      -70.425      -12.817       29.675       24.167       15.650      880.610      584.062      244.937        1.159        0.085      145.977       15.368        0.011      333.690        3.170      866.045
04/14/2014  05:26:00     -126.648      -45.373       -5.998       28.409       20.619       14.998      807.097      425.141      224.952        0.980        0.073      134.530       15.578        0.013      333.694        3.177      866.038
04/14/2014  05:27:00     -121.553      -36.740       -2.106       29.317       29.386       20.470      859.506      863.520      419.008        0.914        0.107      126.984       18.070        0.020      333.808        3.366      866.030
04/14/2014  05:28:00     -117.313      -34.291      -13.858       16.547       19.722       12.807      273.798      388.970      164.007        0.798        0.041      122.222        5.192        0.002      333.685        3.162      866.029
04/14/2014  05:29:00     -126.831      -26.860      -14.982       19.081       18.870       15.382      364.087      356.093      236.609        0.899        0.048      129.644       11.912        0.008      333.716        3.213      866.010
04/14/2014  05:30:00     -121.803      -20.956      -14.664       20.049       18.849       12.478      401.973      355.283      155.697        0.820        0.046      123.592       11.479        0.009      333.702        3.190      865.992
04/14/2014  05:31:00     -119.195      -26.831      -15.699       23.695       15.108       15.908      561.441      228.240      253.076        0.811        0.052      122.178       12.199        0.010      333.716        3.213      865.993
04/14/2014  05:32:00      -90.868      -34.803       -2.615       24.484       19.188       15.605      599.444      368.181      243.524        0.534        0.061       97.305       12.261        0.016      333.763        3.291      865.976
04/14/2014  05:33:00     -113.898      -46.654      -12.280       18.853       15.977       17.694      355.426      255.249      313.082        0.811        0.046      123.082       10.646        0.007      333.729        3.234      865.969
04/14/2014  05:34:00     -140.937      -31.241      -18.500       16.558       14.756       14.069      274.158      217.754      197.936        1.094        0.034      144.358        7.899        0.003      333.709        3.200      865.955
04/14/2014  05:35:00     -132.972      -24.487      -24.866       13.785       12.056       11.092      190.019      145.347      123.037        0.968        0.023      135.208        3.354        0.001      333.750        3.269      865.937
04/14/2014  05:36:00      -95.645      -30.880      -13.251       25.869       15.243       13.804      669.184      232.348      190.562        0.568        0.055      100.507       13.942        0.019      333.735        3.244      865.925
04/14/2014  05:37:00      -98.616      -42.573      -17.728       18.739       20.834       20.188      351.132      434.053      407.554        0.652        0.060      107.413       11.508        0.011      333.684        3.161      865.927
04/14/2014  05:38:00      -89.643      -61.243      -15.309       16.835       19.966       13.911      283.420      398.658      193.530        0.645        0.044      108.566       10.093        0.009      333.674        3.143      865.922
04/14/2014  05:39:00      -78.450      -62.376       -8.556       34.239       18.539       19.997     1172.319      343.709      399.864        0.602        0.096      100.226       19.662        0.038      333.678        3.151      865.914
04/14/2014  05:40:00     -120.284      -62.047      -22.771       20.058       19.070       14.695      402.304      363.654      215.957        0.991        0.049      135.345       10.634        0.006      333.583        2.993      865.915
04/14/2014  05:41:00     -131.121      -41.816      -19.935       20.658       15.104       14.700      426.740      228.129      216.082        1.010        0.044      137.627       11.885        0.007      333.503        2.859      865.919
04/14/2014  05:42:00     -113.453      -42.219      -14.344       17.754       22.984       17.277      315.211      528.257      298.481        0.800        0.057      121.054        5.125        0.002      333.677        3.149      865.917
04/14/2014  05:43:00     -111.963      -40.037      -15.495       18.869       15.769       16.224      356.054      248.655      263.219        0.762        0.043      118.906        7.967        0.004      333.697        3.181      865.914
04/14/2014  05:44:00     -105.421      -57.613      -17.443       22.528       20.070       13.223      507.496      402.800      174.845        0.791        0.054      120.136       12.512        0.011      333.735        3.244      865.907
04/14/2014  05:45:00     -101.089      -50.483      -11.109       22.081       19.094       14.673      487.583      364.573      215.291        0.698        0.053      112.993        7.887        0.005      333.660        3.120      865.905
04/14/2014  05:46:00      -86.280      -69.103       -3.482       32.408       25.735       19.646     1050.282      662.273      385.951        0.716        0.105      110.541       17.287        0.024      333.695        3.178      865.907
04/14/2014  05:47:00      -93.688      -69.619       -5.435       37.772       26.407       22.388     1426.712      697.309      501.203        0.814        0.131      116.723       18.780        0.026      333.631        3.072      865.909
04/14/2014  05:48:00     -108.038      -86.998        3.263       38.603       27.303       23.078     1490.208      745.467      532.582        1.101        0.138      138.711       22.012        0.025      333.555        2.946      865.916
04/14/2014  05:49:00     -148.794      -70.413      -15.568       31.668       24.812       22.158     1002.851      615.639      490.972        1.472        0.105      164.614       17.833        0.012      333.612        3.041      865.913
04/14/2014  05:50:00     -139.700      -72.950       -5.822       36.358       29.568       22.619     1321.878      874.251      511.616        1.379        0.135      157.600       23.424        0.022      333.589        3.002      865.920
04/14/2014  05:51:00     -114.591      -84.607       -6.539       31.962       32.019       21.889     1021.551     1025.228      479.121        1.143        0.126      142.441       18.356        0.017      333.604        3.026      865.922
04/14/2014  05:52:00     -102.608      -59.119       -4.600       60.114       28.346       25.463     3613.720      803.508      648.346        0.955        0.253      118.421       22.275        0.035      333.604        3.028      865.939
04/14/2014  05:53:00     -132.019      -84.629       -2.139       49.265       31.488       23.748     2427.082      991.492      563.951        1.429        0.199      156.815       27.929        0.032      333.568        2.967      865.940
04/14/2014  05:54:00     -114.954      -78.895       -6.036       44.974       33.815       28.009     2022.644     1143.464      784.505        1.171        0.198      139.423       26.119        0.035      333.587        3.001      865.943
04/14/2014  05:55:00     -105.209      -83.269        5.437       57.989       41.302       27.786     3362.693     1705.857      772.054        1.194        0.292      134.174       27.315        0.041      333.581        2.990      865.944
04/14/2014  05:56:00     -110.963      -77.986       -3.496       56.294       36.820       25.857     3169.024     1355.738      668.586        1.180        0.260      135.626       25.334        0.035      333.537        2.916      865.958
04/14/2014  05:57:00      -91.707      -56.291       -3.049       47.575       37.639       24.097     2263.425     1416.671      580.684        0.792        0.213      107.605        8.743        0.007      333.551        2.940      865.968
04/14/2014  05:58:00     -132.331      -82.091       -2.973       47.357       35.783       28.745     2242.680     1280.392      826.271        1.430        0.217      155.726       27.435        0.031      333.530        2.905      865.963
04/14/2014  05:59:00     -131.481      -62.540        1.468       35.342       31.732       25.208     1249.040     1006.915      635.467        1.205        0.145      145.597       16.720        0.013      333.504        2.862      865.970
04/14/2014  06:00:00     -102.091      -68.135       -0.117       49.678       31.703       22.496     2467.885     1005.084      506.077        0.952        0.199      122.739       23.617        0.037      333.548        2.935      865.991
04/14/2014  06:01:00     -150.085      -82.263       -5.204       47.624       44.006       27.157     2268.078     1936.514      737.507        1.713        0.247      171.151       24.054        0.020      333.483        2.826      865.995
04/14/2014  06:02:00     -120.592      -69.090        3.046       63.566       33.615       23.863     4040.663     1129.980      569.422        1.253        0.287      138.982       19.766        0.020      333.506        2.864      865.995
04/14/2014  06:03:00     -107.351      -73.044        7.597       66.884       39.578       32.590     4473.442     1566.418     1062.103        1.201        0.355      129.845       28.659        0.049      333.516        2.880      865.995
04/14/2014  06:04:00     -125.253      -53.499       -4.144       32.254       35.687       19.192     1040.309     1273.590      368.334        1.062        0.134      136.200       19.205        0.020      333.544        2.928      866.007
04/14/2014  06:05:00     -138.005      -67.200       -0.523       46.376       34.056       26.761     2150.702     1159.785      716.177        1.379        0.201      153.496       26.730        0.030      333.509        2.869      866.004
04/14/2014  06:06:00      -88.123      -40.240       -0.673       54.294       29.329       22.941     2947.809      860.209      526.299        0.686        0.217       96.876       25.569        0.070      333.493        2.843      866.018
04/14/2014  06:07:00     -101.069      -64.408       -0.524       48.673       25.980       22.539     2369.020      674.952      508.008        0.896        0.178      119.848       26.710        0.050      333.514        2.877      866.031
04/14/2014  06:08:00     -142.349      -78.168       -7.594       19.640       15.758       13.408      385.723      248.309      179.763        1.362        0.041      162.399       11.455        0.005      333.500        2.855      866.025
04/14/2014  06:09:00     -118.013      -76.048       -7.641       19.356       20.647       15.106      374.662      426.311      228.201        1.040        0.051      140.393       11.133        0.006      333.570        2.972      866.023
04/14/2014  06:10:00     -111.110      -60.085      -17.893       16.799       21.208       17.072      282.194      449.792      291.436        0.865        0.051      126.316        6.603        0.003      333.595        3.012      866.023
04/14/2014  06:11:00      -86.372      -49.905       -3.017       32.588       28.960       15.151     1061.999      838.675      229.552        0.604        0.107       99.753       14.132        0.020      333.609        3.035      866.045
04/14/2014  06:12:00     -115.771      -56.370       -4.239       33.743       29.535       19.106     1138.620      872.288      365.050        0.949        0.119      128.765       14.792        0.013      333.556        2.948      866.060
04/14/2014  06:13:00     -120.128      -82.914       -5.328       37.033       35.828       18.266     1371.434     1283.611      333.633        1.216        0.149      145.964       15.945        0.012      333.355        2.616      866.068
04/14/2014  06:14:00     -148.041      -83.598       -1.422       34.015       29.814       25.245     1157.008      888.865      637.332        1.579        0.134      170.013       22.335        0.017      333.364        2.630      866.092
04/14/2014  06:15:00     -111.652      -66.833        4.925       55.632       34.046       28.221     3094.896     1159.105      796.441        1.100        0.253      130.126       25.948        0.040      333.391        2.675      866.107
04/14/2014  06:16:00     -110.639     -102.523       -0.443       34.635       29.108       21.143     1199.576      847.255      447.036        1.262        0.125      150.838        9.948        0.004      333.441        2.756      866.137
04/14/2014  06:17:00     -127.351      -82.722        3.322       57.810       36.557       26.359     3341.955     1336.393      694.802        1.422        0.269      151.859       26.356        0.030      333.358        2.618      866.162
04/14/2014  06:18:00     -126.411      -61.308        7.050       74.023       40.832       29.384     5479.438     1667.259      863.404        1.390        0.401      140.493       33.293        0.056      333.391        2.674      866.167
04/14/2014  06:19:00     -127.430      -80.983        9.999       66.109       47.807       28.491     4370.364     2285.477      811.740        1.518        0.373      150.985       28.676        0.036      333.389        2.671      866.172
04/14/2014  06:20:00      -80.490      -64.354        5.732       52.464       43.263       26.601     2752.507     1871.703      707.621        0.799        0.267      103.054       27.403        0.071      333.486        2.833      866.196
04/14/2014  06:21:00     -134.039      -78.426       -2.034       45.734       27.243       23.651     2091.594      742.188      559.350        1.376        0.170      155.297       22.945        0.022      333.559        2.952      866.202
04/14/2014  06:22:00      -89.482      -53.473       -1.371       43.117       32.501       24.668     1859.035     1056.317      608.489        0.720        0.176      104.242       21.609        0.043      333.572        2.974      866.212
04/14/2014  06:23:00     -127.384      -58.112       -3.547       38.876       27.518       19.874     1511.366      757.263      394.971        1.114        0.133      140.013       16.554        0.014      333.684        3.159      866.225
04/14/2014  06:24:00     -130.595      -67.122       -6.437       22.495       30.070       15.449      506.013      904.176      238.681        1.163        0.082      146.835       12.386        0.007      333.791        3.338      866.222
04/14/2014  06:25:00     -121.399      -35.725       -2.763       41.293       39.674       23.019     1705.086     1574.017      529.868        0.991        0.190      126.547       22.597        0.032      333.773        3.307      866.221
04/14/2014  06:26:00     -122.130      -42.336        2.326       39.973       29.386       19.442     1597.852      863.509      377.998        0.978        0.142      129.260       22.162        0.029      333.713        3.209      866.229
04/14/2014  06:27:00     -119.123      -49.604      -17.673       24.070       15.480       17.205      579.356      239.621      296.029        0.904        0.056      129.039        8.335        0.004      333.792        3.338      866.233
04/14/2014  06:28:00      -84.292      -42.593       -9.190       24.220       22.792       13.545      586.617      519.459      183.481        0.515        0.064       94.442        9.339        0.010      333.829        3.400      866.232
04/14/2014  06:29:00     -103.427      -58.263      -15.640       16.121       20.765       14.073      259.894      431.176      198.059        0.761        0.044      118.708       11.374        0.009      333.837        3.414      866.228
04/14/2014  06:30:00     -112.256      -75.311      -14.731       27.422       21.372       16.203      751.980      456.778      262.547        0.998        0.074      135.178       12.199        0.008      333.864        3.459      866.239
04/14/2014  06:31:00     -126.043      -62.005      -17.192       16.771       17.376       10.386      281.250      301.940      107.864        1.036        0.035      140.468        6.058        0.002      333.809        3.367      866.245
04/14/2014  06:32:00     -110.342      -64.549       -8.772       21.244       22.574       18.246      451.308      509.587      332.925        0.886        0.065      127.836        9.559        0.006      333.797        3.347      866.245
04/14/2014  06:33:00      -81.988      -50.887       -7.946       43.349       29.504       20.054     1879.147      870.457      402.163        0.626        0.158       96.496       16.482        0.029      333.822        3.389      866.242
04/14/2014  06:34:00      -77.322      -44.807       -5.466       28.120       22.551       17.160      790.721      508.543      294.461        0.480        0.080       89.366       16.207        0.033      333.650        3.102      866.253
04/14/2014  06:35:00      -76.702      -45.506      -11.131       22.689       15.523       12.161      514.810      240.956      147.891        0.449        0.045       89.185        5.736        0.004      333.639        3.086      866.254
04/14/2014  06:36:00      -85.181      -45.066       -8.741       26.311       20.420       12.874      692.246      416.957      165.727        0.532        0.064       96.367       12.164        0.016      333.559        2.953      866.246
04/14/2014  06:37:00      -88.760      -66.207       -9.994       30.218       22.682       18.774      913.154      514.472      352.449        0.707        0.089      110.733       11.226        0.010      333.569        2.969      866.240
04/14/2014  06:38:00     -109.951      -74.924        0.655       33.850       24.700       25.481     1145.817      610.090      649.272        1.005        0.120      133.052       21.501        0.026      333.530        2.905      866.241
04/14/2014  06:39:00     -103.534      -66.270       -2.525       43.352       28.735       18.680     1879.418      825.716      348.943        0.909        0.153      122.927       15.079        0.015      333.533        2.908      866.246
04/14/2014  06:40:00     -134.309      -64.487       -4.437       30.241       24.509       18.744      914.514      600.676      351.350        1.204        0.093      148.988       11.588        0.006      333.605        3.029      866.254
04/14/2014  06:41:00     -114.350      -66.198       -1.112       42.276       25.226       22.601     1787.244      636.348      510.803        1.020        0.147      132.129       22.990        0.030      333.623        3.059      866.263
04/14/2014  06:42:00      -90.368      -69.410       -3.035       49.203       41.007       26.517     2420.970     1681.556      703.164        0.890        0.240      113.948       26.944        0.056      333.654        3.110      866.274
04/14/2014  06:43:00     -137.236     -102.535       -4.091       42.153       28.331       27.677     1776.909      802.656      766.020        1.635        0.167      171.310       27.908        0.027      333.639        3.084      866.292
04/14/2014  06:44:00     -124.678      -49.867       -9.053       42.894       39.894       17.718     1839.892     1591.536      313.928        1.093        0.187      134.281       14.688        0.012      333.711        3.203      866.308
04/14/2014  06:45:00     -126.636      -73.085       -3.380       35.405       28.866       20.883     1253.517      833.218      436.082        1.196        0.126      146.212       21.708        0.022      333.673        3.142      866.326
04/14/2014  06:46:00     -142.283      -83.795      -10.363       33.301       27.800       22.401     1108.988      772.834      501.800        1.488        0.119      165.124       18.742        0.013      333.673        3.142      866.334
04/14/2014  06:47:00     -129.513      -86.134       -1.063       27.347       28.862       21.044      747.865      832.989      442.838        1.311        0.101      155.540       16.268        0.011      333.620        3.054      866.348
04/14/2014  06:48:00     -145.248      -67.885      -15.915       30.732       23.785       22.562      944.428      565.713      509.066        1.399        0.101      160.329       22.640        0.020      333.636        3.080      866.357
04/14/2014  06:49:00     -110.881      -67.987       -3.056       33.239       27.126       21.494     1104.818      735.834      461.998        0.961        0.115      130.065       17.794        0.019      333.648        3.102      866.360
04/14/2014  06:50:00     -104.721      -75.761        4.002       43.930       34.286       25.465     1929.836     1175.505      648.467        1.024        0.188      129.252       19.393        0.023      333.598        3.018      866.369
04/14/2014  06:51:00      -97.404      -72.464        0.184       44.776       33.903       25.985     2004.890     1149.420      675.209        0.928        0.191      121.402       17.567        0.021      333.608        3.034      866.394
04/14/2014  06:52:00     -110.878      -91.479       -0.802       55.301       51.506       30.891     3058.249     2652.861      954.245        1.366        0.333      143.744       30.602        0.045      333.580        2.987      866.409
04/14/2014  06:53:00     -144.487     -108.863      -14.179       58.663       60.847       36.766     3441.327     3702.305     1351.765        2.071        0.425      180.908       31.564        0.030      333.395        2.681      866.410
04/14/2014  06:54:00     -136.446     -117.275      -13.579       55.841       46.234       27.405     3118.207     2137.573      751.011        1.928        0.300      179.919       16.909        0.009      333.305        2.531      866.416
04/14/2014  06:55:00     -125.638      -82.066       -3.463       60.799       57.584       34.735     3696.459     3315.936     1206.509        1.537        0.411      150.065       35.816        0.057      333.371        2.642      866.435
04/14/2014  06:56:00     -101.951      -56.815       11.427       51.954       46.978       35.926     2699.255     2206.938     1290.668        0.997        0.310      116.713       29.340        0.063      333.446        2.767      866.439
04/14/2014  06:57:00      -99.444      -65.468        8.708       48.817       39.436       27.697     2383.065     1555.221      767.124        0.948        0.235      119.059       27.170        0.052      333.571        2.973      866.449
04/14/2014  06:58:00     -116.942      -55.825       -2.928       35.309       35.986       20.634     1246.723     1294.986      425.746        0.988        0.148      129.583       14.765        0.013      333.652        3.107      866.467
04/14/2014  06:59:00      -90.160      -55.083       -3.591       28.645       19.531       16.076      820.557      381.469      258.449        0.632        0.073      105.655       14.245        0.018      333.696        3.180      866.480
04/14/2014  07:00:00     -105.068      -61.822       -6.663       24.330       25.043       15.952      591.941      627.158      254.480        0.819        0.074      121.906       10.499        0.007      333.803        3.357      866.486
04/14/2014  07:01:00      -92.400      -42.944       -9.924       24.926       15.290       16.416      621.304      233.774      269.474        0.580        0.056      101.892       12.553        0.015      333.883        3.490      866.493
04/14/2014  07:02:00      -78.671      -42.656       -4.871       15.695       17.579       14.996      246.332      309.006      224.869        0.441        0.039       89.491       10.096        0.013      333.895        3.511      866.492
04/14/2014  07:03:00     -103.654      -48.039       -6.480       19.157       20.398       15.002      366.973      416.078      225.050        0.705        0.050      114.245       10.693        0.009      333.940        3.585      866.492
04/14/2014  07:04:00     -105.617      -49.207       -5.018       21.232       16.144       11.502      450.788      260.621      132.294        0.722        0.042      116.517        8.428        0.005      333.969        3.633      866.484
04/14/2014  07:05:00      -90.237      -43.029       -8.606       24.402       11.665       15.004      595.449      136.061      225.106        0.551        0.048       99.971       15.125        0.023      334.040        3.751      866.475
04/14/2014  07:06:00      -39.464      -12.104       -1.853       22.204       13.692       12.938      493.035      187.480      167.403        0.128        0.042       41.278       13.412        0.106      334.078        3.812      866.476
04/14/2014  07:07:00      -61.624      -14.228       -8.563       13.866       12.024        9.606      192.252      144.581       92.276        0.225        0.021       63.245        4.167        0.004      334.122        3.885      866.489
04/14/2014  07:08:00      -61.087       -6.543       -3.652       19.107       13.093       10.784      365.074      171.434      116.295        0.222        0.033       61.436       10.497        0.029      334.153        3.938      866.499
04/14/2014  07:09:00      -80.158      -18.994       -7.208       28.436       12.994        9.058      808.579      168.854       82.042        0.395        0.053       82.377        7.878        0.009      334.204        4.023      866.511
04/14/2014  07:10:00      -93.722      -31.159      -10.704       12.824       12.654        7.185      164.445      160.134       51.626        0.512        0.019       98.766        5.831        0.003      334.260        4.116      866.522
04/14/2014  07:11:00      -55.571      -48.823       -1.356       23.313       14.760       13.334      543.489      217.863      177.789        0.321        0.047       73.972       12.228        0.027      334.333        4.237      866.541
04/14/2014  07:12:00      -62.314      -44.239       -2.575       13.749       13.233        8.905      189.046      175.124       79.294        0.315        0.022       76.421        5.198        0.005      334.379        4.314      866.555
04/14/2014  07:13:00      -19.434      -19.334        7.684       29.980       22.899       17.680      898.775      524.371      312.590        0.127        0.087       27.413       17.707        0.417      334.408        4.361      866.575
04/14/2014  07:14:00      -99.718      -81.468       -6.071       35.020       31.486       23.876     1226.402      991.379      570.047        0.970        0.139      128.766       18.947        0.022      334.221        4.049      866.587
04/14/2014  07:15:00      -77.976      -26.770       -2.161       36.716       27.139       22.321     1348.047      736.499      498.249        0.469        0.129       82.443       12.181        0.022      334.194        4.006      866.598
04/14/2014  07:16:00      -17.439      -78.479        4.067       42.018       57.637       32.831     1765.546     3321.968     1077.865        0.632        0.308       80.393       23.613        0.086      334.077        3.813      866.609
04/14/2014  07:17:00      -69.591      -80.560        8.462       53.442       61.108       36.580     2856.059     3734.158     1338.081        0.966        0.396      106.456       31.674        0.089      334.013        3.706      866.616
04/14/2014  07:18:00     -120.067      -99.805        5.992       80.292       51.667       37.089     6446.872     2669.450     1375.579        1.745        0.525      156.132       37.103        0.056      334.044        3.756      866.616
04/14/2014  07:19:00      -30.157      -36.174       16.869       61.830       42.791       36.260     3822.927     1831.065     1314.784        0.473        0.348       47.096       37.411        0.631      334.283        4.155      866.609
04/14/2014  07:20:00      -69.441      -50.842       -0.014       72.161       44.639       32.387     5207.229     1992.634     1048.897        0.783        0.412       86.064       36.639        0.181      334.110        3.868      866.609
04/14/2014  07:21:00     -103.662      -64.529        1.487       58.671       39.361       27.180     3442.230     1549.277      738.763        1.032        0.287      122.106       28.830        0.056      334.161        3.949      866.615
04/14/2014  07:22:00      -82.708      -62.933       10.521       62.651       48.616       36.091     3925.152     2363.491     1302.594        0.925        0.380      103.928       32.167        0.096      334.118        3.879      866.619
04/14/2014  07:23:00     -106.676      -83.520       -7.478       45.571       27.762       28.195     2076.700      770.707      794.976        1.103        0.182      135.482       23.971        0.031      334.043        3.755      866.621
04/14/2014  07:24:00      -80.471      -71.696      -15.818       39.631       23.699       16.320     1570.609      561.663      266.326        0.713        0.120      107.777       16.754        0.024      334.186        3.993      866.625
04/14/2014  07:25:00      -30.863      -64.547       -2.376       21.669       22.570       13.487      469.532      509.391      181.904        0.314        0.058       71.546        7.138        0.010      334.374        4.306      866.635
04/14/2014  07:26:00      -46.637      -43.023       13.425       44.068       27.438       25.526     1942.003      752.862      651.592        0.378        0.167       63.451       26.854        0.179      334.461        4.449      866.635
04/14/2014  07:27:00      -36.622      -46.168       14.162       55.193       25.504       23.816     3046.251      650.479      567.189        0.397        0.213       58.929       29.249        0.246      334.578        4.642      866.649
04/14/2014  07:28:00      -92.412      -85.618       -4.842       50.778       27.891       22.310     2578.357      777.883      497.732        0.987        0.193      125.978       26.805        0.045      334.468        4.459      866.647
04/14/2014  07:29:00      -89.579      -88.943      -12.650       30.338       26.256       17.436      920.410      689.388      304.028        0.900        0.096      126.235       14.774        0.014      334.435        4.406      866.642
04/14/2014  07:30:00      -33.145      -45.599        4.405       17.124       25.814       13.941      293.247      666.354      194.350        0.218        0.058       56.372        9.556        0.029      334.536        4.574      866.638
04/14/2014  07:31:00      -35.127       -8.426       -0.824       16.566       18.030       11.159      274.428      325.075      124.530        0.101        0.036       36.123        7.133        0.039      334.782        4.981      866.623
04/14/2014  07:32:00      -50.753      -18.011       -8.322       13.687        9.238        8.485      187.328       85.332       72.000        0.166        0.017       53.855        5.790        0.012      334.759        4.945      866.614
04/14/2014  07:33:00      -68.519      -18.179      -12.506       12.118       13.568        9.907      146.837      184.090       98.142        0.281        0.021       70.890        5.494        0.006      334.774        4.969      866.615
04/14/2014  07:34:00      -58.241      -18.409       -1.688       25.226       18.320       13.772      636.327      335.617      189.673        0.245        0.058       61.081       15.150        0.062      334.857        5.106      866.622
04/14/2014  07:35:00      -69.225       -6.673       -1.732       21.369       10.842       10.021      456.652      117.544      100.426        0.276        0.034       69.546       11.130        0.026      334.870        5.128      866.628
04/14/2014  07:36:00      -54.660       -8.406       -6.646       21.683        9.380        8.676      470.172       87.983       75.276        0.187        0.032       55.303       10.469        0.036      334.989        5.324      866.635
04/14/2014  07:37:00      -51.837       -7.130       -2.557       22.242       10.839        9.026      494.725      117.487       81.462        0.172        0.035       52.325        8.520        0.027      335.086        5.487      866.638
04/14/2014  07:38:00      -40.856       -1.934       -2.096       11.310       12.340        9.594      127.923      152.268       92.039        0.102        0.019       40.902        8.132        0.040      335.197        5.671      866.643
04/14/2014  07:39:00      -29.839       -2.047       -1.759       13.302       11.064       14.292      176.951      122.402      204.263        0.070        0.025       29.909        7.445        0.062      335.501        6.176      866.654
04/14/2014  07:40:00      -22.114      -12.343       -5.950       13.947        9.142        6.362      194.506       83.575       40.475        0.050        0.016       25.326        6.684        0.070      335.425        6.050      866.662
04/14/2014  07:41:00       -9.141      -13.744        3.542       14.113       10.829       10.499      199.178      117.258      110.222        0.036        0.021       16.506        8.575        0.270      335.528        6.222      866.683
04/14/2014  07:42:00      -46.605      -83.836        1.101       31.122       28.105       18.632      968.565      789.903      347.147        0.565        0.105       95.920       15.554        0.026      335.231        5.726      866.706
04/14/2014  07:43:00      -44.904      -52.306        9.384       39.609       24.533       22.214     1568.840      601.868      493.455        0.375        0.133       68.937       17.648        0.066      335.256        5.769      866.720
04/14/2014  07:44:00      -65.623      -67.864      -12.196       25.587       31.247       20.852      654.711      976.385      434.794        0.556        0.103       94.403       13.100        0.019      335.215        5.699      866.727
04/14/2014  07:45:00      -38.395      -80.034        6.481       39.375       39.315       34.026     1550.423     1545.650     1157.755        0.609        0.213       88.767       28.714        0.105      335.246        5.752      866.742
04/14/2014  07:46:00      -50.611      -64.943        2.907       35.504       48.361       24.396     1260.557     2338.800      595.170        0.549        0.210       82.335       18.258        0.049      335.143        5.581      866.742
04/14/2014  07:47:00      -38.056      -39.885        6.661       32.679       25.890       25.082     1067.921      670.279      629.083        0.272        0.118       55.128       18.650        0.114      335.270        5.792      866.733
04/14/2014  07:48:00      -30.559      -42.436       19.595       31.006       37.123       22.740      961.390     1378.135      517.102        0.299        0.143       52.294       24.559        0.221      335.491        6.159      866.745
04/14/2014  07:49:00      -72.239      -73.616       -4.982       48.813       37.045       22.233     2382.700     1372.312      494.313        0.746        0.212      103.140       24.340        0.056      335.308        5.855      866.749
04/14/2014  07:50:00      -70.524      -87.694       -2.513       34.915       21.330       23.691     1219.064      454.984      561.269        0.745        0.112      112.534       18.184        0.026      335.321        5.877      866.751
04/14/2014  07:51:00      -99.024      -78.816       -3.401       31.987       39.601       17.604     1023.176     1568.240      309.885        0.946        0.145      126.561       19.704        0.024      335.403        6.013      866.762
04/14/2014  07:52:00      -66.704      -24.226       -1.754       26.318       19.046       13.683      692.626      362.755      187.221        0.314        0.062       70.967        6.429        0.008      335.530        6.225      866.761
04/14/2014  07:53:00      -40.455      -11.299        0.063       14.975       12.967        9.811      224.239      168.151       96.250        0.113        0.024       42.003        4.320        0.011      335.626        6.386      866.743
04/14/2014  07:54:00      -46.434      -10.441       -4.512       11.239       10.652        7.642      126.313      113.456       58.400        0.129        0.015       47.593        5.324        0.013      335.623        6.381      866.727
04/14/2014  07:55:00      -42.768      -16.436       -4.657       11.404        7.634        8.518      130.055       58.285       72.562        0.119        0.013       45.817        5.356        0.014      335.693        6.497      866.713
04/14/2014  07:56:00      -11.150       -8.053       -4.482        7.866        6.681        5.607       61.877       44.642       31.436        0.017        0.007       13.754        3.999        0.085      335.953        6.931      866.706
04/14/2014  07:57:00      -19.169       -4.797       -6.277       11.107        5.491        4.323      123.357       30.150       18.687        0.030        0.009       19.760        3.730        0.036      336.006        7.019      866.704
04/14/2014  07:58:00       -4.127        2.831       21.457       16.075       10.130       13.904      258.397      102.612      193.308        0.052        0.028        5.005       10.916        4.757      336.653        8.101      866.702
04/14/2014  07:59:00       30.826       34.623       -0.836       17.166       23.629       26.412      294.678      558.352      697.577        0.185        0.078       46.357       16.044        0.120      336.098        7.171      866.700
04/14/2014  08:00:00       13.331       17.572       -8.315       14.527       13.810       19.308      211.026      190.728      372.807        0.066        0.039       22.056       12.756        0.334      336.142        7.246      866.702
04/14/2014  08:01:00       -2.115        1.774       23.407        8.306        9.916        6.502       68.984       98.321       42.277        0.038        0.010        2.760        4.968        3.239      336.915        8.537      866.697
04/14/2014  08:02:00      -14.938        3.043       10.012       17.706       13.651       12.531      313.519      186.339      157.027        0.049        0.033       15.245       12.783        0.703      336.370        7.625      866.698
04/14/2014  08:03:00      -49.359      -16.654       -7.181       19.390       12.840       11.691      375.982      164.859      136.677        0.172        0.034       52.093        7.093        0.019      336.064        7.114      866.701
04/14/2014  08:04:00      -17.742       -3.167       10.438       22.307       12.192       15.104      497.601      148.648      228.122        0.065        0.044       18.022       14.002        0.604      336.551        7.928      866.702
04/14/2014  08:05:00       -6.628       -4.063       13.596       26.069       11.677       14.925      679.578      136.348      222.769        0.064        0.052        7.774       14.999        3.722      336.785        8.321      866.712
04/14/2014  08:06:00       -7.644       -1.710       13.835       16.608       20.737       17.940      275.823      430.004      321.828        0.064        0.051        7.833       13.833        3.119      336.922        8.549      866.719
04/14/2014  08:07:00      -19.248      -34.909        4.938       23.837       18.690       17.449      568.211      349.302      304.483        0.142        0.061       39.864       14.037        0.124      336.307        7.520      866.729
04/14/2014  08:08:00      -19.187      -21.662       -3.482       12.769       11.431       11.453      163.059      130.677      131.181        0.064        0.021       28.937        8.341        0.083      336.326        7.552      866.742
04/14/2014  08:09:00      -26.091      -21.007       -5.896       10.375       14.151        6.954      107.638      200.257       48.359        0.076        0.018       33.497        6.146        0.034      336.304        7.516      866.753
04/14/2014  08:10:00      -18.339      -23.756        1.035        8.933       13.386       10.118       79.791      179.189      102.369        0.063        0.018       30.011        4.170        0.019      336.372        7.629      866.753
04/14/2014  08:11:00       11.210        6.234       16.466       28.530       19.304       16.041      813.962      372.633      257.305        0.094        0.072       12.826       17.136        1.785      336.727        8.222      866.762
04/14/2014  08:12:00       28.195       39.695       31.045       27.955       27.644       19.334      781.473      764.175      373.802        0.263        0.096       48.689       16.655        0.117      336.781        8.313      866.768
04/14/2014  08:13:00      -14.389       10.076       37.332       12.990       19.281       15.309      168.750      371.770      234.376        0.124        0.039       17.566       14.244        0.658      337.629        9.734      866.779
04/14/2014  08:14:00      -16.132        6.742       30.565       12.553       15.461       17.972      157.572      239.033      322.983        0.098        0.036       17.484       14.137        0.654      337.394        9.340      866.792
04/14/2014  08:15:00      -31.786       13.261       33.731       21.389       18.641       20.757      457.470      347.498      430.834        0.178        0.062       34.441       12.822        0.139      337.039        8.745      866.789
04/14/2014  08:16:00       -4.135       13.932       49.503       12.026       18.339        9.856      144.620      336.326       97.132        0.162        0.029       14.533        7.585        0.272      337.476        9.475      866.790
04/14/2014  08:17:00       14.480       33.756       34.913       22.003       21.246       17.736      484.133      451.395      314.582        0.191        0.063       36.730       10.363        0.080      337.233        9.069      866.791
04/14/2014  08:18:00       38.204       34.615       17.525       38.120       27.896       24.789     1453.164      778.207      614.514        0.290        0.142       51.553       14.901        0.084      337.238        9.077      866.788
04/14/2014  08:19:00       28.621       29.078       12.455       32.889       23.304       24.712     1081.684      543.079      610.675        0.203        0.112       40.801       16.633        0.166      337.222        9.049      866.786
04/14/2014  08:20:00        0.955       33.813        7.939       20.837       31.528       21.400      434.185      994.013      457.969        0.155        0.094       33.826       11.126        0.108      337.348        9.261      866.786
04/14/2014  08:21:00       -6.635       36.685       11.794       20.475       26.809       21.059      419.232      718.727      443.464        0.155        0.079       37.280       16.218        0.189      337.512        9.536      866.776
04/14/2014  08:22:00       -8.624        0.553       25.604       19.468       16.952       20.594      379.005      287.378      424.096        0.091        0.055        8.642        9.346        1.170      337.665        9.793      866.778
04/14/2014  08:23:00       13.370       39.373       64.578       33.445       37.006       20.590     1118.558     1369.454      423.946        0.441        0.146       41.581       13.066        0.099      337.582        9.653      866.787
04/14/2014  08:24:00       22.260       45.093       48.105       24.422       29.353       23.011      596.449      861.586      529.487        0.341        0.099       50.288       21.977        0.191      337.064        8.786      866.784
04/14/2014  08:25:00       -0.680       43.815       65.257       23.760       29.405       16.765      564.533      864.666      281.071        0.394        0.086       43.820       13.064        0.089      337.400        9.349      866.772
04/14/2014  08:26:00       25.097       34.357       31.515       26.674       25.282       38.243      711.522      639.157     1462.511        0.281        0.141       42.547       26.618        0.391      337.012        8.699      866.766
04/14/2014  08:27:00       29.550       -2.571        6.496       20.745       13.095       16.262      430.373      171.474      264.452        0.089        0.043       29.662        8.290        0.078      336.899        8.510      866.765
04/14/2014  08:28:00        6.188       22.550       12.029       25.706       26.773       20.141      660.794      716.803      405.654        0.124        0.089       23.384       13.491        0.333      337.434        9.406      866.753
04/14/2014  08:29:00       50.857       74.202        0.067       46.165       35.167       28.761     2131.208     1236.740      827.170        0.614        0.210       89.958       24.484        0.074      337.285        9.157      866.743
04/14/2014  08:30:00       57.732       76.247       26.313       55.820       35.936       45.623     3115.845     1291.394     2081.490        0.816        0.324       95.638       13.190        0.019      337.251        9.099      866.728
04/14/2014  08:31:00      103.612       49.910       36.924       50.342       32.070       42.488     2534.357     1028.457     1805.188        0.998        0.268      115.006       27.479        0.057      337.144        8.920      866.722
04/14/2014  08:32:00       26.622       50.960       66.569       44.977       42.340       31.353     2022.951     1792.709      983.025        0.627        0.240       57.495       30.249        0.277      337.553        9.606      866.719
04/14/2014  08:33:00       43.973       55.188       48.685       51.440       34.054       42.751     2646.041     1159.695     1827.682        0.649        0.282       70.565       36.713        0.271      337.466        9.459      866.707
04/14/2014  08:34:00       34.910       43.617       73.640       46.133       54.142       43.966     2128.217     2931.326     1933.010        0.777        0.350       55.867       40.843        0.534      337.523        9.555      866.710
04/14/2014  08:35:00       28.760       75.333       85.284       40.346       48.515       37.007     1627.830     2353.710     1369.490        0.956        0.268       80.636       25.555        0.100      337.392        9.335      866.700
04/14/2014  08:36:00       18.934       11.775       47.253       43.678       55.549       35.124     1907.806     3085.716     1233.678        0.448        0.311       22.297       35.870        2.588      337.532        9.570      866.698
04/14/2014  08:37:00       84.475       49.630       18.681       66.870       33.507       49.559     4471.565     1122.688     2456.056        0.900        0.403       97.976       49.622        0.257      337.257        9.110      866.686
04/14/2014  08:38:00       87.220       62.594        2.455       33.521       27.714       28.331     1123.635      768.067      802.670        0.711        0.135      107.356       11.553        0.012      337.360        9.282      866.682
04/14/2014  08:39:00       45.884       84.769        8.720       36.302       43.021       40.311     1317.802     1850.789     1624.992        0.708        0.240       96.390       27.835        0.083      337.474        9.473      866.677
04/14/2014  08:40:00       53.781       70.807      -13.891       31.817       35.834       22.115     1012.328     1284.108      489.078        0.544        0.139       88.916       17.570        0.039      337.507        9.527      866.681
04/14/2014  08:41:00       55.135       51.557       21.754       33.297       34.952       36.416     1108.705     1221.623     1326.094        0.491        0.183       75.485       18.121        0.058      337.522        9.552      866.680
04/14/2014  08:42:00       66.487       54.662       42.223       33.574       37.083       36.382     1127.216     1375.170     1323.663        0.651        0.191       86.072       25.030        0.085      337.522        9.554      866.671
04/14/2014  08:43:00       50.533       23.756       24.894       32.951       33.637       28.565     1085.794     1131.429      815.972        0.338        0.152       55.839       23.199        0.173      337.224        9.052      866.662
04/14/2014  08:44:00       75.663       60.263       14.931       15.853       19.079       26.403      251.322      364.027      697.126        0.545        0.066       96.729       13.803        0.020      337.044        8.751      866.647
04/14/2014  08:45:00       24.556       39.269       -1.882       28.598       33.324       21.382      817.860     1110.469      457.171        0.227        0.119       46.315       16.513        0.127      337.414        9.372      866.625
04/14/2014  08:46:00       48.770       42.738        0.211       29.543       20.632       27.047      872.815      425.661      731.537        0.312        0.102       64.846       20.697        0.102      337.489        9.497      866.604
04/14/2014  08:47:00        5.460        4.340        6.449       21.576       23.195       15.351      465.515      537.995      235.638        0.066        0.062        6.975        4.406        0.399      337.706        9.863      866.580
04/14/2014  08:48:00        5.774       74.632        5.374       28.001       57.874       26.098      784.043     3349.399      681.121        0.522        0.241       74.855       25.057        0.112      337.905       10.196      866.557
04/14/2014  08:49:00       15.982       27.786       34.535       26.024       28.650       32.771      677.273      820.840     1073.916        0.240        0.129       32.054       19.273        0.361      338.373       10.980      866.546
04/14/2014  08:50:00       41.847       74.379       75.643       43.798       32.219       23.065     1918.235     1038.046      531.983        0.825        0.174       85.343       18.443        0.047      337.742        9.922      866.536
04/14/2014  08:51:00       16.939       49.922       72.157       33.155       26.102       13.836     1099.261      681.324      191.437        0.498        0.099       52.718       13.396        0.065      337.792       10.005      866.528
04/14/2014  08:52:00       19.788       33.168       53.433       32.151       41.094       25.115     1033.699     1688.691      630.745        0.385        0.168       38.622       16.733        0.188      337.918       10.217      866.526
04/14/2014  08:53:00        4.115      -21.615       31.430       27.516       41.198       29.135      757.116     1697.281      848.862        0.239        0.165       22.003       22.852        1.079      338.224       10.729      866.524
04/14/2014  08:54:00       18.858       44.983       62.988       29.975       40.558       19.478      898.523     1644.959      379.386        0.463        0.146       48.776       21.008        0.186      338.172       10.644      866.531
04/14/2014  08:55:00       28.096       39.139       47.495       35.769       38.751       38.908     1279.435     1501.672     1513.843        0.444        0.215       48.179       27.929        0.336      338.217       10.719      866.541
04/14/2014  08:56:00       35.668       57.816       81.490       67.765       56.806       35.276     4592.130     3226.959     1244.362        1.016        0.453       67.933       27.827        0.168      338.401       11.028      866.541
04/14/2014  08:57:00       31.109       81.772       98.391       45.493       49.581       43.016     2069.581     2458.264     1850.394        1.186        0.319       87.489       44.154        0.255      337.718        9.880      866.533
04/14/2014  08:58:00       90.557      111.067       79.932       60.072       44.116       51.312     3608.623     1946.257     2632.903        1.756        0.409      143.306       39.068        0.074      337.450        9.432      866.524
04/14/2014  08:59:00       68.808       70.978       86.462       74.158       57.913       40.797     5499.439     3353.966     1664.366        1.388        0.526       98.856       37.589        0.145      337.801       10.020      866.523
04/14/2014  09:00:00       33.224       57.468       82.795       56.712       43.022       41.078     3216.219     1850.895     1687.404        0.901        0.338       66.380       32.435        0.239      337.799       10.018      866.524
04/14/2014  09:01:00       46.587       50.920       77.881       41.328       59.729       37.645     1708.042     3567.569     1417.179        0.876        0.335       69.016       40.300        0.341      337.578        9.648      866.519
04/14/2014  09:02:00       45.842       46.916       68.534       29.252       42.059       30.336      855.661     1768.997      920.278        0.627        0.177       65.594       31.566        0.232      337.607        9.696      866.507
04/14/2014  09:03:00       39.096       23.274       20.677       35.534       21.804       23.061     1262.656      475.425      531.812        0.238        0.113       45.499       20.935        0.212      337.676        9.810      866.490
04/14/2014  09:04:00       14.525       16.527        5.284       46.985       25.109       20.410     2207.619      630.462      416.584        0.188        0.163       22.003       12.030        0.299      337.909       10.203      866.468
04/14/2014  09:05:00      -18.035       13.885       -1.816       40.920       27.171       28.329     1674.444      738.256      802.539        0.187        0.161       22.761       15.556        0.467      338.099       10.521      866.454
04/14/2014  09:06:00       13.775       43.031       18.597       37.832       25.905       27.886     1431.260      671.069      777.627        0.263        0.144       45.182       14.934        0.109      338.609       11.377      866.439
04/14/2014  09:07:00       -0.066       28.275       25.182       26.201       37.287       29.520      686.496     1390.314      871.437        0.219        0.147       28.275       17.522        0.384      338.687       11.509      866.425
04/14/2014  09:08:00       18.498       32.681       67.421       67.101       62.677       50.656     4502.494     3928.406     2566.051        0.847        0.550       37.553       43.826        1.362      338.441       11.096      866.417
04/14/2014  09:09:00       32.727       29.802       57.330       45.999       70.692       38.466     2115.876     4997.356     1479.630        0.692        0.430       44.263       45.675        1.065      338.260       10.792      866.429
04/14/2014  09:10:00       15.285      -31.618        8.092       46.455       29.574       29.379     2158.047      874.623      863.120        0.260        0.195       35.119        7.078        0.041      338.315       10.883      866.417
04/14/2014  09:11:00       13.076        7.754       70.533       72.962       88.394       45.839     5323.412     7813.533     2101.220        1.022        0.762       15.203       47.012        9.563      338.482       11.163      866.409
04/14/2014  09:12:00       83.106       75.711       51.295       88.394       46.754       44.219     7813.530     2185.902     1955.332        1.361        0.598      112.422       35.965        0.102      338.138       10.586      866.400
04/14/2014  09:13:00       67.290       41.539       28.218       55.746       51.915       40.862     3107.635     2695.184     1669.666        0.726        0.374       79.079       30.627        0.150      338.371       10.977      866.395
04/14/2014  09:14:00      167.097       47.395       33.179       92.594       61.252       58.301     8573.682     3751.754     3398.957        2.349        0.786      173.688       45.750        0.069      338.101       10.522      866.382
04/14/2014  09:15:00      150.824       92.491       21.885       64.175       55.038       45.101     4118.432     3029.140     2034.079        2.048        0.459      176.925       22.763        0.017      338.000       10.353      866.374
04/14/2014  09:16:00      177.045      107.971       25.057       70.210       59.213       52.307     4929.374     3506.186     2735.990        2.740        0.559      207.371       30.889        0.022      337.916       10.212      866.367
04/14/2014  09:17:00      131.223       97.453       36.461       50.828       50.645       53.545     2583.468     2564.949     2867.114        1.803        0.401      163.452       28.007        0.029      338.144       10.594      866.364
04/14/2014  09:18:00      142.439       85.350       23.658       61.744       56.455       49.229     3812.333     3187.185     2423.478        1.878        0.471      166.052       20.177        0.015      338.059       10.452      866.363
04/14/2014  09:19:00       98.322       73.083       30.639       67.308       46.741       44.566     4530.384     2184.725     1986.161        1.232        0.435      122.508       20.695        0.029      338.127       10.567      866.373
04/14/2014  09:20:00      166.235      106.663       31.463       36.909       46.858       38.947     1362.255     2195.635     1516.848        2.254        0.254      197.512       23.902        0.015      337.972       10.306      866.369
04/14/2014  09:21:00       58.066       11.961        6.696       67.583       28.599       34.704     4567.480      817.916     1204.388        0.507        0.329       59.285       17.542        0.088      338.384       10.997      866.375
04/14/2014  09:22:00      140.745       93.067       27.545      102.222       62.820       37.188    10449.269     3946.404     1382.934        2.250        0.789      168.733       21.487        0.016      338.343       10.930      866.371
04/14/2014  09:23:00      182.986      144.492       70.434      102.448       51.836       76.149    10495.640     2686.941     5798.741        3.915        0.949      233.156       69.398        0.089      338.128       10.565      866.359
04/14/2014  09:24:00      153.861      155.511      114.855      110.717       68.237       65.509    12258.241     4656.306     4291.492        4.112        1.060      218.762       63.951        0.085      337.972       10.303      866.352
04/14/2014  09:25:00      167.050       86.544       29.031       69.503       42.787       45.017     4830.679     1830.696     2026.563        2.246        0.434      188.138       26.634        0.020      337.866       10.127      866.344
04/14/2014  09:26:00       15.370       53.655       92.306       56.236       57.974       40.664     3162.453     3360.931     1653.596        0.990        0.409       55.813       37.878        0.461      338.532       11.249      866.335
04/14/2014  09:27:00      144.111      138.719       94.537       84.230       79.577       86.032     7094.614     6332.435     7401.430        3.488        1.041      200.028       76.872        0.148      337.894       10.172      866.342
04/14/2014  09:28:00       92.196       98.156       87.160       72.778       67.454       62.265     5296.681     4550.054     3876.883        1.972        0.686      134.665       56.207        0.174      338.034       10.410      866.350
04/14/2014  09:29:00      102.445      -79.744       29.795       69.077      111.334       67.728     4771.600    12395.314     4587.103        1.974        1.088      129.823       75.160        0.335      338.235       10.747      866.369
04/14/2014  09:30:00      117.107      -96.748        2.364       71.809      100.988       55.617     5156.502    10198.647     3093.210        2.076        0.922      151.902       58.144        0.147      338.355       10.949      866.364
04/14/2014  09:31:00       79.121      -39.892       37.783       57.003       91.177       63.006     3249.360     8313.205     3969.697        1.240        0.777       88.609       61.309        0.479      338.629       11.411      866.364
04/14/2014  09:32:00       52.270      -40.721       18.673       54.846       89.985       49.022     3008.099     8097.328     2403.168        0.912        0.675       66.260       56.113        0.717      338.508       11.206      866.359
04/14/2014  09:33:00       98.393      106.675      110.221       75.013       96.457       56.612     5626.933     9303.908     3204.899        2.567        0.907      145.123       53.182        0.134      338.435       11.081      866.348
04/14/2014  09:34:00      117.189       91.773       62.199       85.226       78.864       79.016     7263.508     6219.556     6243.586        2.287        0.986      148.847       71.367        0.230      338.216       10.715      866.350
04/14/2014  09:35:00       93.143       51.784       23.372       62.318       64.066       68.978     3883.530     4104.415     4757.965        1.232        0.637      106.570       53.822        0.255      338.079       10.486      866.358
04/14/2014  09:36:00       36.153       31.892       19.644       45.195       26.784       28.070     2042.629      717.381      787.952        0.313        0.177       48.209       30.340        0.396      338.581       11.329      866.358
04/14/2014  09:37:00       80.332       67.852       -0.870       38.513       44.850       39.510     1483.277     2011.507     1561.041        0.806        0.253      105.153       26.453        0.063      338.711       11.549      866.357
04/14/2014  09:38:00      101.625       68.724       22.793       63.658       58.266       41.902     4052.313     3394.953     1755.816        1.238        0.460      122.681       26.684        0.047      338.485       11.169      866.355
04/14/2014  09:39:00       70.699       83.256       11.341       53.021       41.158       33.751     2811.235     1693.942     1139.109        0.885        0.282      109.224       19.928        0.033      338.634       11.418      866.354
04/14/2014  09:40:00       72.913       59.618       50.719       58.281       44.383       45.839     3396.689     1969.867     2101.206        0.945        0.373       94.184       29.200        0.096      339.066       12.145      866.345
04/14/2014  09:41:00      102.835      131.519       97.249       89.539       67.279       78.981     8017.299     4526.398     6238.053        2.805        0.939      166.950       70.430        0.178      338.532       11.245      866.353
04/14/2014  09:42:00      153.497       86.464       34.547       74.184       61.837       60.559     5503.205     3823.785     3667.451        2.261        0.650      176.175       40.143        0.052      338.464       11.132      866.357
04/14/2014  09:43:00      132.267       88.623       11.884       70.812       34.055       35.458     5014.293     1159.758     1257.267        1.646        0.372      159.212       34.302        0.046      338.236       10.747      866.362
04/14/2014  09:44:00       19.230        9.332        7.026       23.922       53.297       35.744      572.239     2840.560     1277.618        0.260        0.235       21.374       15.043        0.495      338.983       12.005      866.350
04/14/2014  09:45:00       41.836      -75.286       -2.051       33.751       70.879       30.600     1139.163     5023.857      936.378        0.726        0.355       86.129       30.699        0.127      338.540       11.261      866.352
04/14/2014  09:46:00       19.965       41.134       71.531       27.851       33.463       15.692      775.665     1119.783      246.227        0.467        0.107       45.723       14.673        0.103      339.090       12.186      866.344
04/14/2014  09:47:00       53.273       73.083       57.434       69.089       37.376       38.889     4773.330     1396.969     1512.358        0.958        0.384       90.438       41.438        0.210      338.915       11.891      866.346
04/14/2014  09:48:00      139.694       77.901       18.700       68.588       51.309       45.404     4704.300     2632.580     2061.564        1.766        0.470      159.947       17.624        0.012      338.717       11.557      866.347
04/14/2014  09:49:00      164.502       99.897       10.943       49.041       42.803       44.096     2405.017     1832.070     1944.489        2.167        0.309      192.458       25.993        0.018      338.719       11.560      866.338
04/14/2014  09:50:00      169.549      102.124        0.727       57.420       48.746       37.698     3297.023     2376.201     1421.173        2.313        0.355      197.930       23.488        0.014      338.826       11.739      866.330
04/14/2014  09:51:00       86.394       99.555       16.156       65.440       44.939       49.424     4282.335     2019.542     2442.774        1.319        0.437      131.815       34.928        0.070      338.972       11.988      866.322
04/14/2014  09:52:00       74.679       56.808       13.302       54.354       37.797       29.318     2954.404     1428.635      859.525        0.711        0.262       93.830       23.460        0.063      338.964       11.975      866.327
04/14/2014  09:53:00      121.819       70.436        0.270       82.385       59.775       40.250     6787.277     3573.087     1620.090        1.589        0.599      140.717       24.516        0.030      338.934       11.922      866.327
04/14/2014  09:54:00       45.976       28.214       14.979       53.470       41.131       30.317     2859.006     1691.740      919.135        0.430        0.273       53.943       20.533        0.145      339.224       12.411      866.318
04/14/2014  09:55:00      125.826       80.451       28.207       96.126       84.404       41.591     9240.176     7124.099     1729.825        2.059        0.905      149.347       42.757        0.082      339.201       12.370      866.311
04/14/2014  09:56:00      101.471       90.542       -4.824       87.245       54.326       39.501     7611.736     2951.367     1560.295        1.532        0.606      135.994       33.813        0.062      339.160       12.303      866.297
04/14/2014  09:57:00      169.000       86.808       33.220      109.245       67.589       60.688    11934.526     4568.216     3683.034        2.869        1.009      189.991       46.747        0.061      339.242       12.440      866.284
04/14/2014  09:58:00      188.579      129.895        8.094       61.720       54.454       44.568     3809.406     2965.191     1986.344        3.063        0.438      228.987       19.617        0.007      338.883       11.834      866.280
04/14/2014  09:59:00      150.205       89.890       14.897       80.111       62.121       53.988     6417.715     3859.002     2914.733        2.202        0.660      175.048       25.083        0.021      339.024       12.072      866.262
04/14/2014  10:00:00      173.945      115.302       29.848       82.150       80.732       52.375     6748.660     6517.582     2743.163        3.022        0.800      208.690       31.487        0.023      338.877       11.825      866.240
04/14/2014  10:01:00      132.376       84.109       13.440       45.421       39.777       34.980     2063.023     1582.240     1223.577        1.482        0.243      156.837       15.796        0.010      339.081       12.170      866.235
04/14/2014  10:02:00      139.335       68.345       13.038       63.484       55.943       37.600     4030.264     3129.583     1413.769        1.641        0.429      155.194       12.776        0.007      339.290       12.521      866.208
04/14/2014  10:03:00      125.702       75.990       45.880       98.781       64.871       56.771     9757.712     4208.289     3222.936        2.043        0.859      146.886       42.506        0.084      339.607       13.056      866.193
04/14/2014  10:04:00      119.647       47.498       35.805       67.961       46.052       52.031     4618.721     2120.783     2707.274        1.365        0.472      128.730       43.757        0.116      339.540       12.944      866.192
04/14/2014  10:05:00       14.994        5.527        9.634       53.832       35.975       32.826     2897.870     1294.167     1077.547        0.281        0.263       15.981       11.190        0.490      340.086       13.865      866.177
04/14/2014  10:06:00      134.962       93.111       40.112      135.475       79.445       54.556    18353.462     6311.552     2976.356        2.806        1.382      163.965       43.776        0.071      339.848       13.461      866.171
04/14/2014  10:07:00      208.442      131.269       18.878       60.259       56.955       59.693     3631.149     3243.898     3563.198        3.574        0.522      246.332       31.101        0.016      339.215       12.390      866.166
04/14/2014  10:08:00      103.385       46.930       -7.083       75.595       55.194       49.286     5714.539     3046.370     2429.072        1.206        0.559      113.539       22.258        0.038      339.583       13.015      866.165
04/14/2014  10:09:00       63.106       13.839       35.470       73.156       71.287       45.823     5351.777     5081.880     2099.757        0.898        0.627       64.606       20.152        0.097      339.944       13.625      866.154
04/14/2014  10:10:00       30.838      -36.568       67.465       63.680      117.934       56.620     4055.109    13908.499     3205.809        1.400        1.058       47.835       32.404        0.459      340.338       14.290      866.133
04/14/2014  10:11:00       51.108       10.774       87.587       89.159      121.540       79.121     7949.353    14772.072     6260.207        1.968        1.449       52.231       90.710        3.016      339.966       13.660      866.131
04/14/2014  10:12:00       50.246       58.549      111.405       76.461       79.924       55.500     5846.252     6387.919     3080.215        1.684        0.766       77.154       58.984        0.584      339.954       13.642      866.121
04/14/2014  10:13:00       58.542       64.964       61.894       52.223       45.830       35.661     2727.250     2100.400     1271.742        0.879        0.305       87.450       11.403        0.017      339.782       13.351      866.102
04/14/2014  10:14:00       20.428       15.795       35.350       72.359       75.735       40.678     5235.760     5735.724     1654.703        0.727        0.631       25.822       20.040        0.602      340.058       13.817      866.082
04/14/2014  10:15:00       46.527     -144.908      -32.175       67.577       56.870       46.402     4566.645     3234.219     2153.188        1.707        0.498      152.194       35.829        0.055      339.689       13.193      866.073
04/14/2014  10:16:00       83.616     -122.161      -25.106       47.201       44.409       27.481     2227.898     1972.179      755.207        1.375        0.248      148.037       14.383        0.009      339.700       13.214      866.074
04/14/2014  10:17:00       25.469      -59.022        2.298       32.820       51.498       38.118     1077.166     2652.021     1452.967        0.466        0.259       64.283       39.563        0.379      340.062       13.826      866.072
04/14/2014  10:18:00       76.130       51.498       52.115      100.238       72.108       47.664    10047.657     5199.548     2271.888        1.434        0.876       91.912       35.468        0.149      340.121       13.923      866.076
04/14/2014  10:19:00       68.355      120.698      151.238      118.771      134.039       90.473    14106.438    17966.424     8185.377        4.118        2.013      138.709       92.876        0.448      339.996       13.709      866.087
04/14/2014  10:20:00      126.450      -34.038       56.945       96.606      146.893       79.037     9332.713    21577.676     6246.851        2.877        1.858      130.951       88.374        0.455      339.570       12.992      866.099
04/14/2014  10:21:00       44.340       64.255      110.084       78.566      107.869       86.113     6172.641    11635.803     7415.480        2.171        1.261       78.069       68.338        0.766      340.174       14.012      866.101
04/14/2014  10:22:00       73.955       49.764      106.897       73.499      131.036       77.388     5402.144    17170.352     5988.914        2.396        1.428       89.139       87.183        0.957      339.852       13.468      866.126
04/14/2014  10:23:00      101.405       49.621       85.629       83.973      103.329       80.258     7051.495    10676.877     6441.318        2.212        1.208      112.895       79.996        0.502      339.537       12.937      866.132
04/14/2014  10:24:00       34.476      -53.387       23.629       48.912       54.262       46.785     2392.350     2944.403     2188.824        0.606        0.376       63.551       33.565        0.279      339.957       13.648      866.116
04/14/2014  10:25:00       34.325      -56.081       20.807       47.819       74.149       50.655     2286.648     5498.103     2565.929        0.755        0.518       65.751       47.219        0.516      339.864       13.490      866.106
04/14/2014  10:26:00      110.899       88.504       86.924       70.324       47.756       48.268     4945.426     2280.596     2329.808        1.862        0.478      141.885       28.858        0.041      339.561       12.977      866.091
04/14/2014  10:27:00      166.687      124.236       57.041       94.618       56.888       60.958     8952.652     3236.268     3715.862        3.119        0.795      207.892       48.418        0.054      339.488       12.853      866.085
04/14/2014  10:28:00      165.913       89.243       41.968      117.222       84.935       72.085    13741.052     7214.022     5196.191        3.170        1.308      188.392       74.394        0.156      339.525       12.916      866.054
04/14/2014  10:29:00      204.891      126.572       31.312       73.766       45.346       51.054     5441.375     2056.271     2606.473        3.454        0.505      240.833       20.945        0.008      339.588       13.021      866.053
04/14/2014  10:30:00      121.022       91.212       61.871       86.773       48.640       60.973     7529.563     2365.876     3717.700        2.020        0.681      151.545       45.341        0.090      339.480       12.841      866.036
04/14/2014  10:31:00       78.875       75.774       -2.866       35.664       58.633       44.397     1271.925     3437.805     1971.078        0.932        0.334      109.375       21.332        0.038      339.422       12.747      866.026
04/14/2014  10:32:00       40.341       47.761       14.119       20.141       21.488       28.049      405.672      461.745      786.746        0.288        0.083       62.518       17.431        0.078      339.601       13.046      866.001
04/14/2014  10:33:00       53.363       27.161        7.215       54.072       30.092       23.274     2923.767      905.544      541.686        0.400        0.219       59.878       14.363        0.058      340.018       13.750      865.996
04/14/2014  10:34:00       65.221       51.992       83.356      116.033      127.032       99.512    13463.632    16137.124     9902.631        2.670        1.975       83.408       94.437        1.282      340.609       14.747      865.968
04/14/2014  10:35:00      196.108      181.081      170.114      126.768      116.713       96.537    16070.115    13621.882     9319.422        6.959        1.951      266.925       78.870        0.087      339.824       13.419      865.933
04/14/2014  10:36:00      143.697       77.054      109.505      101.227       99.559       78.307    10246.991     9911.921     6131.952        3.243        1.315      163.053       62.999        0.149      339.979       13.681      865.954
04/14/2014  10:37:00       39.963       55.538       92.682       65.943       62.677       41.067     4348.472     3928.351     1686.480        1.162        0.498       68.421       31.763        0.216      340.475       14.521      865.953
04/14/2014  10:38:00      164.613       60.068        5.611      121.138       83.493       55.735    14674.297     6971.140     3106.358        2.774        1.238      175.230       51.252        0.086      340.514       14.584      865.957
04/14/2014  10:39:00      175.341      122.982       20.357       83.614       62.791       58.012     6991.252     3942.736     3365.449        3.029        0.715      214.170       35.138        0.027      340.372       14.345      865.957
04/14/2014  10:40:00      124.847      100.144       40.133       96.291       58.864       55.755     9271.944     3465.016     3108.604        2.153        0.792      160.049       22.082        0.019      340.583       14.702      865.968
04/14/2014  10:41:00      196.922       74.094       51.690      100.874       87.562       58.986    10175.464     7667.185     3479.377        3.413        1.066      210.400       47.781        0.052      340.074       13.841      865.973
04/14/2014  10:42:00      103.211      103.173      131.594       97.578      105.732       68.291     9521.442    11179.313     4663.622        3.198        1.268      145.936       69.483        0.227      340.201       14.056      865.995
04/14/2014  10:43:00      199.021       82.922       59.806      115.360      130.654       89.149    13307.983    17070.369     7947.488        4.419        1.916      215.605       75.940        0.124      339.984       13.689      865.989
04/14/2014  10:44:00      167.905       81.892        8.301       60.867       69.400       41.720     3704.827     4816.408     1740.596        2.261        0.513      186.812       14.127        0.006      339.743       13.284      866.023
04/14/2014  10:45:00      147.519      120.168       91.633       89.924       78.970       86.007     8086.379     6236.262     7397.180        3.316        1.086      190.269       66.212        0.121      339.895       13.540      866.024
04/14/2014  10:46:00      150.706      126.483      108.316       79.579       67.309       62.949     6332.859     4530.471     3962.515        3.263        0.741      196.750       47.356        0.058      340.044       13.790      866.019
04/14/2014  10:47:00       85.166       24.779       86.902       93.678       77.951       63.794     8775.588     6076.385     4069.695        1.717        0.946       88.697       61.405        0.479      340.219       14.088      866.049
04/14/2014  10:48:00       50.120     -132.746       -9.441       75.589       74.798       46.135     5713.747     5594.771     2128.481        1.683        0.672      141.893       39.260        0.077      340.311       14.244      866.046
04/14/2014  10:49:00       57.389      -33.755       36.738       45.006       61.398       37.811     2025.523     3769.733     1429.643        0.650        0.361       66.580       22.113        0.110      340.505       14.573      866.071
04/14/2014  10:50:00       58.273     -113.672        2.494       64.931       84.706       58.807     4216.028     7175.044     3458.237        1.558        0.742      127.738       45.666        0.128      340.237       14.119      866.066
04/14/2014  10:51:00       20.196     -134.069       -5.739       40.521       55.340       35.348     1641.986     3062.536     1249.515        1.218        0.298      135.581       23.359        0.030      340.250       14.140      866.065
04/14/2014  10:52:00        0.139       32.174       63.176       23.395       31.454       25.766      547.325      989.377      663.898        0.361        0.110       32.174       23.442        0.531      341.226       15.793      866.074
04/14/2014  10:53:00       30.322      -41.474       16.674       53.073       66.353       41.029     2816.766     4402.685     1683.376        0.591        0.445       51.376       45.659        0.790      340.486       14.541      866.084
04/14/2014  10:54:00       58.282        5.186       16.549       56.084       64.783       37.069     3145.466     4196.895     1374.137        0.621        0.436       58.513       36.848        0.397      340.578       14.696      866.094
04/14/2014  10:55:00      113.965       48.305       39.905       92.067       73.101       54.493     8476.364     5343.827     2969.523        1.685        0.839      123.780       49.265        0.158      340.774       15.025      866.093
04/14/2014  10:56:00      150.327       88.684       18.986       92.198       59.301       52.845     8500.546     3516.657     2792.595        2.281        0.740      174.537       37.131        0.045      340.803       15.074      866.089
04/14/2014  10:57:00       34.102      -71.727       -8.071       47.685       89.957       42.796     2273.820     8092.278     1831.514        0.928        0.610       79.421       27.839        0.123      340.674       14.858      866.110
04/14/2014  10:58:00       25.907      -57.303        3.963       64.317       80.012       42.162     4136.675     6401.953     1777.605        0.814        0.616       62.887       39.346        0.391      341.029       15.459      866.106
04/14/2014  10:59:00       37.740      -59.197       12.902       38.677       67.482       42.201     1495.926     4553.800     1780.954        0.646        0.392       70.204       39.328        0.314      340.736       14.964      866.107
04/14/2014  11:00:00       -9.017       -1.283       15.104       61.102       70.115       52.223     3733.399     4916.169     2727.215        0.584        0.569        9.108       40.495       19.767      340.934       15.298      866.087
04/14/2014  11:01:00       47.454       16.304       62.777       62.677       53.683       41.977     3928.364     2881.909     1762.065        0.751        0.429       50.176       34.549        0.474      341.523       16.295      866.068
04/14/2014  11:02:00       56.339      -92.928       17.001      100.302      155.053       93.965    10060.402    24041.320     8829.380        2.751        2.147      108.672      112.204        1.066      341.009       15.423      866.089
04/14/2014  11:03:00       68.329     -149.195        6.832       54.160       78.810       40.026     2933.324     6211.035     1602.060        1.886        0.537      164.097       40.655        0.061      340.569       14.679      866.104
04/14/2014  11:04:00       88.217      -72.020       11.680       52.740      100.533       61.900     2781.467    10106.837     3831.591        1.491        0.836      113.882       62.761        0.304      340.664       14.839      866.086
04/14/2014  11:05:00       53.775       52.931       45.154       33.773       36.831       32.884     1140.625     1356.543     1081.367        0.565        0.179       75.455       17.228        0.052      340.529       14.612      866.076
04/14/2014  11:06:00       15.540       34.824       50.573       36.656       33.348       33.535     1343.664     1112.068     1124.599        0.380        0.179       38.134       27.050        0.503      340.981       15.377      866.064
04/14/2014  11:07:00       25.229      -10.171       40.860       40.229       66.792       51.404     1618.334     4461.223     2642.406        0.556        0.436       27.202       39.413        2.099      341.194       15.738      866.050
04/14/2014  11:08:00       18.007       47.042       64.016       44.021       54.234       49.141     1937.890     2941.300     2414.830        0.696        0.365       50.371       47.588        0.893      340.726       14.945      866.041
04/14/2014  11:09:00       77.451       50.875       68.167       76.487       91.792       60.450     5850.280     8425.724     3654.261        1.558        0.897       92.666       55.974        0.365      340.658       14.829      866.027
04/14/2014  11:10:00       53.054       34.297       22.926      100.051       52.653       40.162    10010.196     2772.346     1613.006        0.945        0.720       63.175       46.793        0.549      340.980       15.374      866.002
04/14/2014  11:11:00       34.889       86.818      -10.047       38.258       55.318       36.025     1463.683     3060.072     1297.800        0.734        0.291       93.566       17.523        0.035      340.595       14.725      865.983
04/14/2014  11:12:00      112.555       71.301       12.230       73.313       59.094       53.934     5374.751     3492.099     2908.907        1.484        0.589      133.239       18.775        0.020      340.724       14.941      865.966
04/14/2014  11:13:00      154.155      117.644       29.624       89.855       67.761       72.396     8073.924     4591.618     5241.182        2.819        0.895      193.917       45.129        0.054      341.031       15.460      865.949
04/14/2014  11:14:00      144.279      112.255       44.521       78.336       62.341       64.139     6136.512     3886.461     4113.824        2.477        0.707      182.804       20.026        0.012      340.785       15.043      865.921
04/14/2014  11:15:00      124.748       89.273       27.037       88.038       52.271       51.947     7750.677     2732.302     2698.497        1.872        0.659      153.401       49.494        0.104      340.958       15.336      865.922
04/14/2014  11:16:00       47.001       81.932       55.906       93.271       59.097       61.972     8699.549     3492.414     3840.568        1.404        0.802       94.456       31.374        0.110      341.322       15.954      865.901
04/14/2014  11:17:00       27.265      -24.933       50.343       84.427       86.923       51.633     7127.935     7555.541     2665.985        1.062        0.867       36.947       29.525        0.639      341.590       16.408      865.906
04/14/2014  11:18:00       80.471      -97.263      -15.944       62.559       49.746       39.544     3913.684     2474.678     1563.759        1.207        0.398      126.236       32.494        0.066      340.777       15.033      865.917
04/14/2014  11:19:00       58.537       -2.574       27.265       98.328       67.564       44.140     9668.468     4564.866     1948.346        1.018        0.809       58.594       33.563        0.328      341.255       15.840      865.904
04/14/2014  11:20:00      109.557       86.321       62.418      104.388       82.293       76.338    10896.835     6772.131     5827.427        2.342        1.175      139.478       70.241        0.254      340.921       15.273      865.885
04/14/2014  11:21:00      278.381      186.617       48.747      113.748       70.488       75.420    12938.531     4968.629     5688.167        6.914        1.180      335.145       49.464        0.022      340.617       14.758      865.862
04/14/2014  11:22:00      122.717       93.303       16.535       84.207       56.529       40.096     7090.897     3195.582     1607.672        1.796        0.595      154.158       17.744        0.013      340.693       14.890      865.874
04/14/2014  11:23:00        0.891       42.237        0.741       41.858       44.397       33.775     1752.061     1971.082     1140.769        0.332        0.243       42.247       23.693        0.315      341.506       16.266      865.881
04/14/2014  11:24:00      -55.882     -127.929       -0.420       63.512       67.799       45.961     4033.811     4596.644     2112.395        1.511        0.537      139.602       22.597        0.026      340.899       15.237      865.880
04/14/2014  11:25:00      -32.545      -21.893       -5.785       59.742       50.629       40.611     3569.101     2563.280     1649.213        0.468        0.389       39.223       34.141        0.758      340.761       15.004      865.867
04/14/2014  11:26:00       92.968       55.339       47.715       66.367       51.354       60.930     4404.586     2637.219     3712.498        1.237        0.538      108.191       48.071        0.197      340.880       15.205      865.851
04/14/2014  11:27:00      139.199       34.961       30.458       61.844       72.646       57.176     3824.729     5277.501     3269.141        1.695        0.619      143.523       42.544        0.088      341.019       15.439      865.824
04/14/2014  11:28:00       92.446     -151.729      -10.016       86.277       99.477       51.200     7443.720     9895.576     2621.425        2.581        0.998      177.674       58.295        0.108      340.793       15.058      865.814
04/14/2014  11:29:00      -64.852       -6.145      -10.499       75.973       81.761       31.434     5771.913     6684.848      988.104        0.890        0.672       65.142       28.848        0.196      340.700       14.901      865.776
04/14/2014  11:30:00      -82.300       12.354       17.802       44.529       39.355       29.336     1982.817     1548.787      860.594        0.582        0.220       83.222       20.870        0.063      341.049       15.492      865.751
04/14/2014  11:31:00       40.115       48.763       22.527       76.304       83.936       36.970     5822.313     7045.226     1366.814        0.936        0.712       63.143       34.755        0.303      341.108       15.593      865.739
04/14/2014  11:32:00       88.694       89.876       58.610       80.057       47.907       48.638     6409.174     2295.066     2365.637        1.522        0.553      126.271       45.879        0.132      341.557       16.351      865.759
04/14/2014  11:33:00       88.410       20.581       67.310      119.088       56.641       51.531    14181.870     3208.174     2655.445        1.640        1.002       90.774       48.367        0.284      341.762       16.699      865.761
04/14/2014  11:34:00       40.963      134.167      195.219      103.028      140.814      102.602    10614.794    19828.481    10527.148        4.937        2.049      140.280       98.964        0.498      341.372       16.037      865.759
04/14/2014  11:35:00       80.863       65.916       62.454       56.815       65.283       62.382     3227.965     4261.926     3891.558        1.308        0.569      104.325       55.108        0.279      340.917       15.269      865.792
04/14/2014  11:36:00       52.740       86.066       82.250       57.559       65.467       56.668     3313.069     4285.939     3211.273        1.388        0.541      100.940       43.690        0.187      341.189       15.728      865.762
04/14/2014  11:37:00      104.451       81.305       49.502      110.444       65.137       64.365    12197.847     4242.784     4142.870        2.027        1.029      132.365       50.254        0.144      341.253       15.836      865.742
04/14/2014  11:38:00       81.439       65.222       61.708       83.548       51.051       52.388     6980.255     2606.171     2744.464        1.351        0.617      104.337       38.188        0.134      341.324       15.958      865.750
04/14/2014  11:39:00       43.345     -133.596        7.509      116.295      143.729       74.045    13524.635    20658.146     5482.681        2.972        1.983      140.451       86.720        0.381      341.659       16.525      865.740
04/14/2014  11:40:00      213.502     -297.746      -56.408      101.532       85.696       66.195    10308.688     7343.850     4381.827        7.972        1.102      366.382       41.879        0.013      341.311       15.932      865.738
04/14/2014  11:41:00       59.071      -95.164       35.909       76.327      103.339       79.854     5825.742    10678.880     6376.719        1.835        1.144      112.007       56.389        0.253      341.335       15.976      865.769
04/14/2014  11:42:00      -11.548     -104.063       -1.106       62.923       63.282       36.679     3959.329     4004.672     1345.331        1.013        0.465      104.702       23.568        0.051      341.363       16.024      865.752
04/14/2014  11:43:00      -10.070      -59.913       19.897      108.011       84.768       49.850    11666.303     7185.640     2485.006        1.271        1.067       60.753       58.618        0.931      341.485       16.230      865.761
04/14/2014  11:44:00      194.651     -224.989      -26.790      126.224      122.809       66.284    15932.513    15082.172     4393.534        6.231        1.770      297.505       75.438        0.064      341.140       15.643      865.755
04/14/2014  11:45:00       24.405        7.755       62.580       59.575       82.500       61.670     3549.124     6806.171     3803.192        0.936        0.708       25.607       63.366        6.123      341.483       16.228      865.778
04/14/2014  11:46:00       30.220     -145.969       -8.771       70.814       68.116       43.830     5014.677     4639.726     1921.093        1.693        0.579      149.065       29.436        0.039      341.071       15.528      865.764
04/14/2014  11:47:00     -100.371      -36.605       12.598       74.777       63.816       39.749     5591.640     4072.501     1580.005        1.141        0.562      106.837       52.643        0.243      341.408       16.099      865.728
04/14/2014  11:48:00       40.042     -174.657       -4.986      150.108      165.002       47.958    22532.393    27225.633     2299.940        4.209        2.603      179.188       65.391        0.133      341.364       16.025      865.712
04/14/2014  11:49:00      273.090     -308.942       18.225      186.437      343.132      153.041    34758.602   117739.763    23421.663       17.310        8.796      412.339      219.272        0.283      341.206       15.754      865.584
04/14/2014  11:50:00      128.597      -67.252       51.517      124.600      204.292      109.830    15525.046    41735.279    12062.623        4.650        3.466      145.121      122.142        0.708      341.675       16.550      865.679
04/14/2014  11:51:00      135.764      -94.207       34.741       88.376      120.018       77.870     7810.287    14404.346     6063.687        2.839        1.414      165.247       65.861        0.159      341.526       16.297      865.718
04/14/2014  11:52:00      154.596      116.917       53.002       89.192       84.360       70.387     7955.175     7116.542     4954.263        3.020        1.001      193.828       49.250        0.065      341.093       15.566      865.729
04/14/2014  11:53:00      118.042      126.790      104.470      101.123       64.134       74.946    10225.808     4113.156     5616.946        3.044        0.998      173.233       72.737        0.176      341.133       15.631      865.732
04/14/2014  11:54:00      113.198       86.169       53.420       70.769       54.477       59.115     5008.212     2967.769     3494.560        1.728        0.574      142.263       49.552        0.121      340.661       14.834      865.749
04/14/2014  11:55:00      109.951       82.921       11.781       64.846       48.207       36.459     4204.945     2323.921     1329.252        1.348        0.393      137.714       15.588        0.013      341.056       15.502      865.717
04/14/2014  11:56:00       66.625       51.080       -0.069       68.986       67.449       36.365     4759.041     4549.429     1322.443        0.884        0.532       83.953       22.344        0.071      341.360       16.019      865.701
04/14/2014  11:57:00      -27.489       -5.203       12.029       43.351       37.422       20.613     1879.324     1400.394      424.886        0.232        0.185       27.977       18.783        0.451      342.088       17.255      865.689
04/14/2014  11:58:00      -11.448       21.455       22.469       43.011       30.535       27.884     1849.935      932.415      777.527        0.233        0.178       24.318       22.684        0.870      342.080       17.241      865.667
04/14/2014  11:59:00       74.394       98.031       31.633       56.709       33.176       41.330     3215.874     1100.635     1708.189        1.108        0.301      123.063        6.068        0.002      341.575       16.383      865.658
04/14/2014  12:00:00      120.790       54.309        9.559       61.262       56.244       49.260     3752.983     3163.359     2426.535        1.349        0.467      132.438       29.789        0.051      341.624       16.466      865.663
04/14/2014  12:01:00      130.371       66.155       20.432       95.443       50.959       44.266     9109.275     2596.783     1959.500        1.773        0.683      146.195       12.973        0.008      341.350       16.000      865.666
04/14/2014  12:02:00      176.690       59.643       96.014      124.576       93.796       80.860    15519.129     8797.605     6538.293        3.742        1.543      186.485       60.432        0.105      341.358       16.012      865.654
04/14/2014  12:03:00       60.211       33.273       54.092       76.363       96.871       53.519     5831.383     9384.053     2864.239        1.287        0.904       68.793       47.806        0.483      341.716       16.622      865.616
04/14/2014  12:04:00      157.204      117.162       98.164       89.359       80.861       95.558     7985.103     6538.482     9131.349        3.586        1.183      196.061       65.997        0.113      341.304       15.921      865.584
04/14/2014  12:05:00       93.651      146.822      139.188      100.773       88.353       82.821    10155.144     7806.199     6859.396        3.726        1.241      174.147       65.260        0.140      341.223       15.785      865.582
04/14/2014  12:06:00      161.888       93.071       54.809      105.967       62.141       66.122    11229.099     3861.447     4372.096        2.866        0.973      186.735       64.144        0.118      341.259       15.846      865.552
04/14/2014  12:07:00      124.333      111.953       66.537      127.599       89.107       89.264    16281.622     7940.038     7968.116        3.230        1.609      167.308       48.593        0.084      341.742       16.666      865.530
04/14/2014  12:08:00       76.455      101.619      120.320       72.851       71.072       67.307     5307.280     5051.244     4530.298        2.277        0.744      127.169       57.992        0.208      341.553       16.343      865.538
04/14/2014  12:09:00      153.959       95.330       95.188       95.341      113.540       56.215     9089.927    12891.429     3160.166        3.349        1.257      181.083       57.661        0.101      341.301       15.915      865.535
04/14/2014  12:10:00       98.636       57.333       48.440       49.306      110.252       54.058     2431.108    12155.540     2922.263        1.643        0.875      114.088       53.977        0.224      341.341       15.987      865.529
04/14/2014  12:11:00       70.657       -7.917       83.992       93.746      159.907       83.340     8788.305    25570.173     6945.534        2.670        2.065       71.099      105.866        2.217      341.862       16.868      865.509
04/14/2014  12:12:00      116.925       74.259       57.355      132.217       91.678       63.347    17481.454     8404.939     4012.899        2.618        1.495      138.513       27.393        0.039      341.662       16.528      865.507
04/14/2014  12:13:00       84.350       28.379       71.625      113.415      132.870       63.681    12862.930    17654.455     4055.209        2.380        1.729       88.996       59.654        0.449      341.834       16.821      865.510
04/14/2014  12:14:00      154.248     -198.653      -20.005      107.402      128.291       64.492    11535.216    16458.640     4159.194        4.790        1.608      251.506       73.113        0.085      341.601       16.426      865.498
04/14/2014  12:15:00      159.218     -188.428      -23.613       66.856      102.277       33.865     4469.701    10460.670     1146.861        3.874        0.804      246.689       53.895        0.048      341.064       15.516      865.512
04/14/2014  12:16:00       89.588     -109.250       20.616       68.181       84.433       48.269     4648.597     7128.882     2329.899        1.724        0.705      141.286       53.424        0.143      341.648       16.506      865.512
04/14/2014  12:17:00       20.136      -14.159       35.250       44.142       47.660       33.112     1948.539     2271.515     1096.430        0.358        0.266       24.616       22.603        0.843      341.659       16.526      865.515
04/14/2014  12:18:00       62.522      -61.000      -11.208       36.330       48.119       33.353     1319.874     2315.406     1112.405        0.625        0.237       87.350       21.610        0.061      341.300       15.918      865.514
04/14/2014  12:19:00       30.422       29.152       16.591       29.912       56.765       31.343      894.719     3222.315      982.403        0.357        0.255       42.135       25.840        0.376      341.417       16.114      865.499
04/14/2014  12:20:00      -25.317       91.870       -5.318       24.971       56.464       32.151      623.541     3188.200     1033.661        0.698        0.242       95.295       29.193        0.094      341.312       15.937      865.485
04/14/2014  12:21:00      -40.253       72.399      -17.472       21.398       41.170       22.786      457.862     1694.987      519.218        0.492        0.134       82.836        8.618        0.011      341.408       16.100      865.481
04/14/2014  12:22:00      -10.444       21.148      -11.526       37.742       40.596       27.400     1424.458     1648.008      750.784        0.226        0.191       23.587       21.286        0.814      341.479       16.221      865.477
04/14/2014  12:23:00       -7.965       68.304        8.892       38.353       48.578       33.283     1470.949     2359.821     1107.728        0.487        0.247       68.767       32.964        0.230      341.822       16.803      865.463
04/14/2014  12:24:00      -63.623      -22.153       14.368       54.316       54.348       29.964     2950.197     2953.741      897.837        0.577        0.340       67.370       33.141        0.242      342.573       18.078      865.455
04/14/2014  12:25:00      -84.102        3.373       15.832       69.132       34.851       30.701     4779.225     1214.614      942.530        0.713        0.347       84.169       34.914        0.172      342.146       17.352      865.440
04/14/2014  12:26:00       -2.725      -20.618       27.296       42.812       35.890       33.821     1832.847     1288.064     1143.843        0.272        0.213       20.797       27.744        1.780      342.407       17.795      865.430
04/14/2014  12:27:00      -50.451      -20.347        3.839       25.568       25.317       23.470      653.737      640.959      550.832        0.241        0.092       54.399       17.361        0.102      341.762       16.700      865.397
04/14/2014  12:28:00      -41.484      -39.926       -4.064       40.231       80.142       37.528     1618.569     6422.700     1408.329        0.639        0.472       57.576       30.072        0.273      341.759       16.694      865.357
04/14/2014  12:29:00       29.709      -34.762       37.374       45.578       66.637       46.517     2077.392     4440.536     2163.841        0.608        0.434       45.728       22.671        0.246      342.010       17.121      865.350
04/14/2014  12:30:00       89.145      -63.846       45.961      100.737      117.626       65.776    10148.037    13835.958     4326.454        2.122        1.416      109.650       72.622        0.439      341.930       16.986      865.318
04/14/2014  12:31:00       61.845      -57.177       32.728       60.727       71.104       37.255     3687.762     5055.813     1387.970        0.915        0.507       84.226       39.182        0.216      341.586       16.401      865.296
04/14/2014  12:32:00       77.122       49.366       51.970       39.623       51.788       65.865     1569.968     2682.027     4338.252        0.984        0.430       91.569       22.967        0.063      341.587       16.404      865.268
04/14/2014  12:33:00       49.271       90.620       95.407       77.269       50.802       62.849     5970.567     2580.869     3949.983        1.612        0.625      103.149       49.583        0.231      341.576       16.384      865.248
04/14/2014  12:34:00        1.563      -21.772        0.502       45.260       48.503       24.807     2048.490     2352.552      615.368        0.275        0.251       21.828       18.789        0.741      341.471       16.208      865.234
04/14/2014  12:35:00        9.707       -4.786        2.052       43.882       56.361       35.030     1925.654     3176.537     1227.093        0.322        0.316       10.823       28.575        6.971      341.879       16.899      865.226
04/14/2014  12:36:00       38.912      -74.983       -1.297       54.121       93.868       58.307     2929.050     8811.245     3399.658        1.114        0.757       84.478       60.704        0.516      342.242       17.514      865.192
04/14/2014  12:37:00       -4.038      -47.533       31.538       63.766       90.042       62.930     4066.160     8107.495     3960.224        0.970        0.807       47.704       66.646        1.952      342.371       17.732      865.184
04/14/2014  12:38:00       65.141     -129.791       -0.806       63.242       95.655       46.905     3999.542     9149.891     2200.109        1.822        0.767      145.221       43.640        0.090      342.140       17.339      865.154
04/14/2014  12:39:00       92.724      -82.804       27.968       76.442      118.134       56.480     5843.341    13955.737     3190.027        1.961        1.149      124.315       55.225        0.197      342.274       17.567      865.130
04/14/2014  12:40:00      114.785      -10.064       43.120       80.703       78.313       57.572     6512.965     6132.984     3314.531        1.555        0.798      115.226       45.572        0.156      341.801       16.765      865.131
04/14/2014  12:41:00        1.778       -8.816        9.068       25.049       39.086       34.086      627.452     1527.691     1161.834        0.174        0.166        8.994       11.632        1.673      342.100       17.273      865.104
04/14/2014  12:42:00       78.016      -37.547       18.666       66.455       87.129       46.539     4416.272     7591.407     2165.858        1.101        0.709       86.581       52.030        0.361      342.016       17.131      865.105
04/14/2014  12:43:00       40.961      -81.028       23.766       88.032       91.286       48.077     7749.552     8333.194     2311.443        1.360        0.920       90.793       53.030        0.341      342.373       17.736      865.097
04/14/2014  12:44:00       81.706     -109.453       -1.079       47.090       64.777       43.548     2217.475     4196.011     1896.429        1.348        0.415      136.587       37.838        0.077      342.026       17.148      865.108
04/14/2014  12:45:00       34.245       -7.468       53.016       51.689       79.193       50.878     2671.761     6271.590     2588.528        0.778        0.577       35.050       50.066        2.040      342.763       18.401      865.094
04/14/2014  12:46:00       66.397       55.886       66.352       53.628       77.945       47.401     2875.960     6075.376     2246.865        1.156        0.560       86.786       51.571        0.353      342.282       17.583      865.086
04/14/2014  12:47:00      124.758       62.233       31.984       86.030       82.624       53.150     7401.098     6826.760     2824.891        1.875        0.853      139.419       31.483        0.051      341.997       17.096      865.068
04/14/2014  12:48:00      217.434      116.338       10.365       81.204       54.784       53.069     6594.079     3001.246     2816.303        3.666        0.621      246.601       28.645        0.013      341.639       16.487      865.038
04/14/2014  12:49:00      119.062       90.240       15.159       84.239       50.613       30.295     7096.144     2561.653      917.813        1.656        0.529      149.396       21.368        0.020      341.742       16.665      865.024
04/14/2014  12:50:00       29.034       38.582       44.342       66.031       53.540       48.092     4360.108     2866.550     2312.852        0.692        0.477       48.286       28.132        0.339      342.125       17.315      865.001
04/14/2014  12:51:00       33.294      -27.000       -0.085       48.033       55.410       37.811     2307.183     3070.263     1429.637        0.432        0.340       42.865       29.000        0.458      342.249       17.527      864.968
04/14/2014  12:52:00       45.854       48.131       35.318       42.589       39.898       37.355     1813.843     1591.874     1395.417        0.523        0.240       66.477       24.825        0.139      341.694       16.587      864.963
04/14/2014  12:53:00       42.060       65.346        4.211       54.929       29.221       31.591     3017.151      853.876      997.999        0.546        0.243       77.712       13.038        0.028      341.880       16.900      864.957
04/14/2014  12:54:00      153.586       99.081       51.722       69.326       62.197       64.821     4806.146     3868.408     4201.725        2.448        0.644      182.772       45.841        0.063      341.948       17.013      864.959
04/14/2014  12:55:00      162.327      115.376       36.217       79.051       64.598       66.377     6249.082     4172.862     4405.934        2.790        0.741      199.152       54.113        0.074      341.695       16.585      864.953
04/14/2014  12:56:00       83.069       39.148       20.362       53.782       41.197       31.629     2892.500     1697.191     1000.386        0.722        0.280       91.831       12.121        0.017      341.846       16.842      864.946
04/14/2014  12:57:00        5.326       31.906       61.887       27.064       63.653       49.438      732.483     4051.654     2444.102        0.605        0.361       32.348       45.412        1.971      342.554       18.046      864.938
04/14/2014  12:58:00       99.148       89.070       17.127       76.554       64.562       41.691     5860.527     4168.260     1738.104        1.491        0.588      133.281       41.347        0.096      341.951       17.022      864.921
04/14/2014  12:59:00       29.880       53.479        6.188       43.836       32.728       27.099     1921.610     1071.126      734.373        0.376        0.186       61.260       19.682        0.103      342.026       17.148      864.906
04/14/2014  13:00:00       39.809       37.861       23.080       75.451       61.858       41.818     5692.902     3826.429     1748.710        0.741        0.563       54.938       27.625        0.253      342.869       18.580      864.910
04/14/2014  13:01:00      212.576      146.796       17.976       67.988       66.564       54.630     4622.381     4430.711     2984.411        3.955        0.602      258.337       29.156        0.013      341.764       16.700      864.895
04/14/2014  13:02:00       72.413      100.178       16.637       64.702       60.372       43.726     4186.346     3644.816     1911.966        1.265        0.487      123.609       38.608        0.098      341.827       16.809      864.909
04/14/2014  13:03:00      -22.069      171.386      -15.571       49.163       74.403       37.307     2417.035     5535.745     1391.803        1.972        0.467      172.801       42.494        0.060      342.169       17.390      864.905
04/14/2014  13:04:00        2.629      100.013        0.046       50.868       96.021       27.332     2587.584     9220.110      747.018        1.128        0.628      100.047       38.535        0.148      342.314       17.637      864.906
04/14/2014  13:05:00      102.732       65.053       65.074      119.791       91.117       82.930    14349.921     8302.268     6877.322        2.427        1.476      121.597       71.457        0.345      342.272       17.565      864.882
04/14/2014  13:06:00      133.360      197.929      160.055      126.889      117.188       98.037    16100.790    13733.067     9611.290        6.100        1.972      238.665       84.308        0.125      341.887       16.908      864.842
04/14/2014  13:07:00      133.115       79.765       94.400       89.321       84.605       65.215     7978.244     7158.049     4252.944        2.619        0.969      155.184       48.503        0.098      341.748       16.673      864.872
04/14/2014  13:08:00       91.050       64.782       42.721       62.227       49.612       47.342     3872.194     2461.358     2241.261        1.144        0.429      111.744       33.113        0.088      341.984       17.075      864.851
04/14/2014  13:09:00       74.648     -121.899      -20.138       80.483      132.536       66.143     6477.476    17565.748     4374.899        2.462        1.421      142.939       85.015        0.354      342.121       17.307      864.841
04/14/2014  13:10:00       73.637      -96.736        9.010       69.128      111.906       57.529     4778.698    12523.023     3309.609        1.773        1.031      121.574       69.545        0.327      342.145       17.347      864.833
04/14/2014  13:11:00        7.742        6.313       25.166       64.361       29.241       35.365     4142.384      855.023     1250.657        0.349        0.312        9.990       23.077        5.336      342.440       17.851      864.845
04/14/2014  13:12:00      -40.552      -16.121       27.868       57.063       31.108       27.724     3256.168      967.691      768.600        0.384        0.250       43.639       27.448        0.396      342.470       17.902      864.833
04/14/2014  13:13:00       27.506      -20.926       21.599       41.265       43.703       26.183     1702.770     1909.961      685.538        0.298        0.215       34.561       21.272        0.379      342.207       17.453      864.822
04/14/2014  13:14:00       12.449       27.742       65.322       42.426       54.016       35.015     1799.984     2917.779     1226.069        0.557        0.297       30.407       26.254        0.745      342.671       18.243      864.823
04/14/2014  13:15:00      120.067      -69.027       32.060       87.524       85.170       51.076     7660.448     7253.854     2608.734        1.886        0.876      138.495       53.131        0.147      342.336       17.673      864.812
04/14/2014  13:16:00       64.393       66.950       70.688       87.556       99.146       54.974     7666.088     9830.013     3022.164        1.707        1.026       92.892       49.068        0.279      342.823       18.500      864.812
04/14/2014  13:17:00      157.443       83.687       24.631       88.084       62.871       65.522     7758.719     3952.728     4293.090        2.420        0.800      178.303       25.790        0.021      342.431       17.834      864.804
04/14/2014  13:18:00       94.138     -158.191        1.000      123.172      135.798       56.565    15171.389    18441.193     3199.588        3.534        1.841      184.083       81.871        0.198      342.672       18.245      864.787
04/14/2014  13:19:00       31.898     -135.572        0.071       89.610       84.395       58.058     8030.011     7122.436     3370.774        1.896        0.926      139.274       57.867        0.173      342.663       18.229      864.768
04/14/2014  13:20:00       31.144     -115.883       42.693       68.919      188.132       82.126     4749.836    35393.525     6744.673        3.155        2.344      119.995      106.639        0.790      342.318       17.642      864.748
04/14/2014  13:21:00       38.908       17.745       39.657       51.536       41.262       44.110     2656.004     1702.561     1945.658        0.485        0.315       42.763       26.858        0.394      342.370       17.732      864.732
04/14/2014  13:22:00       45.589       10.738       19.044       52.720       46.327       29.668     2779.365     2146.235      880.202        0.418        0.290       46.837       18.658        0.159      342.214       17.468      864.718
04/14/2014  13:23:00      -16.986       61.824      -12.635       87.142       41.877       39.561     7593.707     1753.696     1565.042        0.759        0.546       64.115       49.097        0.586      342.002       17.107      864.682
04/14/2014  13:24:00       19.165       13.601       25.748       41.453       61.847       30.230     1718.329     3825.087      913.842        0.383        0.323       23.501       29.313        1.556      342.535       18.012      864.667
04/14/2014  13:25:00       23.694       12.822       27.800       78.977       82.012       61.064     6237.360     6725.932     3728.768        0.909        0.835       26.941       33.626        1.558      342.875       18.591      864.657
04/14/2014  13:26:00      168.325     -140.782        5.972      133.641      166.501       71.977    17859.952    27722.629     5180.653        4.947        2.538      219.438      100.539        0.210      342.549       18.034      864.638
04/14/2014  13:27:00      181.563     -228.359      -42.123       49.984       56.012       35.518     2498.364     3137.331     1261.547        4.689        0.345      291.741       22.990        0.006      342.060       17.200      864.657
04/14/2014  13:28:00       52.302     -244.835      -43.671       75.340       72.541       55.808     5676.071     5262.153     3114.534        3.932        0.703      250.359       40.729        0.026      342.461       17.884      864.648
04/14/2014  13:29:00       17.630      -65.815       -4.763       44.864       60.537       36.750     2012.763     3664.710     1350.539        0.585        0.351       68.136       24.962        0.134      342.629       18.173      864.632
04/14/2014  13:30:00       10.094      -23.970       17.243       30.811       52.590       33.596      949.338     2765.702     1128.685        0.291        0.242       26.008       32.306        1.543      342.613       18.146      864.632
04/14/2014  13:31:00       32.043      -23.543       37.491       74.214       98.177       64.752     5507.738     9638.639     4192.769        1.116        0.967       39.762       64.262        2.612      342.618       18.154      864.609
04/14/2014  13:32:00       16.142       74.469      106.000       61.972       76.074       52.423     3840.521     5787.229     2748.183        1.471        0.619       76.199       30.469        0.160      342.916       18.660      864.609
04/14/2014  13:33:00      124.694       70.847       44.845      136.641      119.780       45.581    18670.771    14347.211     2077.663        2.883        1.755      143.415       25.573        0.032      342.788       18.441      864.599
04/14/2014  13:34:00      208.164      163.910       62.691      120.955       76.680       63.175    14630.069     5879.869     3991.091        4.931        1.225      264.950       63.202        0.057      342.639       18.187      864.584
04/14/2014  13:35:00      115.393      110.908       67.590       86.649       74.614       71.050     7508.043     5567.208     5048.141        2.415        0.906      160.051       58.419        0.133      342.970       18.750      864.568
04/14/2014  13:36:00      129.890       78.758       24.183       74.225       60.389       34.628     5509.402     3646.885     1199.111        1.701        0.518      151.902       23.387        0.024      342.262       17.547      864.585
04/14/2014  13:37:00       45.966       57.999       14.516       36.759       42.522       36.787     1351.212     1808.141     1353.247        0.510        0.226       74.005       23.000        0.097      342.656       18.219      864.581
04/14/2014  13:38:00      -33.640       47.199      -25.483       45.781       36.365       15.742     2095.855     1322.435      247.820        0.384        0.183       57.960       10.495        0.033      342.231       17.496      864.562
04/14/2014  13:39:00      -31.691       48.603       13.900       43.734       44.416       26.540     1912.651     1972.791      704.396        0.407        0.229       58.022       17.346        0.089      343.001       18.806      864.534
04/14/2014  13:40:00       -6.058       37.337       13.307       28.018       41.923       33.671      785.031     1757.519     1133.766        0.264        0.184       37.825       32.002        0.716      342.888       18.614      864.536
04/14/2014  13:41:00       56.836      108.955      129.168       88.923      102.798      106.614     7907.388    10567.508    11366.478        3.081        1.492      122.888       96.808        0.621      342.256       17.536      864.517
04/14/2014  13:42:00       98.234      114.576      102.514      130.912       93.025       74.884    17137.961     8653.693     5607.605        3.234        1.570      150.922       73.245        0.236      342.134       17.329      864.507
04/14/2014  13:43:00      184.923       80.275       32.954       75.270       72.068       47.729     5665.513     5193.839     2278.051        2.743        0.657      201.595       33.860        0.028      342.337       17.673      864.534
04/14/2014  13:44:00       38.472       84.117       83.077       59.097       56.905       37.583     3492.489     3238.138     1412.469        1.180        0.407       92.497       21.381        0.053      342.415       17.810      864.540
04/14/2014  13:45:00       33.393        0.863       23.675       35.779       53.822       37.525     1280.131     2896.839     1408.143        0.363        0.279       33.404       38.210        1.308      342.380       17.750      864.532
04/14/2014  13:46:00      -76.235       -0.084      -20.114       45.549       44.490       21.512     2074.754     1979.395      462.779        0.537        0.226       76.235       20.518        0.072      342.314       17.636      864.494
04/14/2014  13:47:00      -94.957       33.799        1.469       55.492       93.183       30.778     3079.414     8683.145      947.279        1.143        0.635      100.793       35.827        0.126      342.750       18.379      864.471
04/14/2014  13:48:00      -52.604       76.404        3.083       53.229       69.285       41.777     2833.340     4800.407     1745.353        0.899        0.469       92.762       36.415        0.154      342.920       18.666      864.458
04/14/2014  13:49:00      -72.739       99.228      -34.574       38.925       44.640       32.056     1515.183     1992.771     1027.563        1.043        0.227      123.033       16.132        0.017      342.465       17.892      864.444
04/14/2014  13:50:00     -147.603       27.046      -19.328       32.377       37.932       26.447     1048.261     1438.828      699.430        1.304        0.159      150.061       12.555        0.007      342.561       18.058      864.428
04/14/2014  13:51:00      -16.152       24.390       -4.273       76.695       32.443       24.315     5882.092     1052.535      591.215        0.420        0.376       29.253       22.036        0.567      342.739       18.360      864.418
04/14/2014  13:52:00       92.115       66.214       22.962       93.635       59.472       44.112     8767.575     3536.956     1945.901        1.382        0.713      113.443       33.072        0.085      342.738       18.357      864.396
04/14/2014  13:53:00      150.822       73.302       52.434       84.613       92.596       62.824     7159.297     8574.076     3946.901        2.527        0.984      167.692       49.521        0.087      342.971       18.753      864.370
04/14/2014  13:54:00      103.080       49.964       29.008       76.080       53.957       49.407     5788.216     2911.384     2441.074        1.255        0.557      114.551       47.527        0.172      342.826       18.507      864.359
04/14/2014  13:55:00      156.765       71.894       37.708       72.115       65.680       62.502     5200.572     4313.897     3906.451        2.229        0.671      172.465       33.124        0.037      342.948       18.712      864.337
04/14/2014  13:56:00       55.397       20.714       55.366       73.266      104.903       56.697     5367.962    11004.676     3214.509        1.307        0.979       59.143       20.776        0.123      343.349       19.395      864.312
04/14/2014  13:57:00       79.427        3.435       67.376       88.720      100.145       70.044     7871.243    10029.092     4906.226        1.683        1.140       79.501       62.177        0.612      343.236       19.205      864.312
04/14/2014  13:58:00       49.106      -60.182       33.155      109.873       62.870       48.022    12072.087     3952.618     2306.142        1.273        0.917       77.674       36.151        0.217      343.383       19.455      864.320
04/14/2014  13:59:00      -28.762      -67.189       -5.649       64.200       60.478       38.208     4121.605     3657.599     1459.837        0.730        0.462       73.087       30.776        0.177      342.824       18.505      864.322
04/14/2014  14:00:00       -1.903       -0.444       22.841       33.458       58.720       27.567     1119.438     3447.987      759.936        0.293        0.266        1.954       22.762      135.741      343.371       19.435      864.328
04/14/2014  14:01:00       65.887      -96.245       -4.621       89.653      100.826       58.933     8037.647    10165.796     3473.079        1.765        1.084      116.637       68.838        0.348      343.288       19.295      864.326
04/14/2014  14:02:00       90.339     -173.906        3.471       93.918      121.764       63.638     8820.568    14826.424     4049.815        3.305        1.385      195.971       53.773        0.075      343.160       19.074      864.324
04/14/2014  14:03:00      122.061     -190.722        1.315       65.241       69.677       46.484     4256.444     4854.832     2160.791        3.127        0.564      226.437       40.846        0.033      342.806       18.471      864.348
04/14/2014  14:04:00      110.588     -206.254       -6.169       65.072       60.900       53.888     4234.307     3708.834     2903.896        3.283        0.542      234.031       42.107        0.032      342.633       18.175      864.338
04/14/2014  14:05:00       92.714     -124.375        7.529       66.732       82.210       65.164     4453.210     6758.554     4246.373        1.979        0.773      155.129       51.016        0.108      342.861       18.564      864.340
04/14/2014  14:06:00       45.478       -1.540       51.372       73.694       97.129       46.961     5430.785     9434.108     2205.338        1.089        0.854       45.504       58.457        1.650      342.996       18.796      864.327
04/14/2014  14:07:00       23.781      -19.004       31.779       60.469       77.675       41.877     3656.450     6033.461     1753.646        0.669        0.572       30.441       36.130        1.409      342.764       18.402      864.299
04/14/2014  14:08:00       63.964       10.682       52.789       89.538       86.471       58.824     8016.989     7477.279     3460.225        1.297        0.948       64.850       65.877        1.032      342.849       18.547      864.286
04/14/2014  14:09:00      -12.852     -100.073       -8.764       66.816       95.354       57.968     4464.343     9092.291     3360.340        1.358        0.846      100.895       50.678        0.252      343.440       19.552      864.258
04/14/2014  14:10:00      -65.391     -109.668        1.080       76.129       78.681       32.096     5795.566     6190.668     1030.126        1.466        0.651      127.683       17.824        0.019      343.073       18.928      864.261
04/14/2014  14:11:00     -200.304      -73.219      -14.723       68.736       42.509       41.838     4724.573     1806.999     1750.408        2.699        0.414      213.267       31.437        0.022      343.052       18.888      864.243
04/14/2014  14:12:00     -202.926      -60.079      -14.612       69.604       61.344       38.137     4844.706     3763.029     1454.469        2.753        0.503      211.633       31.298        0.022      342.685       18.264      864.213
04/14/2014  14:13:00     -140.786      -74.233        5.491       62.083       48.616       38.755     3854.299     2363.512     1501.986        1.654        0.386      159.157       29.910        0.035      342.923       18.672      864.185
04/14/2014  14:14:00      -95.265      -66.804        1.041       55.607       44.163       30.517     3092.120     1950.379      931.300        0.976        0.299      116.354       25.918        0.050      343.035       18.863      864.182
04/14/2014  14:15:00       -7.631      -53.347        1.658       58.018       25.525       25.726     3366.059      651.513      661.831        0.379        0.234       53.890       18.462        0.117      343.123       19.013      864.194
04/14/2014  14:16:00        8.761      -25.880       23.717       57.737       70.282       42.913     3333.603     4939.629     1841.505        0.571        0.506       27.322       23.235        0.723      343.776       20.127      864.181
04/14/2014  14:17:00        2.934        3.766       34.347       32.448       56.877       32.218     1052.849     3234.970     1037.989        0.326        0.266        4.774       28.563       35.798      343.835       20.227      864.167
04/14/2014  14:18:00       38.872      -49.086       14.905       52.448       72.880       45.101     2750.762     5311.434     2034.071        0.712        0.505       62.613       47.340        0.572      343.674       19.952      864.162
04/14/2014  14:19:00       17.041       26.772       83.830       62.627       74.895       45.395     3922.126     5609.294     2060.661        0.981        0.580       31.735       47.270        2.219      343.525       19.698      864.147
04/14/2014  14:20:00       36.946      -95.126       29.540       54.977       91.440       40.071     3022.502     8361.263     1605.724        1.214        0.649      102.049       29.908        0.086      343.586       19.801      864.133
04/14/2014  14:21:00      150.340       87.468       68.438       97.970       93.769       66.544     9598.101     8792.652     4428.099        2.887        1.141      173.934       57.249        0.108      343.110       18.989      864.114
04/14/2014  14:22:00      188.950      106.629       43.081      148.234       81.854       70.923    21973.414     6700.080     5030.016        4.131        1.685      216.961       26.106        0.014      343.177       19.102      864.070
04/14/2014  14:23:00      181.861      109.718       17.252      123.908      102.917       71.711    15353.233    10591.947     5142.445        3.824        1.554      212.395       48.387        0.052      343.105       18.981      864.037
04/14/2014  14:24:00      207.652      193.994        7.529       96.183       60.245       70.860     9251.121     3629.485     5021.101        4.935        0.895      284.171       29.878        0.011      342.724       18.330      864.023
04/14/2014  14:25:00      183.500      133.441       26.782       65.798       58.792       44.411     4329.432     3456.537     1972.339        3.098        0.488      226.890       27.029        0.014      342.946       18.706      863.981
04/14/2014  14:26:00      146.186      109.214       45.161       64.802       63.427       71.498     4199.270     4022.975     5111.992        2.433        0.667      182.477       48.147        0.070      343.183       19.114      863.957
04/14/2014  14:27:00      119.564      104.651      -12.047       66.646       70.380       44.489     4441.734     4953.312     1979.259        1.838        0.569      158.894       15.780        0.010      343.049       18.885      863.949
04/14/2014  14:28:00       21.244      154.272      -18.133       65.671       82.075       39.386     4312.646     6736.283     1551.258        1.859        0.630      155.728       38.797        0.062      343.165       19.083      863.933
04/14/2014  14:29:00        2.019      215.321      -35.809       79.611       62.411       37.414     6337.842     3895.106     1399.822        2.964        0.582      215.330       37.004        0.030      342.931       18.684      863.922
04/14/2014  14:30:00        7.145       49.285       26.866       53.436       65.132       38.648     2855.403     4242.226     1493.679        0.589        0.430       49.801       11.163        0.050      343.578       19.789      863.915
04/14/2014  14:31:00       72.722       52.624       33.739       68.110       43.851       34.795     4638.989     1922.897     1210.692        0.848        0.389       89.765       31.692        0.125      343.540       19.725      863.916
04/14/2014  14:32:00       78.873       87.162        9.851       96.042       82.346       43.808     9223.987     6780.922     1919.137        1.592        0.896      117.551       32.073        0.074      343.729       20.045      863.909
04/14/2014  14:33:00      175.225      127.039       36.679       79.894       68.386       54.470     6382.978     4676.618     2967.034        3.110        0.701      216.432       41.806        0.037      343.255       19.234      863.899
04/14/2014  14:34:00       56.634      -59.997       19.657       55.150      101.638       47.108     3041.576    10330.268     2219.207        1.139        0.780       82.505       56.082        0.462      343.177       19.105      863.912
04/14/2014  14:35:00       14.858       25.525       25.825       42.552       46.518       32.613     1810.651     2163.945     1063.578        0.329        0.252       29.534       28.728        0.946      343.664       19.935      863.901
04/14/2014  14:36:00       17.502      202.553      -22.182       70.601       81.128       43.720     4984.508     6581.797     1911.455        2.765        0.674      203.308       44.667        0.048      343.304       19.318      863.878
04/14/2014  14:37:00       16.361      135.266      -15.234       36.454       94.415       39.510     1328.869     8914.229     1561.074        1.530        0.590      136.252       52.765        0.150      343.244       19.217      863.878
04/14/2014  14:38:00       26.340       37.617       12.848       35.475       32.687       28.740     1258.487     1068.439      825.999        0.271        0.158       45.922       22.151        0.233      343.461       19.588      863.853
04/14/2014  14:39:00       52.036      150.207      -10.399       38.588       65.945       42.573     1489.052     4348.680     1812.438        1.651        0.383      158.965       40.049        0.063      343.296       19.306      863.830
04/14/2014  14:40:00      108.196       93.563       -4.150       62.557       45.415       43.351     3913.378     2062.492     1879.296        1.416        0.393      143.040       28.896        0.041      343.628       19.872      863.819
04/14/2014  14:41:00      103.325      100.091        4.251       84.295       55.226       47.712     7105.687     3049.931     2276.413        1.657        0.622      143.855       30.082        0.044      343.234       19.201      863.814
04/14/2014  14:42:00      125.019       71.242       27.545       64.969       52.192       45.926     4220.948     2724.031     2109.216        1.526        0.453      143.893       31.491        0.048      343.356       19.408      863.788
04/14/2014  14:43:00      110.794       46.791       82.028       95.392      102.895       68.832     9099.592    10587.397     4737.862        2.280        1.221      120.269       60.677        0.255      343.385       19.458      863.789
04/14/2014  14:44:00       81.282     -126.267       -6.181       78.628       54.958       35.920     6182.368     3020.367     1290.279        1.654        0.525      150.167       32.950        0.048      343.039       18.870      863.762
04/14/2014  14:45:00      138.754     -237.420      -40.952       88.842       81.813       45.339     7892.918     6693.373     2055.660        4.697        0.832      274.992       45.547        0.027      343.274       19.267      863.721
04/14/2014  14:46:00      127.735       28.874       83.629       91.028       85.827       75.578     8286.080     7366.298     5712.022        2.275        1.068      130.958       63.645        0.236      343.289       19.294      863.741
04/14/2014  14:47:00       36.372      -24.672       -3.291       37.691       39.291       38.370     1420.625     1543.805     1472.271        0.319        0.222       43.950       19.381        0.194      342.973       18.759      863.744
04/14/2014  14:48:00      -80.717       17.356      -13.474       66.599       34.892       26.601     4435.460     1217.433      707.614        0.668        0.318       82.562       16.366        0.039      343.223       19.182      863.695
04/14/2014  14:49:00       -6.922       19.351        4.426       77.167       60.514       29.816     5954.689     3661.976      889.015        0.547        0.525       20.552       36.568        3.166      343.404       19.492      863.667
04/14/2014  14:50:00       95.596       32.804        3.670       70.327       53.716       26.669     4945.944     2885.405      711.229        0.938        0.427      101.068       18.326        0.033      343.187       19.121      863.648
04/14/2014  14:51:00      149.049     -208.363      -40.709       87.165       84.446       45.850     7597.732     7131.138     2102.240        4.206        0.842      256.185       59.781        0.054      343.148       19.053      863.625
04/14/2014  14:52:00      170.644     -241.736      -49.450       45.085       59.801       31.738     2032.686     3576.128     1007.301        4.831        0.331      295.898       30.278        0.010      343.037       18.862      863.584
04/14/2014  14:53:00       61.354      -88.454       -1.830       41.624       36.778       29.062     1732.572     1352.601      844.604        0.776        0.196      107.649       20.231        0.035      343.188       19.123      863.578
04/14/2014  14:54:00       15.584       -1.208       24.007       30.770       30.816       32.652      946.772      949.600     1066.127        0.189        0.148       15.631       19.912        1.623      343.495       19.649      863.554
04/14/2014  14:55:00       81.557      -57.831       24.224       80.166      105.174       56.823     6426.555    11061.583     3228.821        1.565        1.036       99.980       59.702        0.357      343.368       19.429      863.534
04/14/2014  14:56:00       33.650        2.639       43.456       65.576       57.545       46.321     4300.193     3311.432     2145.670        0.639        0.488       33.753       35.210        1.088      343.626       19.872      863.531
04/14/2014  14:57:00       33.562       19.305       25.680       40.361       30.066       24.143     1629.031      903.973      582.893        0.264        0.156       38.718       24.045        0.386      343.298       19.311      863.502
04/14/2014  14:58:00       87.400       16.925       23.373       70.721       71.798       53.453     5001.481     5154.923     2857.238        1.074        0.651       89.024       40.316        0.205      343.046       18.882      863.488
04/14/2014  14:59:00       74.276       19.648       68.265       87.679       72.062       56.542     7687.671     5192.961     3197.017        1.332        0.804       76.830       59.290        0.596      343.371       19.436      863.456
04/14/2014  15:00:00       37.071     -161.312       -5.119      117.384       86.964       67.334    13778.989     7562.708     4533.909        2.664        1.294      165.517       67.334        0.165      343.541       19.722      863.430
04/14/2014  15:01:00      -19.300        5.539       17.154       69.689       71.888       49.411     4856.501     5167.915     2441.435        0.658        0.623       20.080       54.144        7.271      344.002       20.512      863.418
04/14/2014  15:02:00      115.462      126.463       93.273       70.096       56.952       43.370     4913.512     3243.486     1880.974        2.403        0.502      171.244       30.544        0.032      343.552       19.740      863.410
04/14/2014  15:03:00      168.414      122.733       66.883      102.101       72.262       65.420    10424.635     5221.765     4279.755        3.391        0.996      208.391       45.403        0.047      343.537       19.716      863.394
04/14/2014  15:04:00       90.612       94.687       90.756       76.948       77.735       71.036     5921.044     6042.683     5046.148        2.121        0.850      131.058       48.830        0.139      343.524       19.695      863.362
04/14/2014  15:05:00       80.553       70.381        0.334       57.185       80.900       42.344     3270.142     6544.844     1793.012        1.152        0.580      106.969       25.081        0.055      343.697       19.991      863.352
04/14/2014  15:06:00       82.301      140.037        0.059       66.915       94.622       60.312     4477.589     8953.274     3637.576        2.172        0.853      162.431       57.330        0.125      343.521       19.689      863.331
04/14/2014  15:07:00       52.198      147.713      -15.600       59.050       70.795       45.157     3486.877     5011.965     2039.166        1.766        0.527      156.664       44.569        0.081      343.621       19.859      863.321
04/14/2014  15:08:00       -0.354       92.241       17.695       66.691       82.470       47.624     4447.637     6801.247     2267.999        1.117        0.676       92.242       36.194        0.154      343.815       20.191      863.301
04/14/2014  15:09:00       -9.558      210.170      -24.596       65.161      110.872       50.219     4245.987    12292.551     2521.991        3.196        0.953      210.387       63.432        0.091      343.563       19.760      863.277
04/14/2014  15:10:00      -72.687      180.312      -10.996       57.817      113.503       51.612     3342.782    12882.993     2663.830        2.840        0.944      194.412       64.176        0.109      343.686       19.971      863.245
04/14/2014  15:11:00       56.555      185.398      -13.604       63.773      120.248       60.033     4067.012    14459.519     3603.985        2.994        1.107      193.832       69.961        0.130      343.664       19.933      863.225
04/14/2014  15:12:00      -23.715      245.806      -26.284       49.703       64.317       34.678     2470.435     4136.729     1202.530        3.474        0.390      246.948       28.842        0.014      343.562       19.759      863.210
04/14/2014  15:13:00      -11.894      153.001      -26.076       80.900       88.605       48.767     6544.768     7850.761     2378.257        2.050        0.839      153.463       50.232        0.107      343.702       19.999      863.195
04/14/2014  15:14:00      -74.986      157.379      -21.438       56.060       70.897       45.329     3142.715     5026.367     2054.708        2.054        0.511      174.331       36.972        0.045      343.871       20.287      863.165
04/14/2014  15:15:00     -135.966       97.706      -35.446       39.444       40.070       29.390     1555.822     1605.575      863.797        1.666        0.201      167.431       26.160        0.024      343.695       19.987      863.130
04/14/2014  15:16:00      -14.067       61.154       18.000       37.893       49.832       32.376     1435.912     2483.241     1048.208        0.461        0.248       62.751       30.438        0.235      344.101       20.680      863.113
04/14/2014  15:17:00      -23.916      143.962       -9.805       60.054       64.483       40.750     3606.459     4158.012     1660.544        1.541        0.471      145.934       42.219        0.084      343.879       20.301      863.100
04/14/2014  15:18:00      -17.461      132.190        6.727       50.922       96.573       37.776     2593.004     9326.249     1427.009        1.558        0.667      133.338       40.772        0.094      344.002       20.511      863.089
04/14/2014  15:19:00       65.210       34.628       20.669       67.576       71.530       56.254     4566.511     5116.562     3164.531        0.936        0.642       73.834       21.499        0.085      344.232       20.904      863.076
04/14/2014  15:20:00      197.002       91.966       24.586      126.378       88.357       84.851    15971.420     7807.039     7199.659        3.942        1.549      217.411       46.950        0.047      344.005       20.515      863.055
04/14/2014  15:21:00      252.032      163.397       65.877      113.807       85.504       52.665    12951.996     7310.984     2773.573        5.879        1.152      300.364       18.947        0.004      343.825       20.206      863.030
04/14/2014  15:22:00      234.508      151.905       45.390       84.319       73.206       64.042     7109.621     5359.151     4101.319        4.835        0.829      279.408       40.404        0.021      343.828       20.211      863.013
04/14/2014  15:23:00       98.532       63.248       39.438       87.487       79.861       59.892     7654.010     6377.736     3587.043        1.644        0.881      117.085       38.911        0.110      343.884       20.309      862.992
04/14/2014  15:24:00       19.383       94.610       99.465       68.423       98.117       70.944     4681.728     9627.003     5033.069        1.928        0.967       96.575       66.443        0.473      344.106       20.688      862.977
04/14/2014  15:25:00      109.771       80.511       55.260       99.818       87.016       61.545     9963.553     7571.701     3787.801        2.145        1.066      136.131       50.168        0.136      343.599       19.822      862.988
04/14/2014  15:26:00       47.082       63.715       31.268       50.193       51.859       58.716     2519.329     2689.351     3447.551        0.795        0.433       79.223       23.250        0.086      343.551       19.741      862.964
04/14/2014  15:27:00       79.449       80.023       68.876       91.003      116.955       85.898     8281.489    13678.506     7378.485        2.339        1.467      112.764       68.141        0.365      343.668       19.941      862.936
04/14/2014  15:28:00      138.064       99.765      105.008      118.400      114.562       73.368    14018.489    13124.394     5382.889        3.628        1.626      170.337       53.566        0.099      343.738       20.059      862.900
04/14/2014  15:29:00       62.704      135.020      148.279       93.088       86.222       83.675     8665.356     7434.242     7001.510        3.362        1.155      148.870       66.509        0.200      343.852       20.254      862.877
04/14/2014  15:30:00       34.063      -33.436       40.403       70.497       85.597       62.287     4969.873     7326.906     3879.632        1.004        0.809       47.731       46.213        0.937      343.896       20.332      862.894
04/14/2014  15:31:00       60.201      -46.761       18.046       43.341       38.125       30.218     1878.399     1453.536      913.122        0.519        0.212       76.229       28.269        0.138      343.652       19.914      862.889
04/14/2014  15:32:00        8.472       12.303       42.835       31.775       54.225       50.253     1009.666     2940.389     2525.375        0.427        0.324       14.937       47.566       10.140      343.475       19.613      862.870
04/14/2014  15:33:00       51.827       53.744       46.158       64.483       47.570       29.805     4158.109     2262.944      888.362        0.751        0.365       74.663       26.669        0.128      343.489       19.636      862.843
04/14/2014  15:34:00       -8.176       -0.620       36.012       30.608       68.667       34.892      936.822     4715.131     1217.419        0.412        0.343        8.199       34.232       17.430      343.997       20.503      862.823
04/14/2014  15:35:00       32.481      -33.188       17.922       53.277       90.219       40.886     2838.466     8139.500     1671.669        0.756        0.632       46.438       46.869        1.019      343.940       20.407      862.813
04/14/2014  15:36:00       29.553      -55.041        9.382       39.541       71.083       34.115     1563.474     5052.851     1163.817        0.588        0.389       62.473       25.318        0.164      343.958       20.438      862.812
04/14/2014  15:37:00       34.626      -28.371        8.851       52.417       30.726       22.958     2747.491      944.062      527.065        0.315        0.211       44.765       12.887        0.083      343.668       19.941      862.807
04/14/2014  15:38:00       47.627       37.897       18.594       53.819       36.252       28.322     2896.440     1314.210      802.132        0.453        0.251       60.865       18.970        0.097      344.013       20.532      862.785
04/14/2014  15:39:00        4.528       -6.638       39.983       28.584       40.060       21.948      817.045     1604.777      481.700        0.228        0.145        8.035       20.377        6.431      344.054       20.601      862.771
04/14/2014  15:40:00       26.381      -54.091        3.138       35.262       49.947       38.927     1243.442     2494.745     1515.333        0.444        0.263       60.181       34.702        0.332      343.522       19.693      862.759
04/14/2014  15:41:00       -8.133      -34.676        0.708       53.334       83.871       41.740     2844.567     7034.395     1742.240        0.644        0.581       35.617       42.507        1.424      344.396       21.185      862.751
04/14/2014  15:42:00      -79.792      -51.083        2.457       64.216       60.659       39.494     4123.734     3679.474     1559.782        0.917        0.468       94.743       36.121        0.145      344.168       20.796      862.738
04/14/2014  15:43:00      -87.354       34.122       18.993       50.150       26.932       23.214     2514.982      725.357      538.905        0.647        0.189       93.782       18.891        0.041      343.909       20.354      862.723
04/14/2014  15:44:00     -102.182        7.989       -3.616       47.745       39.148       28.392     2279.581     1532.551      806.087        0.757        0.231      102.494       31.220        0.093      343.992       20.495      862.711
04/14/2014  15:45:00      -65.291      -72.763        5.595       84.031       45.788       30.485     7061.216     2096.515      929.320        0.984        0.504       97.762       13.060        0.018      343.912       20.357      862.691
04/14/2014  15:46:00       -8.325      -59.780       -1.501       60.052       47.542       30.515     3606.287     2260.195      931.163        0.522        0.340       60.357       20.201        0.112      344.126       20.725      862.671
04/14/2014  15:47:00      -78.988      -86.850        8.673       87.887       60.958       37.005     7724.146     3715.897     1369.345        1.333        0.640      117.397       38.639        0.108      344.027       20.554      862.649
04/14/2014  15:48:00      -94.587      -57.322       17.291       83.053       51.141       35.295     6897.775     2615.381     1245.740        1.164        0.538      110.601       37.473        0.115      344.320       21.055      862.643
04/14/2014  15:49:00      -63.546      -52.325       -2.703       78.667       57.738       29.371     6188.485     3333.661      862.631        0.858        0.519       82.317       18.243        0.049      344.285       20.995      862.635
04/14/2014  15:50:00      -24.801      -67.851       -2.387       49.859       45.397       35.862     2485.876     2060.863     1286.100        0.553        0.292       72.241       25.760        0.127      344.578       21.496      862.627
04/14/2014  15:51:00      -10.992     -106.669        3.009       65.713       75.095       46.004     4318.227     5639.239     2116.411        1.179        0.604      107.234       31.688        0.087      344.518       21.393      862.623
04/14/2014  15:52:00       -1.274      -80.139       -0.282       44.622       68.656       37.193     1991.087     4713.654     1383.321        0.725        0.404       80.149       37.610        0.220      344.289       21.002      862.610
04/14/2014  15:53:00      -81.358      -73.632        9.076      109.042       58.918       34.143    11890.150     3471.359     1165.719        1.432        0.826      109.731       35.289        0.103      344.272       20.971      862.591
04/14/2014  15:54:00     -190.805     -122.653        7.142       96.960       83.175       53.806     9401.192     6918.132     2895.047        3.535        0.961      226.826       50.855        0.050      344.116       20.703      862.577
04/14/2014  15:55:00     -156.226      -93.115       -5.588       66.502       68.472       39.893     4422.547     4688.396     1591.450        2.190        0.535      181.871       30.575        0.028      344.025       20.549      862.571
04/14/2014  15:56:00      -93.240     -113.824      -11.333       50.852       68.376       33.387     2585.954     4675.277     1114.702        1.508        0.419      147.138       30.787        0.044      344.047       20.589      862.553
04/14/2014  15:57:00      -38.023     -126.344       -4.628       48.996       53.300       33.318     2400.605     2840.882     1110.080        1.189        0.318      131.942       22.169        0.028      344.116       20.706      862.537
04/14/2014  15:58:00       -8.586      -59.843        2.451       46.212       36.287       33.487     2135.537     1316.749     1121.365        0.412        0.229       60.456       18.989        0.099      344.325       21.062      862.544
04/14/2014  15:59:00      -10.045       -2.274        5.638       33.381       24.603       20.610     1114.274      605.293      424.756        0.114        0.107       10.299       12.606        1.498      344.289       21.004      862.542
04/14/2014  16:00:00       32.203      -11.832       11.120       57.570       25.992       29.857     3314.304      675.581      891.422        0.309        0.244       34.308       19.560        0.325      343.853       20.259      862.537
04/14/2014  16:01:00       28.085       -4.465       31.486       46.007       46.967       27.639     2116.663     2205.923      763.920        0.344        0.254       28.438       29.201        1.054      343.922       20.375      862.527
04/14/2014  16:02:00      175.175       56.596       32.040      160.195       97.576       81.181    25662.515     9521.139     6590.434        3.834        2.089      184.091       82.565        0.201      343.803       20.170      862.510
04/14/2014  16:03:00      106.316       94.522       71.113      112.417       73.510       92.098    12637.693     5403.748     8481.963        2.590        1.326      142.259       65.530        0.212      343.891       20.319      862.492
04/14/2014  16:04:00       90.089      131.153      104.716       75.353      133.857      100.667     5678.132    17917.821    10133.917        3.500        1.686      159.114       77.914        0.240      343.962       20.442      862.456
04/14/2014  16:05:00       98.695      154.492      155.844       90.228       99.905       71.500     8141.068     9980.979     5112.237        4.056        1.162      183.326       59.759        0.106      343.850       20.250      862.443
04/14/2014  16:06:00      173.354      105.912       93.736      116.147       84.041       73.727    13490.144     7062.837     5435.693        3.802        1.299      203.147       48.873        0.058      343.953       20.424      862.442
04/14/2014  16:07:00      225.452      165.411       93.789      120.392       79.967       88.928    14494.142     6394.799     7908.159        5.789        1.440      279.624       68.084        0.059      343.899       20.334      862.438
04/14/2014  16:08:00      163.802      115.109       42.972       60.665       56.651       37.181     3680.237     3209.344     1382.418        2.510        0.414      200.203       25.270        0.016      344.037       20.567      862.446
04/14/2014  16:09:00      181.041      163.072       25.033       81.055       63.002       53.725     6569.886     3969.268     2886.374        3.671        0.671      243.656       45.260        0.035      344.048       20.587      862.454
04/14/2014  16:10:00       84.573      133.390      -32.566       94.973       49.756       26.906     9019.779     2475.665      723.959        1.911        0.611      157.941       22.549        0.020      343.833       20.221      862.466
04/14/2014  16:11:00      104.470       34.730       13.049       65.220       69.608       33.003     4253.711     4845.318     1089.174        1.124        0.509      110.091       11.399        0.011      343.938       20.402      862.450
04/14/2014  16:12:00       18.305      -40.584       -1.389       38.660       83.805       39.599     1494.580     7023.322     1568.054        0.603        0.504       44.521       35.889        0.650      343.788       20.147      862.447
04/14/2014  16:13:00       -3.439      -46.408       -0.868       30.425       51.239       20.275      925.688     2625.466      411.065        0.306        0.198       46.535       20.136        0.187      344.305       21.030      862.449
04/14/2014  16:14:00      -27.183        1.658      -36.014       53.208       54.183       27.703     2831.081     2935.807      767.469        0.429        0.327       27.234       27.048        0.986      344.080       20.647      862.454
04/14/2014  16:15:00       48.819      -12.815        5.641       41.283       27.988       27.597     1704.307      783.348      761.577        0.291        0.162       50.473       25.146        0.248      343.775       20.125      862.436
04/14/2014  16:16:00       14.342      -43.822      -10.803       28.973       28.550       29.090      839.407      815.100      846.206        0.237        0.125       46.109       25.033        0.295      343.603       19.831      862.424
04/14/2014  16:17:00       57.230     -104.142        2.744       53.593       90.828       44.172     2872.191     8249.775     1951.146        1.360        0.654      118.831       50.416        0.180      344.129       20.727      862.412
04/14/2014  16:18:00       75.994     -182.567      -22.999       45.158       45.889       26.724     2039.239     2105.807      714.173        2.225        0.243      197.752       17.349        0.008      344.073       20.633      862.394
04/14/2014  16:19:00       72.686     -120.073       -8.961       63.259       61.607       36.264     4001.681     3795.363     1315.098        1.444        0.456      140.360       32.106        0.052      344.258       20.949      862.371
04/14/2014  16:20:00       11.577      -53.728       27.085       45.638       43.188       28.248     2082.825     1865.187      797.926        0.425        0.237       54.961       27.990        0.259      344.607       21.545      862.366
04/14/2014  16:21:00       66.167     -151.715      -33.127       99.352       67.043       43.458     9870.732     4494.721     1888.575        2.237        0.813      165.515       46.347        0.078      344.246       20.926      862.363
04/14/2014  16:22:00       75.417      -61.691       19.755       73.789       83.295       51.856     5444.753     6938.028     2689.048        1.247        0.754       97.435       58.511        0.361      344.142       20.751      862.380
04/14/2014  16:23:00       83.865     -102.613        7.089       47.155       47.465       32.753     2223.584     2252.934     1072.758        1.158        0.277      132.525       32.835        0.061      344.099       20.677      862.371
04/14/2014  16:24:00        8.858      -10.166       24.223       49.650       51.084       26.182     2465.092     2609.550      685.507        0.326        0.288       13.484       24.728        3.363      343.998       20.506      862.374
04/14/2014  16:25:00      -11.450      -11.642       -2.201       24.975       20.346       18.339      623.730      413.963      336.321        0.082        0.069       16.329       15.512        0.902      343.465       19.596      862.375
04/14/2014  16:26:00       -8.972      -23.006       28.611       62.191       58.487       38.833     3867.746     3420.786     1508.040        0.511        0.440       24.693       40.044        2.630      344.146       20.758      862.359
04/14/2014  16:27:00       97.545       72.984       56.029       89.940       59.737       47.969     8089.144     3568.548     2301.067        1.597        0.698      121.827       43.074        0.125      343.652       19.914      862.347
04/14/2014  16:28:00       75.644       22.505      -23.085       77.086       38.573       28.730     5942.237     1487.842      825.412        0.751        0.413       78.921       21.010        0.071      343.962       20.444      862.363
04/14/2014  16:29:00       15.349       48.805       13.587       50.584       57.265       49.358     2558.762     3279.275     2436.201        0.554        0.414       51.161       40.772        0.635      344.085       20.654      862.343
04/14/2014  16:30:00       79.977       13.499       70.843       78.156       66.357       56.723     6108.329     4403.265     3217.493        1.266        0.686       81.108       54.868        0.458      343.865       20.277      862.344
04/14/2014  16:31:00       85.468      -52.337       22.584       63.721       65.093       48.114     4060.342     4237.087     2314.949        1.058        0.531      100.220       48.829        0.237      343.895       20.329      862.347
04/14/2014  16:32:00       68.515      -58.230        9.066       47.208       97.331       42.604     2228.595     9473.406     1815.078        1.084        0.676       89.917       48.166        0.287      343.981       20.476      862.339
04/14/2014  16:33:00        3.671        0.781       36.603       36.428       65.628       39.059     1327.014     4306.975     1525.621        0.426        0.358        3.753       39.873      112.883      344.160       20.783      862.317
04/14/2014  16:34:00       26.304      -13.700       62.862       57.872       75.289       48.899     3349.215     5668.377     2391.092        0.812        0.570       29.658       45.464        2.350      344.219       20.883      862.310
04/14/2014  16:35:00       78.187     -161.040      -14.668       50.300       42.630       26.999     2530.110     1817.328      728.946        1.867        0.254      179.017       19.832        0.012      344.019       20.538      862.322
04/14/2014  16:36:00       15.517      -12.408       51.129       34.507       77.120       29.877     1190.699     5947.499      892.610        0.552        0.402       19.868       33.126        2.780      344.221       20.885      862.317
04/14/2014  16:37:00       13.390      -49.366      -16.032       21.968       26.962       24.837      482.589      726.957      616.855        0.235        0.091       51.150       18.972        0.138      344.100       20.677      862.309
04/14/2014  16:38:00       44.700       25.289       35.524       45.913       45.220       27.644     2107.985     2044.811      764.172        0.441        0.246       51.358       24.861        0.234      344.200       20.850      862.302
04/14/2014  16:39:00       22.494        7.582        3.518       37.195       13.115       17.360     1383.442      172.010      301.376        0.122        0.093       23.737       12.255        0.267      343.925       20.383      862.295
04/14/2014  16:40:00      -32.727       67.658      -10.149       32.807       58.229       16.936     1076.300     3390.597      286.823        0.525        0.238       75.158       19.403        0.067      344.066       20.621      862.283
04/14/2014  16:41:00      -77.118       99.722      -11.311       50.865       27.645       24.990     2587.217      764.235      624.491        1.000        0.199      126.062       15.344        0.015      344.276       20.980      862.273
04/14/2014  16:42:00     -106.010       40.387       -2.751       55.763       34.020       32.251     3109.479     1157.333     1040.125        0.909        0.265      113.442       30.678        0.073      344.561       21.467      862.270
04/14/2014  16:43:00      -93.707      -11.086        5.719       86.911       50.906       28.928     7553.448     2591.375      836.802        0.996        0.549       94.361       34.476        0.133      344.663       21.641      862.243
04/14/2014  16:44:00     -125.876      -59.133        5.461       67.836       54.613       33.998     4601.671     2982.583     1155.869        1.405        0.437      139.073       29.902        0.046      344.628       21.580      862.231
04/14/2014  16:45:00     -215.150      -86.016      -20.031       65.038       39.877       21.298     4229.958     1590.204      453.601        3.018        0.314      231.707       20.279        0.008      344.188       20.826      862.224
04/14/2014  16:46:00     -125.003      -80.125       -7.885       79.337       43.047       42.391     6294.393     1853.066     1796.975        1.602        0.497      148.478       40.941        0.076      344.494       21.351      862.227
04/14/2014  16:47:00      -82.453      -59.224        8.463       68.943       35.941       33.421     4753.169     1291.730     1116.988        0.877        0.358      101.519       35.567        0.123      344.650       21.619      862.224
04/14/2014  16:48:00     -142.446      -63.742       -0.109       77.422       41.529       33.757     5994.240     1724.654     1139.511        1.660        0.443      156.058       32.327        0.043      344.336       21.081      862.211
04/14/2014  16:49:00     -164.356      -16.923      -25.240       28.721       37.478       23.375      824.867     1404.600      546.397        1.536        0.139      165.225       15.253        0.009      344.197       20.844      862.209
04/14/2014  16:50:00     -179.106      -18.287      -17.156       48.919       38.131       27.744     2393.070     1453.966      769.717        1.866        0.231      180.037       26.463        0.022      344.415       21.215      862.203
04/14/2014  16:51:00     -162.811      -43.107      -13.503       50.318       42.294       20.207     2531.916     1788.763      408.329        1.664        0.236      168.421        4.600        0.001      344.363       21.129      862.182
04/14/2014  16:52:00     -146.471      -19.340      -10.610       41.067       36.198       17.476     1686.518     1310.282      305.406        1.262        0.165      147.742       14.531        0.010      344.311       21.038      862.168
04/14/2014  16:53:00      -47.388       -1.163        5.468       53.956       39.105       24.015     2911.253     1529.189      576.722        0.365        0.251       47.402       26.721        0.318      344.674       21.661      862.165
04/14/2014  16:54:00      -43.320      -23.576        8.208       63.138       34.461       27.541     3986.393     1187.537      758.517        0.421        0.297       49.319       30.677        0.387      344.644       21.610      862.168
04/14/2014  16:55:00      -22.212        4.172       10.740       63.131       31.498       19.531     3985.534      992.140      381.472        0.299        0.268       22.600       15.950        0.498      344.080       20.645      862.166
04/14/2014  16:56:00        5.626       -5.696      -13.595       33.876       28.457       26.552     1147.561      809.779      705.004        0.146        0.133        8.006       13.226        2.729      343.910       20.355      862.167
04/14/2014  16:57:00      -62.617       -5.783       14.729       30.595       32.816       25.506      936.066     1076.867      650.536        0.342        0.133       62.883       20.999        0.112      344.446       21.271      862.158
04/14/2014  16:58:00      -27.332       20.547       -6.388       37.064       28.349       25.768     1373.754      803.652      663.978        0.203        0.142       34.194       13.566        0.157      344.687       21.683      862.147
04/14/2014  16:59:00      -85.962        7.770        1.475       45.505       37.441       24.690     2070.690     1401.864      609.604        0.577        0.204       86.313       27.648        0.103      345.013       22.240      862.141
04/14/2014  17:00:00     -110.012       41.432      -18.662       45.389       44.094       23.662     2060.174     1944.243      559.889        0.937        0.228      117.555       22.422        0.036      344.622       21.570      862.133
04/14/2014  17:01:00       14.677       53.368       -2.901       30.603       32.750       22.844      936.533     1072.558      521.869        0.280        0.127       55.350       19.871        0.129      344.517       21.392      862.132
04/14/2014  17:02:00       50.583        1.621       14.960       29.139       14.385       25.714      849.102      206.930      661.195        0.225        0.086       50.609       20.515        0.164      344.166       20.793      862.124
04/14/2014  17:03:00       37.489       20.094       15.723       48.044       41.239       36.308     2308.214     1700.619     1318.281        0.369        0.266       42.535       33.500        0.620      343.951       20.425      862.100
04/14/2014  17:04:00       46.165       36.236       14.984       47.694       46.299       28.471     2274.687     2143.564      810.600        0.445        0.261       58.688       16.342        0.078      344.064       20.618      862.077
04/14/2014  17:05:00       62.142       37.924       41.278       62.249       52.414       36.657     3874.892     2747.218     1343.703        0.748        0.398       72.800       27.334        0.141      344.048       20.590      862.063
04/14/2014  17:06:00      100.162      -63.049       16.325       73.117       71.055       54.066     5346.026     5048.873     2923.081        1.379        0.666      118.353       44.074        0.139      343.932       20.393      862.045
04/14/2014  17:07:00       72.717      -46.213       40.903       87.166       97.000       72.130     7597.989     9408.905     5202.694        1.565        1.110       86.159       83.511        0.939      344.432       21.245      862.050
04/14/2014  17:08:00       63.367      -78.169       13.811       52.430       81.426       46.787     2748.916     6630.243     2188.996        1.094        0.578      100.626       42.290        0.177      344.400       21.191      862.041
04/14/2014  17:09:00       45.225      -27.087       -1.601       33.035       25.288       29.417     1091.304      639.504      865.346        0.269        0.130       52.717       26.229        0.248      343.773       20.121      862.049
04/14/2014  17:10:00       58.063      -29.697        2.811       39.979       33.672       32.766     1598.339     1133.800     1073.598        0.403        0.190       65.217       24.733        0.144      343.552       19.744      862.034
04/14/2014  17:11:00       18.241        1.771        8.426       19.675       26.431       22.416      387.119      698.585      502.485        0.100        0.079       18.327       21.735        1.407      343.723       20.036      862.017
04/14/2014  17:12:00       39.368       17.724        7.832       16.706       17.736       20.021      279.087      314.567      400.833        0.146        0.050       43.174       10.889        0.064      343.787       20.144      861.996
04/14/2014  17:13:00       34.274       20.616       -5.787       35.921       18.145       16.922     1290.300      329.237      286.366        0.177        0.095       39.996       14.832        0.138      343.559       19.755      861.974
04/14/2014  17:14:00       18.250      -27.727        4.086       15.995       46.563       16.074      255.831     2168.069      258.383        0.190        0.134       33.194       22.424        0.456      343.898       20.334      861.959
04/14/2014  17:15:00       79.430      -96.344      -12.092       40.788       47.014       33.997     1663.668     2210.311     1155.791        1.038        0.251      124.865       31.449        0.063      344.415       21.217      861.945
04/14/2014  17:16:00       47.872       -7.969       25.680       35.840       30.517       23.252     1284.492      931.278      540.638        0.289        0.138       48.531       17.533        0.131      344.000       20.509      861.940
04/14/2014  17:17:00       16.345       11.567       29.511       27.484       20.200       14.929      755.398      408.058      222.887        0.133        0.069       20.024       12.772        0.407      344.042       20.582      861.928
04/14/2014  17:18:00       77.679       57.430       38.148       96.673       47.877       40.022     9345.620     2292.169     1601.753        1.201        0.662       96.604       31.195        0.104      343.911       20.355      861.928
04/14/2014  17:19:00      122.619       15.740       28.679       83.703       49.129       49.847     7006.272     2413.680     2484.765        1.400        0.595      123.625       38.538        0.097      344.229       20.899      861.924
04/14/2014  17:20:00       33.721      115.877      129.388       71.067       94.865       69.865     5050.524     8999.288     4881.133        2.511        0.947      120.684       72.437        0.360      344.015       20.532      861.908
04/14/2014  17:21:00      136.913      132.095       76.397       96.492       62.523       55.292     9310.711     3909.082     3057.245        2.915        0.814      190.248       56.043        0.087      344.381       21.156      861.918
04/14/2014  17:22:00       73.821       96.454       22.011       56.955       36.632       53.738     3243.818     1341.914     2887.768        1.135        0.374      121.462       37.378        0.095      344.360       21.123      861.925
04/14/2014  17:23:00       67.694       27.209       23.248       65.491       41.327       36.487     4289.078     1707.892     1331.313        0.659        0.366       72.958       26.479        0.132      344.166       20.790      861.913
04/14/2014  17:24:00       84.336       50.740       28.338       57.352       47.020       47.865     3289.287     2210.892     2291.016        0.914        0.390       98.423       38.787        0.155      343.557       19.753      861.892
04/14/2014  17:25:00       82.860       62.885       29.805       52.937       41.080       29.778     2802.274     1687.553      886.715        0.854        0.269      104.021       26.729        0.066      344.172       20.802      861.868
04/14/2014  17:26:00       47.662        9.003       15.306       25.543       40.322       29.599      652.422     1625.846      876.106        0.287        0.158       48.505        6.409        0.017      343.845       20.246      861.850
04/14/2014  17:27:00       15.459      -14.271        7.002       25.492       26.951       19.793      649.827      726.337      391.778        0.113        0.088       21.039       17.468        0.689      343.644       19.901      861.837
04/14/2014  17:28:00       79.774       67.135       13.994       58.463       39.561       28.689     3417.961     1565.098      823.039        0.844        0.290      104.264       21.624        0.043      344.086       20.656      861.822
04/14/2014  17:29:00      109.746       76.558       18.356       54.809       51.227       41.546     3004.057     2624.244     1726.087        1.280        0.368      133.810       26.415        0.039      344.356       21.117      861.811
04/14/2014  17:30:00       48.859       12.696       11.862       44.744       58.040       41.138     2002.055     3368.664     1692.371        0.487        0.353       50.481       31.885        0.399      343.975       20.465      861.808
04/14/2014  17:31:00       16.680      -55.624        0.684       33.420       41.012       28.600     1116.912     1681.953      817.971        0.349        0.181       58.071       23.491        0.164      344.060       20.613      861.800
04/14/2014  17:32:00       99.323     -124.821       -7.644       97.776      119.155       61.314     9560.077    14197.809     3759.353        2.650        1.376      159.516       77.331        0.235      344.576       21.490      861.772
04/14/2014  17:33:00      116.457     -109.152       10.930       94.207      115.872       60.481     8874.865    13426.300     3657.906        2.577        1.298      159.613       68.714        0.185      344.465       21.300      861.765
04/14/2014  17:34:00      100.938     -151.882       -9.461       69.563       93.316       44.160     4839.065     8707.786     1950.072        2.442        0.775      182.364       49.522        0.074      344.616       21.557      861.745
04/14/2014  17:35:00       45.865      -12.422       25.675       53.268       67.345       31.569     2837.528     4535.388      996.574        0.564        0.418       47.517       18.335        0.149      344.007       20.521      861.744
04/14/2014  17:36:00       84.486      -88.098        0.396       52.846       85.677       44.436     2792.751     7340.628     1974.551        1.350        0.605      122.062       49.025        0.161      344.353       21.110      861.735
04/14/2014  17:37:00       86.408      -55.455       27.681       89.183      100.561       59.537     7953.580    10112.453     3544.657        1.645        1.081      102.672       72.191        0.494      344.371       21.140      861.729
04/14/2014  17:38:00       84.717      -70.110       24.634       89.487       97.059       70.800     8007.907     9420.357     5012.642        1.757        1.122      109.965       68.959        0.393      344.270       20.968      861.736
04/14/2014  17:39:00        2.025      -74.340       -7.698       41.327       55.904       33.923     1707.897     3125.300     1150.794        0.579        0.299       74.367       24.219        0.106      344.260       20.952      861.749
04/14/2014  17:40:00       18.201      -39.233       -3.778       41.259       70.314       23.662     1702.314     4944.079      559.906        0.454        0.360       43.249       14.185        0.108      344.435       21.250      861.740
04/14/2014  17:41:00      116.546     -206.934       -9.580       85.819      114.540       69.223     7364.903    13119.410     4791.822        4.088        1.264      237.496       73.436        0.096      344.295       21.010      861.737
04/14/2014  17:42:00       31.012     -104.686        1.471       66.266       97.027       49.218     4391.195     9414.264     2422.375        1.407        0.811      109.183       53.493        0.240      344.278       20.982      861.720
04/14/2014  17:43:00       19.305      -78.017       10.235       57.611       91.874       42.835     3319.059     8440.862     1834.865        1.008        0.680       80.370       42.533        0.280      344.527       21.409      861.704
04/14/2014  17:44:00       98.781     -169.593       -0.234       80.019       87.451       36.460     6403.090     7647.741     1329.364        2.695        0.769      196.263       48.555        0.061      344.561       21.465      861.694
04/14/2014  17:45:00       36.288      -85.042       18.301       39.738       85.975       33.828     1579.120     7391.752     1144.315        0.950        0.506       92.461       38.401        0.172      344.371       21.144      861.690
04/14/2014  17:46:00       30.982       -2.547       19.270       50.033       41.778       24.921     2503.298     1745.391      621.043        0.310        0.243       31.087       27.907        0.806      343.655       19.920      861.678
04/14/2014  17:47:00       70.838      -44.336        0.903       55.771       42.904       31.878     3110.404     1840.719     1016.239        0.647        0.298       83.569       27.302        0.107      343.889       20.319      861.661
04/14/2014  17:48:00       29.895      -42.857       17.698       35.662       36.479       27.391     1271.778     1330.711      750.276        0.320        0.168       52.254       16.155        0.096      343.778       20.131      861.649
04/14/2014  17:49:00       53.542      -55.027       32.859       56.797       55.403       38.248     3225.896     3069.500     1462.905        0.736        0.388       76.777       28.191        0.135      344.284       20.993      861.634
04/14/2014  17:50:00       56.893       -0.304       37.072       64.598       76.170       44.070     4172.897     5801.803     1942.182        0.826        0.596       56.894       41.963        0.544      344.314       21.044      861.627
04/14/2014  17:51:00       51.967       40.529       24.263       38.443       27.832       26.952     1477.863      774.605      726.385        0.395        0.149       65.902       19.028        0.083      344.409       21.208      861.625
04/14/2014  17:52:00       18.843      -11.331       13.894       36.218       40.705       36.750     1311.766     1656.938     1350.538        0.250        0.216       21.988       31.881        2.102      344.042       20.580      861.621
04/14/2014  17:53:00       10.006       20.005       27.222       24.718       35.196       26.323      610.968     1238.768      692.881        0.189        0.127       22.368       15.791        0.498      344.352       21.109      861.627
04/14/2014  17:54:00       13.906      -27.396       18.369       37.546       64.896       36.537     1409.725     4211.485     1334.954        0.412        0.348       30.723       36.064        1.378      344.652       21.622      861.625
04/14/2014  17:55:00       98.912      -96.373      -11.990       69.878       79.584       41.264     4882.884     6333.631     1702.694        1.606        0.646      138.099       44.295        0.103      344.592       21.518      861.611
04/14/2014  17:56:00       55.914      -65.983       22.337       43.572       65.221       36.870     1898.560     4253.725     1359.376        0.774        0.376       86.488       23.722        0.075      344.104       20.686      861.613
04/14/2014  17:57:00       88.185       40.160       47.552       81.568       48.007       40.880     6653.337     2304.631     1671.164        1.114        0.531       96.899       14.264        0.022      344.345       21.095      861.625
04/14/2014  17:58:00      144.266       41.300       26.638      106.211       61.267       60.550    11280.770     3753.589     3666.262        2.096        0.935      150.062       49.855        0.110      344.376       21.149      861.624
04/14/2014  17:59:00       83.230       -3.969       39.906       68.617       58.727       38.422     4708.290     3448.913     1476.283        0.908        0.482       83.325       34.473        0.171      343.987       20.486      861.626
04/14/2014  18:00:00       53.450       16.899       55.087       65.536       53.308       37.385     4295.014     2841.700     1397.640        0.735        0.427       56.058       34.501        0.379      343.913       20.361      861.625
04/14/2014  18:01:00      100.668       36.576       15.972       64.720       51.936       38.336     4188.662     2697.359     1469.623        1.004        0.418      107.107       18.384        0.029      344.222       20.888      861.631
04/14/2014  18:02:00       52.346       16.822       10.034       31.543       28.188       24.476      994.943      794.576      599.063        0.276        0.119       54.982       11.180        0.041      344.163       20.787      861.637
04/14/2014  18:03:00      119.322       54.389       22.657       45.506       41.818       36.900     2070.752     1748.759     1361.607        1.144        0.259      131.133       22.004        0.028      344.213       20.872      861.652
04/14/2014  18:04:00       96.729       60.023       19.299       37.486       33.639       22.424     1405.175     1131.557      502.821        0.818        0.152      113.838       21.116        0.034      344.357       21.117      861.649
04/14/2014  18:05:00       67.045      -10.621       -2.293       31.269       30.330       19.608      977.776      919.889      384.455        0.345        0.114       67.881       12.759        0.035      343.719       20.030      861.648
04/14/2014  18:06:00       31.517      -12.787       10.793       18.541       20.598       19.338      343.774      424.267      373.944        0.121        0.057       34.012       11.487        0.114      343.849       20.250      861.643
04/14/2014  18:07:00       63.609     -141.339      -16.115       43.629       62.987       35.157     1903.478     3967.336     1236.035        1.569        0.355      154.993       14.739        0.009      344.552       21.451      861.630
04/14/2014  18:08:00       59.087     -104.913        5.982       52.917       59.631       41.402     2800.169     3555.845     1714.137        1.130        0.404      120.407       39.516        0.108      344.482       21.329      861.625
04/14/2014  18:09:00       72.636      -86.503        9.232       53.319       62.496       38.259     2842.882     3905.707     1463.728        1.053        0.411      112.954       39.063        0.120      344.547       21.444      861.628
04/14/2014  18:10:00       15.196      -14.607       26.755       41.493       51.282       28.719     1721.672     2629.866      824.759        0.317        0.259       21.078       28.085        1.775      344.446       21.269      861.640
04/14/2014  18:11:00      -20.037        1.846       16.177       39.828       26.561       28.060     1586.239      705.479      787.367        0.187        0.154       20.122       23.359        1.348      344.408       21.206      861.630
04/14/2014  18:12:00      -16.143       25.080       13.035       53.158       32.067       31.824     2825.760     1028.290     1012.771        0.296        0.243       29.826       23.736        0.633      344.521       21.399      861.623
04/14/2014  18:13:00       49.618     -141.293       -4.289       52.448       68.946       48.254     2750.820     4753.500     2328.476        1.614        0.492      149.752       42.033        0.079      344.494       21.352      861.612
04/14/2014  18:14:00      -27.555      -60.843       13.639       80.543       76.743       48.895     6487.179     5889.506     2390.763        0.970        0.738       66.792       54.205        0.659      344.624       21.575      861.597
04/14/2014  18:15:00       31.857      -17.305       30.622       50.204       67.186       37.846     2520.464     4513.998     1432.314        0.536        0.423       36.254       34.850        0.924      344.090       20.662      861.604
04/14/2014  18:16:00        6.822       19.056       68.841       32.996       56.235       37.718     1088.748     3162.338     1422.671        0.541        0.284       20.240       23.906        1.395      343.991       20.494      861.605
04/14/2014  18:17:00       51.612      -84.083        0.570       55.434       61.435       42.225     3072.887     3774.251     1782.923        0.918        0.432       98.660       36.032        0.133      344.454       21.285      861.619
04/14/2014  18:18:00       12.098      -87.636       21.910       51.287       94.483       48.484     2630.399     8927.025     2350.657        1.110        0.695       88.467       43.272        0.239      344.733       21.760      861.630
04/14/2014  18:19:00       31.771      -53.592       22.963       63.760       77.154       48.444     4065.300     5952.786     2346.798        0.838        0.618       62.302       51.127        0.673      344.428       21.239      861.644
04/14/2014  18:20:00       94.878     -119.403      -12.449       50.354       45.833       31.858     2535.493     2100.631     1014.954        1.453        0.283      152.509       25.841        0.029      344.197       20.845      861.656
04/14/2014  18:21:00       53.427     -143.172      -24.185       45.414       52.667       35.809     2062.441     2773.823     1282.302        1.503        0.306      152.816       22.025        0.021      344.512       21.383      861.676
04/14/2014  18:22:00       42.692      -40.714       26.477       52.543       87.100       43.340     2760.734     7586.366     1878.379        0.820        0.611       58.993       56.278        0.910      344.576       21.493      861.679
04/14/2014  18:23:00      -60.000      -12.050        1.003       40.422       33.703       28.069     1633.969     1135.886      787.895        0.365        0.178       61.198       18.065        0.087      344.856       21.972      861.680
04/14/2014  18:24:00       -1.597       22.087        7.402       53.445       26.888       27.347     2856.395      722.979      747.883        0.244        0.216       22.144       27.664        1.561      343.904       20.346      861.677
04/14/2014  18:25:00       36.488        7.946       19.149       22.688       16.560       24.371      514.745      274.222      593.924        0.157        0.069       37.343       16.324        0.191      343.625       19.868      861.678
04/14/2014  18:26:00       33.723      -11.887       -0.507       18.586       18.176       12.712      345.423      330.362      161.600        0.106        0.042       35.756       11.041        0.095      343.915       20.363      861.685
04/14/2014  18:27:00       19.374       -4.032        3.398       18.667       25.795       16.211      348.458      665.362      262.803        0.084        0.064       19.789       13.631        0.474      344.208       20.864      861.687
04/14/2014  18:28:00       48.539       -3.238        3.102       25.392       23.039       17.579      644.747      530.786      309.007        0.193        0.074       48.647       14.782        0.092      344.419       21.224      861.680
04/14/2014  18:29:00       47.909      -43.274        6.765       35.393       51.706       26.368     1252.636     2673.472      695.288        0.442        0.231       64.560       24.200        0.141      344.054       20.599      861.673
04/14/2014  18:30:00       32.713      -98.062        6.254       51.286       60.128       21.234     2630.278     3615.373      450.898        0.871        0.335      103.374       13.286        0.017      344.428       21.240      861.675
04/14/2014  18:31:00      -41.722     -130.799        9.991       44.448       83.280       29.527     1975.632     6935.590      871.826        1.436        0.489      137.292       29.516        0.046      344.749       21.787      861.672
04/14/2014  18:32:00      -59.833      -51.781       16.822       61.026       58.407       26.020     3724.195     3411.356      677.061        0.718        0.391       79.129       30.519        0.149      344.804       21.881      861.669
04/14/2014  18:33:00      -72.142     -104.286      -11.195       46.100       39.008       27.216     2125.255     1521.652      740.728        1.030        0.219      126.807       18.062        0.020      344.736       21.767      861.680
04/14/2014  18:34:00      -45.293      -92.321       -1.538       52.858       68.261       27.299     2793.962     4659.527      745.247        0.939        0.410      102.833       17.363        0.029      344.737       21.767      861.686
04/14/2014  18:35:00      -76.190     -110.094       -6.237       50.454       70.885       30.244     2545.560     5024.633      914.674        1.322        0.424      133.886       36.399        0.074      344.624       21.573      861.687
04/14/2014  18:36:00      -34.000      -10.913       16.649       42.317       39.189       22.405     1790.689     1535.767      501.991        0.269        0.191       35.708       19.184        0.289      344.517       21.392      861.681
04/14/2014  18:37:00     -112.597      -56.227       -0.710       77.396       42.262       30.505     5990.186     1786.082      930.569        1.227        0.435      125.856       25.099        0.040      344.778       21.837      861.681
04/14/2014  18:38:00      -47.027      -66.716       13.450       99.578       55.712       49.207     9915.859     3103.795     2421.320        1.114        0.772       81.625       57.171        0.491      344.740       21.771      861.685
04/14/2014  18:39:00     -167.630     -178.128       -1.623       88.766       95.121       55.650     7879.443     9048.036     3096.868        3.992        1.001      244.601       56.430        0.053      344.693       21.689      861.694
04/14/2014  18:40:00     -167.302      -81.920       -2.846      121.392       93.837       53.366    14736.045     8805.448     2847.881        3.054        1.319      186.282       59.825        0.103      344.721       21.738      861.718
04/14/2014  18:41:00     -351.359      -57.999      -22.750      134.814       90.222       56.802    18174.741     8139.989     3226.464        7.843        1.477      356.114       63.751        0.032      344.651       21.617      861.732
04/14/2014  18:42:00     -289.530     -170.519        0.094      177.213      192.257       84.846    31404.547    36962.672     7198.822        9.422        3.778      336.012       78.730        0.055      344.566       21.474      861.714
04/14/2014  18:43:00     -366.507     -216.538       -4.836      216.248      163.010       95.589    46763.356    26572.184     9137.309       13.184        4.124      425.695      105.337        0.061      344.507       21.371      861.720
04/14/2014  18:44:00     -392.103     -235.851       -1.462      220.840      162.505       98.315    48770.145    26407.813     9665.788       14.709        4.242      457.571      110.889        0.059      344.430       21.239      861.711
04/14/2014  18:45:00     -375.444      -96.133       -1.620      224.667      165.840       76.666    50475.237    27503.015     5877.695       11.701        4.193      387.556       93.666        0.058      344.455       21.282      861.729
04/14/2014  18:46:00     -394.208     -151.531      -10.366      240.909      176.584       93.900    58037.367    31182.022     8817.299       13.823        4.902      422.328       86.402        0.042      344.437       21.253      861.716
04/14/2014  18:47:00     -411.606     -146.807       -6.124      247.144      198.637      101.953    61079.920    39456.566    10394.489       15.095        5.547      437.003      108.170        0.061      344.392       21.174      861.735
04/14/2014  18:48:00     -415.031     -208.543       -7.592      146.543      154.503       87.382    21474.896    23871.066     7635.641       13.438        2.649      464.479       78.583        0.029      344.366       21.132      861.740
04/14/2014  18:49:00     -322.187     -108.117      -12.125      221.114      142.836       78.823    48891.218    20402.233     6213.091        9.556        3.775      339.844       85.390        0.063      344.399       21.187      861.733
04/14/2014  18:50:00     -567.149     -209.718      -44.289      223.364      153.762       94.487    49891.506    23642.630     8927.869       22.502        4.123      604.682       98.033        0.026      344.287       20.994      861.732
04/14/2014  18:51:00     -298.864      -72.775       -3.961      185.014      129.825       80.495    34230.158    16854.564     6479.451        7.609        2.878      307.597       88.988        0.084      344.333       21.073      861.737
04/14/2014  18:52:00     -358.352     -168.120       -5.308      176.918      172.259       85.028    31300.061    29673.063     7229.741       11.244        3.410      395.829       90.229        0.052      344.309       21.033      861.735
04/14/2014  18:53:00     -241.806      -97.214       -8.058      182.921      160.504       77.981    33460.055    25761.406     6081.004        6.663        3.265      260.616       61.775        0.056      344.336       21.078      861.714
04/14/2014  18:54:00     -315.045      -81.186      -20.736      176.248      116.671       63.891    31063.501    13612.145     4082.015        7.751        2.438      325.337       58.327        0.032      344.270       20.967      861.749
04/14/2014  18:55:00     -326.241     -215.882       -7.569      233.835      149.050       91.536    54678.766    22215.886     8378.863       11.917        4.264      391.201      110.865        0.080      344.215       20.872      861.739
04/14/2014  18:56:00     -297.581     -117.307        4.498      193.835      159.085       69.451    37571.995    25308.031     4823.421        8.501        3.385      319.867       79.701        0.062      344.200       20.848      861.739
04/14/2014  18:57:00     -309.442      -71.355        8.320      187.481      125.583       89.051    35149.298    15771.171     7930.168        7.987        2.943      317.562       92.040        0.084      344.167       20.790      861.731
04/14/2014  18:58:00     -351.319      -61.692      -39.974      155.920      125.122       58.553    24311.156    15655.483     3428.463        8.610        2.170      356.694       58.821        0.027      344.171       20.795      861.744
04/14/2014  18:59:00     -327.318     -128.060        6.716      175.907      149.145       89.125    30943.446    22244.175     7943.212        9.234        3.057      351.477       77.843        0.049      344.097       20.671      861.736
04/14/2014  19:00:00     -415.119      -42.510      -16.110      194.658      136.858       80.716    37891.608    18730.215     6515.017       11.875        3.157      417.290      100.668        0.058      344.080       20.642      861.746
04/14/2014  19:01:00     -373.865      -69.997       -7.717      173.677      122.808       78.543    30163.627    15081.836     6168.955        9.806        2.571      380.361       82.528        0.047      344.066       20.618      861.734
04/14/2014  19:02:00     -259.849      -95.193       -7.930      161.649      105.770       65.723    26130.376    11187.382     4319.501        5.913        2.082      276.737       67.936        0.060      344.080       20.642      861.757
04/14/2014  19:03:00     -262.233     -164.668      -11.685      119.631      121.969       68.840    14311.481    14876.424     4738.937        6.497        1.696      309.648       59.081        0.036      344.077       20.636      861.753
04/14/2014  19:04:00     -435.298      -35.734      -19.075      143.097      131.102       65.987    20476.673    17187.643     4354.239       11.656        2.101      436.762       64.902        0.022      344.040       20.573      861.754
04/14/2014  19:05:00     -316.898     -182.834        1.288      217.571      128.727       87.455    47336.935    16570.516     7648.323       10.269        3.578      365.858      108.119        0.087      344.013       20.528      861.751
04/14/2014  19:06:00     -308.837      -30.063      -30.414      185.040      154.403       72.506    34239.692    23840.327     5257.156        8.026        3.167      310.297       72.099        0.054      344.025       20.547      861.736
04/14/2014  19:07:00     -196.354      -68.581       12.442      169.139      103.952       76.727    28607.850    10805.986     5886.998        4.435        2.265      207.986       88.957        0.183      343.954       20.428      861.753
04/14/2014  19:08:00     -393.201     -137.770       -6.533      238.960      185.308      100.640    57101.667    34339.095    10128.368       13.758        5.078      416.639      109.584        0.069      343.922       20.372      861.737
04/14/2014  19:09:00     -315.376      -59.228        8.394      201.050      135.426      103.162    40421.137    18340.085    10642.332        8.621        3.470      320.889      107.032        0.111      343.891       20.318      861.737
04/14/2014  19:10:00     -291.478      -32.056      -13.320      167.843      114.273       68.287    28171.292    13058.264     4663.137        6.602        2.295      293.235       82.828        0.080      343.882       20.304      861.755
04/14/2014  19:11:00     -185.389      -32.901       -6.213      138.102       89.180       55.231    19072.161     7953.085     3050.424        3.278        1.504      188.286       54.733        0.085      343.897       20.330      861.759
04/14/2014  19:12:00     -199.163     -121.281        9.140      156.761      142.031       79.412    24573.975    20172.843     6306.244        5.275        2.553      233.184       91.369        0.154      343.868       20.280      861.761
04/14/2014  19:13:00     -260.687     -208.772      -16.875      165.499      115.184       82.672    27389.951    13267.351     6834.669        7.965        2.375      333.981       83.004        0.062      343.852       20.252      861.772
04/14/2014  19:14:00     -343.926      -95.204      -28.407      182.075      126.781       63.097    33151.402    16073.332     3981.242        9.067        2.660      356.860       77.834        0.048      343.832       20.219      861.780
04/14/2014  19:15:00     -290.440     -115.781      -14.723      192.628      127.105       63.943    37105.358    16155.579     4088.673        7.765        2.867      312.667       68.345        0.048      343.801       20.166      861.792
04/14/2014  19:16:00     -297.591     -163.784       -9.420      204.277      120.234       65.923    41729.292    14456.255     4345.905        8.799        3.027      339.685       81.338        0.057      343.775       20.122      861.782
04/14/2014  19:17:00     -301.936     -141.969        3.806      196.313      149.206       85.433    38538.702    22262.497     7298.781        8.970        3.405      333.647       90.727        0.074      343.713       20.015      861.771
04/14/2014  19:18:00     -507.960     -189.372      -27.286      238.772      156.251       86.571    57011.839    24414.368     7494.468       19.176        4.446      542.112       78.401        0.021      343.645       19.898      861.757
04/14/2014  19:19:00     -378.931     -192.863      -15.600      190.560      146.343       83.632    36312.961    21416.363     6994.385       12.286        3.236      425.188       94.813        0.050      343.651       19.909      861.764
04/14/2014  19:20:00     -318.465     -201.703      -11.364      138.840      117.059       65.689    19276.632    13702.790     4314.999        8.976        1.865      376.967       68.692        0.033      343.629       19.871      861.774
04/14/2014  19:21:00     -302.098     -145.159        2.047      175.256      113.640       68.883    30714.704    12914.045     4744.862        8.035        2.419      335.163       76.756        0.052      343.624       19.863      861.781
04/14/2014  19:22:00     -315.561     -167.859        1.187      183.253      125.268       73.859    33581.764    15692.152     5455.084        9.123        2.736      357.429       67.601        0.036      343.581       19.791      861.770
04/14/2014  19:23:00     -278.564     -155.567      -21.769      195.934      105.255       71.563    38390.106    11078.527     5121.253        7.842        2.729      319.060       83.660        0.069      343.577       19.783      861.776
04/14/2014  19:24:00     -416.242     -222.644      -13.603      229.910      134.127       78.084    52858.793    17990.032     6097.111       14.996        3.847      472.046       93.670        0.039      343.523       19.692      861.782
04/14/2014  19:25:00     -610.596     -144.732      -33.115      203.247      134.171       95.308    41309.288    18001.878     9083.618       23.162        3.420      627.515       99.896        0.025      343.482       19.621      861.768
04/14/2014  19:26:00     -222.792      -99.905       21.406      219.301      151.130       95.140    48092.718    22840.314     9051.629        7.001        3.999      244.166      115.158        0.222      343.487       19.631      861.778
04/14/2014  19:27:00     -334.941     -143.929       -1.416      184.739      155.059       92.242    34128.408    24043.329     8508.630        9.978        3.334      364.556      103.282        0.080      343.459       19.583      861.815
04/14/2014  19:28:00     -295.266      -29.981       -2.692      239.866      127.606       68.680    57535.735    16283.208     4716.875        8.330        3.927      296.785       92.782        0.098      343.454       19.574      861.821
04/14/2014  19:29:00     -309.613     -142.699       -4.678      158.294      156.841       79.285    25056.867    24598.965     6286.051        8.608        2.797      340.915       84.029        0.061      343.428       19.530      861.831
04/14/2014  19:30:00     -452.742     -240.228       -8.784      210.717      160.293       92.059    44401.459    25693.772     8474.920       17.065        3.929      512.528      108.337        0.045      343.412       19.504      861.833
04/14/2014  19:31:00     -404.889     -276.522      -19.737      208.242      152.340      107.334    43364.809    23207.324    11520.512       15.943        3.905      490.306      110.677        0.051      343.386       19.457      861.827
04/14/2014  19:32:00     -312.913     -217.832      -12.235      129.947      123.147       74.011    16886.104    15165.168     5477.604        9.151        1.876      381.268       78.334        0.042      343.380       19.447      861.858
04/14/2014  19:33:00     -267.124     -248.973        9.008      215.936      200.226       90.721    46628.548    40090.323     8230.280       11.417        4.747      365.162      120.021        0.108      343.349       19.396      861.864
04/14/2014  19:34:00     -413.716     -342.957      -32.017      225.673      188.710      113.839    50928.082    35611.648    12959.329       19.463        4.975      537.383      131.537        0.060      343.332       19.366      861.868
04/14/2014  19:35:00     -364.048     -196.205        2.188      203.014      173.868       86.845    41214.649    30230.011     7542.088       12.499        3.949      413.555       99.171        0.058      343.318       19.340      861.906
04/14/2014  19:36:00     -424.558     -246.250      -27.158      234.296      200.717      104.414    54894.636    40287.301    10902.335       17.383        5.304      490.804      120.063        0.060      343.282       19.281      861.909
04/14/2014  19:37:00     -200.651     -125.996        8.614      171.581      124.433       85.662    29440.077    15483.488     7337.942        5.423        2.613      236.930       92.300        0.152      343.282       19.281      861.945
04/14/2014  19:38:00     -156.516     -117.629       19.402      186.873      162.322       83.206    34921.514    26348.544     6923.302        5.344        3.410      195.790       97.965        0.250      343.240       19.210      861.964
04/14/2014  19:39:00     -241.287     -126.201        4.247      210.117      171.240       85.784    44148.952    29322.993     7358.824        7.748        4.042      272.298      105.329        0.150      343.190       19.124      861.974
04/14/2014  19:40:00     -354.455     -132.918      -11.836      208.254      152.083       98.946    43369.877    23129.283     9790.274       10.985        3.814      378.557      112.701        0.089      343.220       19.174      862.003
04/14/2014  19:41:00     -412.065      -67.580       -1.677      186.566      138.966       89.980    34806.894    19311.592     8096.370       11.828        3.111      417.570       92.696        0.049      343.214       19.164      862.015
04/14/2014  19:42:00     -311.623     -204.483      -14.869      199.523      174.203      103.408    39809.383    30346.615    10693.309       10.998        4.042      372.723      109.791        0.087      343.183       19.112      862.012
04/14/2014  19:43:00     -389.716     -214.253      -23.073      240.597      212.481      116.539    57887.038    45148.012    13581.314       15.744        5.831      444.728      131.565        0.088      343.135       19.029      862.035
04/14/2014  19:44:00     -410.756     -106.587        1.216      212.023      131.359       79.368    44953.674    17255.267     6299.256       12.428        3.425      424.359       88.691        0.044      343.132       19.025      862.058
04/14/2014  19:45:00     -416.965     -170.118       -6.613      253.418      219.900      102.548    64220.720    48356.143    10515.993       16.294        6.155      450.333      120.386        0.071      343.131       19.023      862.061
04/14/2014  19:46:00     -605.547     -304.162        1.434      293.332      226.551      116.681    86043.815    51325.318    13614.369       30.506        7.549      677.644      140.557        0.043      343.090       18.951      862.043
04/14/2014  19:47:00     -464.836     -284.679      -13.061      289.447      212.894      119.143    83779.603    45323.929    14195.058       22.026        7.165      545.082      140.204        0.066      343.091       18.955      862.064
04/14/2014  19:48:00     -514.172     -269.496      -33.936      239.985      196.273      103.548    57592.826    38522.903    10722.280       22.247        5.342      580.518       65.052        0.013      343.060       18.902      862.070
04/14/2014  19:49:00     -383.670     -124.498      -11.623      226.406      196.870      100.296    51259.752    38757.812    10059.242       13.144        5.004      403.364      100.143        0.062      343.046       18.878      862.078
04/14/2014  19:50:00     -457.184     -192.459       -5.462      245.730      162.192       95.251    60383.369    26306.247     9072.660       17.091        4.788      496.042      110.464        0.050      343.013       18.823      862.088
04/14/2014  19:51:00     -373.162     -209.884       -8.538      205.497      207.666      109.767    42229.096    43125.173    12048.876       14.037        4.870      428.137      116.113        0.074      342.999       18.799      862.081
04/14/2014  19:52:00     -257.324     -202.681        2.417      201.547      197.202       96.797    40621.161    38888.481     9369.664        9.807        4.444      327.560       94.998        0.084      342.982       18.769      862.089
04/14/2014  19:53:00     -349.390     -191.847      -25.829      178.038      149.454       76.256    31697.487    22336.603     5814.913       10.969        2.992      398.596       82.263        0.043      342.977       18.761      862.083
04/14/2014  19:54:00     -304.555      -91.246      -16.218      225.729      177.027       76.482    50953.392    31338.503     5849.444        9.472        4.407      317.930       81.168        0.065      342.949       18.714      862.107
04/14/2014  19:55:00     -396.820     -129.157      -13.135      173.294      161.405       78.476    30030.922    26051.491     6158.538       11.827        3.112      417.310       75.504        0.033      342.936       18.692      862.113
04/14/2014  19:56:00     -331.943      -72.302      -14.422      228.569      139.017       85.794    52243.613    19325.748     7360.531        9.726        3.946      339.726      107.650        0.100      342.905       18.639      862.123
04/14/2014  19:57:00     -307.741     -141.888      -10.558      164.561      115.234       74.359    27080.344    13278.927     5529.311        8.041        2.294      338.875       75.976        0.050      342.942       18.700      862.120
04/14/2014  19:58:00     -332.454     -190.146      -16.877      147.578      155.231       75.412    21779.173    24096.640     5686.990        9.925        2.578      382.989       77.910        0.041      342.892       18.617      862.125
04/14/2014  19:59:00     -331.405     -153.085       -5.404      163.305      137.806       70.658    26668.400    18990.498     4992.569        9.196        2.533      365.053       65.954        0.033      342.865       18.570      862.134
04/14/2014  20:00:00     -219.175     -117.005        7.671      176.273      120.153       76.724    31072.319    14436.639     5886.615        5.658        2.570      248.451       88.189        0.126      342.863       18.567      862.137
04/14/2014  20:01:00     -223.759     -108.407        4.740      200.954      150.207       99.640    40382.438    22562.178     9928.221        6.734        3.644      248.636      105.947        0.182      342.863       18.568      862.142
04/14/2014  20:02:00     -313.640     -137.006      -11.780      231.219      127.075       76.502    53462.038    16148.159     5852.489        9.636        3.773      342.259      101.265        0.088      342.819       18.492      862.153
04/14/2014  20:03:00     -455.816      -95.093      -21.497      252.195      177.163       90.122    63602.455    31386.798     8122.005       16.017        5.156      465.629      109.031        0.055      342.799       18.460      862.176
04/14/2014  20:04:00     -344.377      -59.606       -1.621      174.523      170.871       79.864    30458.370    29196.869     6378.294        9.408        3.302      349.497       85.968        0.061      342.782       18.430      862.204
04/14/2014  20:05:00     -483.786     -106.726      -25.524      209.995      166.037       79.772    44098.036    27568.146     6363.639       16.204        3.901      495.418       91.683        0.034      342.781       18.427      862.218
04/14/2014  20:06:00     -189.700      -96.163       23.630      256.380      142.248       97.501    65730.688    20234.416     9506.414        7.061        4.774      212.682      117.985        0.308      342.771       18.410      862.225
04/14/2014  20:07:00     -334.187     -193.197       -9.303      220.558      186.781       94.825    48645.991    34887.104     8991.772       12.079        4.626      386.013      107.158        0.077      342.756       18.386      862.235
04/14/2014  20:08:00     -520.433     -119.545      -32.348      255.414      226.061      115.972    65236.554    51103.421    13449.613       20.796        6.489      533.986      136.651        0.065      342.728       18.337      862.203
04/14/2014  20:09:00     -332.965     -198.502        0.525      272.763      211.731       86.419    74399.904    44830.119     7468.290       13.846        6.335      387.645      129.196        0.111      342.712       18.310      862.245
04/14/2014  20:10:00     -283.322     -180.550       -7.156      211.077      187.825       86.123    44553.500    35278.103     7417.104       10.007        4.362      335.960      108.520        0.104      342.697       18.286      862.250
04/14/2014  20:11:00     -386.396       -3.698      -20.686      192.185      132.580       82.935    36935.143    17577.522     6878.282       10.556        3.070      386.414       82.345        0.045      342.660       18.221      862.274
04/14/2014  20:12:00     -238.928      -66.866        4.068      156.002      129.111       72.299    24336.573    16669.593     5227.173        5.389        2.312      248.108       84.473        0.116      342.628       18.168      862.289
04/14/2014  20:13:00     -242.547      -84.501       -8.860      199.276      156.313       87.326    39710.740    24433.628     7625.894        6.889        3.589      256.845      103.595        0.163      342.635       18.179      862.301
04/14/2014  20:14:00     -297.454      -27.919       -0.693      156.184      148.111       79.934    24393.359    21936.959     6389.457        7.098        2.636      298.762       83.720        0.079      342.626       18.164      862.320
04/14/2014  20:15:00     -420.555      -15.624      -28.460      189.624      166.480       79.666    35957.197    27715.611     6346.631       12.396        3.501      420.845       86.113        0.042      342.617       18.147      862.320
04/14/2014  20:16:00     -281.629      -16.992       11.839      190.367      135.536       88.162    36239.591    18370.037     7772.466        7.105        3.119      282.141       92.207        0.107      342.593       18.109      862.330
04/14/2014  20:17:00     -268.861     -122.522      -13.164      188.449      147.163       80.680    35512.933    21657.042     6509.208        7.556        3.184      295.462       93.933        0.101      342.599       18.120      862.337
04/14/2014  20:18:00     -301.210      -93.759       12.988      278.622      200.264      103.260    77630.271    40105.789    10662.728       11.402        6.420      315.466      120.595        0.146      342.601       18.122      862.339
04/14/2014  20:19:00     -339.873     -159.785       12.119      268.264      232.696      114.334    71965.757    54147.643    13072.361       14.016        6.959      375.560      148.642        0.157      342.573       18.074      862.362
04/14/2014  20:20:00     -420.116     -113.981      -11.411      211.188      138.360       73.017    44600.296    19143.597     5331.524       12.933        3.454      435.303       92.132        0.045      342.590       18.103      862.379
04/14/2014  20:21:00     -551.509     -133.496      -10.955      255.263      203.364      109.717    65159.335    41357.078    12037.753       22.030        5.928      567.435      112.422        0.039      342.555       18.042      862.383
04/14/2014  20:22:00     -288.513      -63.415      -14.102      170.549      131.472       78.898    29087.103    17284.756     6224.933        7.002        2.630      295.401       79.122        0.072      342.562       18.056      862.423
04/14/2014  20:23:00     -273.236      -77.991      -12.663      208.476      148.928       71.455    43462.400    22179.427     5105.877        7.581        3.537      284.148       84.328        0.088      342.539       18.018      862.449
04/14/2014  20:24:00     -359.141      -80.723      -16.515      197.358      127.518       75.855    38950.265    16260.892     5753.976        9.836        3.048      368.101       85.467        0.054      342.499       17.949      862.441
04/14/2014  20:25:00     -539.593     -102.592      -38.136      201.950      168.359       85.467    40783.657    28344.878     7304.531       18.977        3.822      549.259       93.679        0.029      342.468       17.895      862.455
04/14/2014  20:26:00     -470.691      -38.654      -26.765      156.514      136.611       72.260    24496.602    18662.682     5221.540       13.606        2.419      472.276       78.855        0.028      342.451       17.865      862.445
04/14/2014  20:27:00     -272.561     -104.142       -8.614      169.872      114.068       61.661    28856.378    13011.495     3802.094        6.543        2.283      291.779       78.283        0.072      342.436       17.841      862.445
04/14/2014  20:28:00     -373.672       15.548       -4.026      163.946      133.449       87.967    26878.156    17808.641     7738.157        9.615        2.621      373.995       85.197        0.052      342.415       17.806      862.462
04/14/2014  20:29:00     -374.008      -44.618      -13.961      189.690      129.121       69.725    35982.430    16672.239     4861.610        9.978        2.876      376.660       60.637        0.026      342.410       17.799      862.471
04/14/2014  20:30:00     -434.452      -62.542      -17.455      205.049      127.580       78.790    42045.064    16276.572     6207.938       12.873        3.226      438.931       90.133        0.042      342.402       17.783      862.492
04/14/2014  20:31:00     -495.407     -151.597      -12.180      253.856      197.989       98.425    64442.994    39199.808     9687.566       19.092        5.667      518.082      101.512        0.038      342.424       17.821      862.459
04/14/2014  20:32:00     -431.207     -203.344      -26.849      192.239      168.180       80.522    36955.874    28284.481     6483.814       14.985        3.586      476.747       84.757        0.032      342.436       17.840      862.464
04/14/2014  20:33:00     -377.018      -96.634      -10.743      168.022      167.409       75.084    28231.344    28025.693     5637.677       10.673        3.095      389.205       76.424        0.039      342.411       17.799      862.468
04/14/2014  20:34:00     -364.649      -84.547      -12.052      182.246      149.147       86.707    33213.628    22244.837     7518.166       10.161        3.149      374.322       89.871        0.058      342.405       17.788      862.478
04/14/2014  20:35:00     -221.381      -80.302        7.008      170.202      140.823       86.481    28968.578    19831.187     7478.959        5.588        2.814      235.495       78.437        0.111      342.373       17.735      862.495
04/14/2014  20:36:00     -407.552      -31.564        0.276      196.847      148.843       97.485    38748.704    22154.127     9503.242       11.874        3.520      408.772       98.125        0.058      342.367       17.723      862.496
04/14/2014  20:37:00     -370.394      -78.921      -18.151      195.165      160.265       96.149    38089.523    25684.833     9244.609       10.837        3.651      378.708       97.050        0.066      342.404       17.788      862.507
04/14/2014  20:38:00     -280.948      -29.892        6.144      186.285      156.848       81.929    34702.007    24601.346     6712.380        7.293        3.301      282.533       92.017        0.106      342.378       17.742      862.512
04/14/2014  20:39:00     -408.398     -210.454      -14.906      247.970      204.455      110.359    61488.913    41802.049    12179.032       16.336        5.773      459.435      121.160        0.070      342.365       17.721      862.513
04/14/2014  20:40:00     -322.457      -66.875       -5.914      209.381      170.712       83.934    43840.319    29142.612     7044.955        9.424        4.001      329.319       96.937        0.087      342.338       17.674      862.511
04/14/2014  20:41:00     -327.273      -55.518      -19.362      174.402      120.810       80.239    30416.202    14595.105     6438.247        8.100        2.572      331.949       80.035        0.058      342.330       17.661      862.553
04/14/2014  20:42:00     -390.294      -29.877        3.889      321.929      176.501      108.414   103638.017    31152.758    11753.538       14.986        7.327      391.436      151.823        0.150      342.306       17.620      862.536
04/14/2014  20:43:00     -412.672     -133.960      -17.575      263.141      164.314       95.681    69243.233    26999.165     9154.800       14.695        5.270      433.871      110.603        0.065      342.301       17.612      862.574
04/14/2014  20:44:00     -437.503     -134.573      -21.999      222.681      157.727       85.130    49587.022    24877.723     7247.092       14.584        4.086      457.732      108.739        0.056      342.285       17.584      862.576
04/14/2014  20:45:00     -406.199      -12.601       -2.209      227.548      175.914       91.086    51778.304    30945.888     8296.624       12.807        4.551      406.395       99.516        0.060      342.256       17.535      862.607
04/14/2014  20:46:00     -495.572      -16.134       -1.987      189.745      180.219       83.553    36003.070    32478.799     6981.154       16.064        3.773      495.834       79.103        0.025      342.255       17.534      862.616
04/14/2014  20:47:00     -498.506      -65.360      -21.540      173.354      222.681       91.730    30051.539    49586.905     8414.478       17.063        4.403      502.772       91.725        0.033      342.256       17.534      862.641
04/14/2014  20:48:00     -441.215     -139.340       -3.819      191.418      193.773       76.953    36640.901    37548.009     5921.700       14.709        4.006      462.695       93.793        0.041      342.222       17.477      862.653
04/14/2014  20:49:00     -426.096      -93.145       -3.231      328.112      210.755      118.406   107657.461    44417.850    14020.050       17.814        8.305      436.158      144.279        0.109      342.207       17.452      862.647
04/14/2014  20:50:00     -362.034      -68.197       -9.103      223.964      152.778      102.046    50159.993    23341.163    10413.320       10.984        4.196      368.402      107.938        0.086      342.201       17.442      862.646
04/14/2014  20:51:00     -250.770      -76.283        1.419      180.386      132.558       82.908    32538.962    17571.700     6873.677        6.283        2.849      262.116       95.309        0.132      342.215       17.467      862.637
04/14/2014  20:52:00     -263.223     -122.490       14.542      196.359      175.266       92.620    38556.870    30718.321     8578.512        8.116        3.893      290.328      105.837        0.133      342.207       17.451      862.645
04/14/2014  20:53:00     -374.229     -133.833       -0.354      266.208      206.224      111.438    70866.473    42528.419    12418.392       14.186        6.291      397.440      117.138        0.087      342.179       17.404      862.651
04/14/2014  20:54:00     -442.866      -41.505       -5.311      260.276      198.342      106.831    67743.768    39339.399    11412.824       15.816        5.925      444.806      125.499        0.080      342.141       17.339      862.695
04/14/2014  20:55:00     -405.480      -83.696      -25.388      152.324      203.292       95.237    23202.729    41327.698     9070.052       12.282        3.680      414.028       87.173        0.044      342.167       17.384      862.735
04/14/2014  20:56:00     -395.317     -145.231      -10.200      226.731      272.639       93.143    51407.155    74332.042     8675.594       15.592        6.721      421.150      105.255        0.062      342.141       17.340      862.731
04/14/2014  20:57:00     -319.380      -99.336       -9.180      227.489      203.650       95.475    51751.048    41473.257     9115.564       10.713        5.117      334.471      111.824        0.112      342.146       17.349      862.770
04/14/2014  20:58:00     -384.710     -123.656       -3.351      205.966      155.106       94.273    42422.164    24057.851     8887.319       11.932        3.768      404.095       96.718        0.057      342.129       17.321      862.793
04/14/2014  20:59:00     -333.572      -36.266      -17.008      180.597      140.207       88.319    32615.364    19657.943     7800.293        8.646        3.004      335.537       95.121        0.080      342.111       17.290      862.836
04/14/2014  21:00:00     -282.926     -159.453       -1.894      211.684      188.551      107.898    44810.232    35551.370    11642.076        9.872        4.600      324.765      120.501        0.138      342.111       17.288      862.832
04/14/2014  21:01:00     -389.930      -30.776      -21.764      254.162      139.387       88.860    64598.383    19428.662     7896.122       12.268        4.596      391.142      111.132        0.081      342.107       17.281      862.859
04/14/2014  21:02:00     -283.236      -33.799       -3.933      245.485      143.799       82.690    60262.986    20678.138     6837.683        8.456        4.389      285.246       89.232        0.098      342.088       17.252      862.851
04/14/2014  21:03:00     -476.593      -55.872      -20.466      197.501      249.192       84.504    39006.607    62096.499     7140.856       16.944        5.412      479.857       95.151        0.039      342.100       17.271      862.866
04/14/2014  21:04:00     -443.086      -92.049       -0.335      239.238      194.454       97.381    57234.937    37812.452     9483.013       15.464        5.227      452.546      108.674        0.058      342.074       17.226      862.870
04/14/2014  21:05:00     -433.943     -247.971       -8.170      242.632      198.339      113.205    58870.516    39338.417    12815.328       18.042        5.551      499.797      120.430        0.058      342.071       17.221      862.878
04/14/2014  21:06:00     -372.989     -183.269       -6.781      227.251      204.586      119.266    51643.183    41855.342    14224.328       14.022        5.386      415.582      127.591        0.094      342.073       17.225      862.903
04/14/2014  21:07:00     -369.308     -148.773       -7.480      213.605      194.217       89.568    45627.059    37720.181     8022.430       12.496        4.568      398.148      100.844        0.064      342.068       17.217      862.895
04/14/2014  21:08:00     -465.829     -136.908      -15.607      174.070      165.865       83.470    30300.279    27511.080     6967.194       15.037        3.239      485.532       89.963        0.034      342.044       17.175      862.902
04/14/2014  21:09:00     -412.664     -156.325      -21.551      184.410      226.224      104.881    34007.091    51177.139    10999.964       14.567        4.809      441.281       94.271        0.046      342.035       17.159      862.907
04/14/2014  21:10:00     -340.188      -23.580      -14.946      234.969      136.885       86.690    55210.237    18737.470     7515.081        9.897        4.073      341.004       99.768        0.086      342.035       17.159      862.934
04/14/2014  21:11:00     -430.453     -153.065      -18.775      205.438      188.088       91.033    42204.593    35377.032     8286.943       14.745        4.293      456.857       91.058        0.040      342.023       17.140      862.940
04/14/2014  21:12:00     -529.462     -153.399      -15.957      204.481      176.347       85.956    41812.354    31098.353     7388.378       19.219        4.015      551.236       89.242        0.026      341.998       17.096      862.960
04/14/2014  21:13:00     -260.626      -63.842       13.108      188.423      164.610       90.852    35503.286    27096.321     8254.129        7.150        3.543      268.331      101.814        0.144      341.989       17.082      862.974
04/14/2014  21:14:00     -298.817     -113.503       18.117      245.782      159.242       97.922    60408.636    25357.918     9588.660        9.891        4.768      319.648      127.383        0.159      341.989       17.083      862.995
04/14/2014  21:15:00     -437.630     -240.814      -17.270      320.635      258.585      124.279   102806.740    66866.024    15445.325       21.743        9.256      499.511      143.159        0.082      341.992       17.087      862.961
04/14/2014  21:16:00     -485.107     -107.257      -16.156      240.702      204.631      106.524    57937.624    41873.674    11347.430       17.910        5.558      496.823      126.350        0.065      341.998       17.096      863.005
04/14/2014  21:17:00     -498.165      -94.617      -23.908      202.584      177.238       89.703    41040.424    31413.394     8046.563       16.908        4.025      507.070       96.364        0.036      341.996       17.094      863.038
04/14/2014  21:18:00     -456.871      -45.251      -11.320      235.504      188.885       86.471    55461.954    35677.622     7477.253       15.474        4.931      459.106       99.544        0.047      342.015       17.125      863.038
04/14/2014  21:19:00     -257.712     -149.972       -2.761      165.851      121.090       72.555    27506.392    14662.817     5264.298        6.816        2.372      298.173       71.388        0.057      342.022       17.138      863.045
04/14/2014  21:20:00     -435.596      -88.161      -20.366      226.224      191.079       93.116    51177.320    36511.057     8670.517       14.713        4.818      444.428       85.713        0.037      342.009       17.116      863.059
04/14/2014  21:21:00     -605.269      -84.578      -23.434      261.298      210.136      106.682    68276.561    44157.229    11381.152       24.891        6.191      611.150      134.288        0.048      341.952       17.019      863.073
04/14/2014  21:22:00     -398.900     -103.298      -13.670      204.058      159.768       93.130    41639.581    25525.786     8673.117       12.289        3.792      412.057       93.882        0.052      341.956       17.025      863.075
04/14/2014  21:23:00     -414.309      -30.967        5.467      235.364      144.362       94.405    55396.399    20840.365     8912.274       12.888        4.257      415.465      113.660        0.075      341.945       17.006      863.097
04/14/2014  21:24:00     -360.222      -51.413       -1.908      197.480      160.470       88.505    38998.526    25750.614     7833.151       10.248        3.629      363.872       83.338        0.052      341.943       17.004      863.131
04/14/2014  21:25:00     -292.579      -92.847        8.617      209.626      165.508       88.256    43942.886    27392.939     7789.078        8.669        3.956      306.958      102.553        0.112      341.926       16.975      863.162
04/14/2014  21:26:00     -358.650      -31.387      -22.588      207.969      176.587       82.824    43251.046    31183.106     6859.819       10.569        4.065      360.021       91.633        0.065      341.907       16.943      863.178
04/14/2014  21:27:00     -273.371     -110.305      -10.450      180.673      148.337      105.116    32642.878    22003.817    11049.287        7.634        3.285      294.786       95.659        0.105      341.921       16.967      863.191
04/14/2014  21:28:00     -627.153      -73.844      -49.307      304.323      192.353      104.791    92612.594    36999.541    10981.064       27.087        7.030      631.486      135.043        0.046      341.914       16.954      863.205
04/14/2014  21:29:00     -421.285      -80.218      -18.910      256.777      159.565       84.027    65934.644    25461.080     7060.503       14.134        4.923      428.854      101.488        0.056      341.893       16.921      863.235
04/14/2014  21:30:00     -398.100     -113.427      -20.212      269.787      147.966       92.559    72785.039    21893.939     8567.221       13.748        5.162      413.944      113.589        0.075      341.867       16.874      863.268
04/14/2014  21:31:00     -411.955      -36.232      -23.865      190.799      140.122       86.790    36404.191    19634.067     7532.423       11.757        3.179      413.545       94.743        0.052      341.846       16.838      863.286
04/14/2014  21:32:00     -383.050      -48.991      -11.974      169.460      115.264       65.550    28716.691    13285.847     4296.775        9.778        2.315      386.170       79.586        0.042      341.813       16.782      863.308
04/14/2014  21:33:00     -381.181      -69.888      -10.204      211.624      134.911       86.400    44784.695    18201.066     7464.900       11.036        3.523      387.535       97.931        0.064      341.839       16.826      863.332
04/14/2014  21:34:00     -319.749       -2.612      -10.932      230.392      117.789       76.276    53080.586    13874.144     5818.091        8.755        3.639      319.759      106.662        0.111      341.790       16.744      863.357
04/14/2014  21:35:00     -438.903      -89.663      -31.339      201.528      183.402      104.289    40613.541    33636.320    10876.222       14.337        4.256      447.968      108.122        0.058      341.798       16.755      863.342
04/14/2014  21:36:00     -329.852     -113.139      -13.311      165.438      147.516       90.757    27369.765    21761.029     8236.868        8.956        2.868      348.716       90.651        0.068      341.787       16.739      863.362
04/14/2014  21:37:00     -452.750     -120.370      -19.232      124.477      137.183       73.598    15494.632    18819.280     5416.599       12.978        1.987      468.477       58.659        0.016      341.773       16.714      863.382
04/14/2014  21:38:00     -410.957     -131.663      -15.656      132.445      115.671       63.479    17541.587    13379.685     4029.532       11.070        1.748      431.533       67.784        0.025      341.759       16.690      863.388
04/14/2014  21:39:00     -367.579      -39.907       -2.019      200.774      129.164       75.429    40310.231    16683.387     5689.553        9.968        3.134      369.739       86.760        0.055      341.733       16.647      863.396
04/14/2014  21:40:00     -499.291     -126.434      -19.981      216.338      115.091       70.749    46801.964    13245.833     5005.373       16.535        3.253      515.051       88.702        0.030      341.755       16.683      863.382
04/14/2014  21:41:00     -370.958      -29.949      -19.880      196.902      156.606       61.442    38770.461    24525.478     3775.073       10.297        3.354      372.165       69.393        0.035      341.773       16.715      863.401
04/14/2014  21:42:00     -333.301      -71.152       -3.292      147.374      136.390       67.215    21719.013    18602.326     4517.803        8.049        2.242      340.811       60.407        0.031      341.737       16.654      863.400
04/14/2014  21:43:00     -315.235      -79.937      -13.637      142.721      127.712       72.890    20369.251    16310.394     5312.990        7.396        2.100      325.212       69.383        0.046      341.748       16.671      863.383
04/14/2014  21:44:00     -311.996      -46.145       25.144      213.886      142.772       86.786    45747.389    20383.942     7531.844        8.687        3.683      315.390      109.588        0.121      341.745       16.667      863.393
04/14/2014  21:45:00     -419.397      -90.246      -30.679      173.474      147.106       80.502    30093.135    21640.205     6480.620       12.159        2.911      428.997       87.497        0.042      341.776       16.718      863.408
04/14/2014  21:46:00     -371.823      -46.162       -9.099      206.486      175.259       97.315    42636.501    30715.849     9470.182       11.163        4.141      374.678       91.257        0.059      341.762       16.696      863.427
04/14/2014  21:47:00     -322.669      -24.833       -6.910      153.181      133.158       73.640    23464.316    17731.005     5422.791        7.569        2.331      323.623       80.176        0.061      341.760       16.692      863.431
04/14/2014  21:48:00     -351.076     -117.101       -2.546      214.602      160.733       75.845    46053.923    25834.949     5752.531       10.729        3.882      370.091      104.581        0.080      341.746       16.668      863.432
04/14/2014  21:49:00     -234.415        8.331       10.288      128.114       99.086       69.536    16413.150     9817.962     4835.268        4.309        1.553      234.563       73.834        0.099      341.772       16.714      863.445
04/14/2014  21:50:00     -352.564     -104.033      -10.734      225.513      120.615       81.089    50855.952    14548.090     6575.452       10.359        3.599      367.593      109.169        0.088      341.779       16.723      863.443
04/14/2014  21:51:00     -332.073      -71.293       -6.137      199.828      157.670       90.381    39931.127    24859.892     8168.755        9.416        3.648      339.640       73.123        0.046      341.789       16.741      863.444
04/14/2014  21:52:00     -513.548      -81.345      -35.772      176.058      149.371       92.035    30996.285    22311.658     8470.479       16.669        3.089      519.950       98.384        0.036      341.765       16.701      863.463
04/14/2014  21:53:00     -261.154      -86.797        1.422      160.045      109.742       65.215    25614.422    12043.241     4253.026        5.882        2.096      275.200       77.520        0.079      341.723       16.629      863.459
04/14/2014  21:54:00     -268.291      -31.745       -5.643      209.416      104.006       65.477    43855.102    10817.199     4287.241        6.598        2.948      270.163       87.323        0.104      341.713       16.613      863.461
04/14/2014  21:55:00     -320.797      -63.706       -4.436      210.365      176.434       80.998    44253.620    31129.014     6560.755        9.445        4.097      327.062       85.687        0.069      341.684       16.566      863.469
04/14/2014  21:56:00     -356.755      -60.966      -15.252      185.739      158.755       72.814    34499.108    25203.193     5301.853        9.810        3.250      361.926       82.731        0.052      341.708       16.604      863.447
04/14/2014  21:57:00     -412.177     -132.997       -6.102      150.529      132.825       69.606    22658.868    17642.488     4844.982       11.637        2.257      433.103       62.535        0.021      341.724       16.632      863.441
04/14/2014  21:58:00     -375.196      -79.901      -11.829      173.383      159.420       82.976    30061.611    25414.584     6885.003       10.482        3.118      383.610       79.020        0.042      341.732       16.645      863.438
04/14/2014  21:59:00     -277.376      -28.716       19.477      142.823      149.762       86.054    20398.448    22428.634     7405.259        6.418        2.512      278.859       93.973        0.114      341.703       16.596      863.435
04/14/2014  22:00:00     -535.356     -117.181      -22.415      240.376      127.656      100.088    57780.826    16296.163    10017.548       19.245        4.205      548.030      110.137        0.040      341.724       16.631      863.449
04/14/2014  22:01:00     -331.700      -73.755        4.441      211.455      131.443       72.347    44713.112    17277.292     5234.038        9.134        3.361      339.800       93.555        0.076      341.739       16.658      863.458
04/14/2014  22:02:00     -233.441      -53.997       12.120      140.105       97.469       63.190    19629.525     9500.151     3993.020        4.533        1.656      239.604       70.095        0.086      341.716       16.619      863.468
04/14/2014  22:03:00     -224.294     -104.507       -7.453      158.293      129.314       67.792    25056.759    16722.003     4595.802        5.382        2.319      247.446       69.935        0.080      341.717       16.620      863.471
04/14/2014  22:04:00     -326.444      -23.227       -8.661      125.743      105.808       64.143    15811.408    11195.286     4114.276        6.914        1.556      327.269       56.923        0.030      341.698       16.588      863.480
04/14/2014  22:05:00     -392.547       -3.268      -20.126      157.189      100.393       63.486    24708.518    10078.688     4030.513        9.666        1.941      392.561       74.882        0.036      341.717       16.620      863.482
04/14/2014  22:06:00     -436.916      -82.346      -29.954      158.713      148.803       79.700    25189.837    22142.402     6352.121       12.612        2.684      444.608       81.611        0.034      341.697       16.587      863.473
04/14/2014  22:07:00     -348.620      -61.459       -4.029      165.247      145.540       79.452    27306.551    21181.985     6312.685        9.005        2.740      353.995       80.069        0.051      341.677       16.553      863.464
04/14/2014  22:08:00     -271.342      -28.611       -8.631      131.565       89.900       63.900    17309.236     8082.025     4083.259        5.199        1.474      272.846       67.968        0.062      341.658       16.522      863.474
04/14/2014  22:09:00     -491.999     -200.634      -31.199      164.805      128.319       72.982    27160.729    16465.639     5326.328       16.611        2.448      531.335       72.889        0.019      341.678       16.554      863.447
04/14/2014  22:10:00     -384.330      -82.277      -14.045      153.739      121.949       75.199    23635.610    14871.559     5654.946        9.941        2.208      393.038       83.845        0.046      341.656       16.517      863.436
04/14/2014  22:11:00     -481.596      -76.559       -0.635      207.147      132.568       86.929    42909.717    17574.295     7556.627       15.290        3.402      487.643       91.011        0.035      341.734       16.648      863.405
04/14/2014  22:12:00     -271.572      -53.135        3.837      114.664       98.769       62.372    13147.924     9755.291     3890.241        5.169        1.340      276.721       59.160        0.046      341.656       16.518      863.421
04/14/2014  22:13:00     -438.290      -87.555       -5.020      159.113      119.509       81.923    25316.884    14282.476     6711.366       12.304        2.316      446.950       82.775        0.034      341.705       16.601      863.421
04/14/2014  22:14:00     -386.817      -76.255      -24.064      128.158      113.050       70.163    16424.548    12780.215     4922.914        9.507        1.706      394.262       59.262        0.023      341.702       16.595      863.422
04/14/2014  22:15:00     -281.780     -116.412       -5.336      196.594      174.598       86.545    38649.384    30484.568     7490.001        8.479        3.831      304.880      102.311        0.113      341.677       16.553      863.403
04/14/2014  22:16:00     -284.849      -78.962       -2.191      153.592       85.369       62.967    23590.463     7287.862     3964.879        6.110        1.742      295.591       74.382        0.063      341.623       16.461      863.420
04/14/2014  22:17:00     -294.950      -87.570      -15.375      148.394      127.217       55.737    22020.847    16184.109     3106.579        6.810        2.066      307.675       66.449        0.047      341.671       16.544      863.419
04/14/2014  22:18:00     -472.620     -127.636      -37.750      162.684      103.883       61.805    26466.052    10791.770     3819.868       14.107        2.054      489.551       63.490        0.017      341.702       16.594      863.407
04/14/2014  22:19:00     -318.390      -44.367        0.406      158.258       98.500       67.540    25045.525     9702.249     4561.697        7.132        1.965      321.466       69.078        0.046      341.710       16.609      863.405
04/14/2014  22:20:00     -259.677      -59.990        3.113      141.081      125.970       64.696    19903.802    15868.479     4185.541        5.549        1.998      266.516       70.815        0.071      341.659       16.522      863.400
04/14/2014  22:21:00     -392.844     -106.469      -20.801      166.680      115.640       63.800    27782.245    13372.550     4070.416       10.565        2.261      407.016       69.453        0.029      341.698       16.589      863.407
04/14/2014  22:22:00     -290.242     -114.952      -25.174      140.805       93.543       55.838    19825.973     8750.236     3117.935        6.488        1.585      312.176       63.626        0.042      341.681       16.561      863.398
04/14/2014  22:23:00     -236.851      -42.549      -14.323       79.347       76.242       45.311     6295.963     5812.797     2053.083        3.614        0.708      240.643       38.461        0.026      341.652       16.511      863.412
04/14/2014  22:24:00     -282.453       -3.466      -30.943      120.572      108.179       50.094    14537.649    11702.699     2509.366        5.474        1.437      282.474       47.995        0.029      341.643       16.496      863.404
04/14/2014  22:25:00     -420.521     -106.764      -30.509      102.305      117.403       61.655    10466.389    13783.476     3801.370       10.860        1.403      433.862       60.554        0.019      341.609       16.436      863.376
04/14/2014  22:26:00     -282.410      -53.232      -13.091      109.340      121.736       62.903    11955.203    14819.687     3956.805        5.674        1.537      287.383       55.109        0.037      341.629       16.470      863.384
04/14/2014  22:27:00     -318.186      -65.181      -13.396      130.015      104.717       50.493    16903.858    10965.546     2549.509        6.804        1.521      324.793       46.809        0.021      341.604       16.429      863.378
04/14/2014  22:28:00     -193.138      -88.643       10.734       83.719       82.382       51.619     7008.790     6786.824     2664.474        3.086        0.823      212.509       38.635        0.033      341.534       16.309      863.377
04/14/2014  22:29:00     -261.932      -24.820      -19.149       89.978       79.608       41.500     8096.001     6337.434     1722.226        4.287        0.808      263.106       43.063        0.027      341.558       16.350      863.379
04/14/2014  22:30:00     -307.566      -15.818      -13.023      130.455       90.020       65.610    17018.512     8103.514     4304.719        6.222        1.471      307.973       68.802        0.050      341.540       16.320      863.387
04/14/2014  22:31:00     -270.289      -38.846      -32.848       74.101       77.660       48.426     5490.888     6031.114     2345.073        4.475        0.693      273.067       29.132        0.011      341.511       16.270      863.381
04/14/2014  22:32:00     -264.688      -67.391      -18.816      107.033       85.549       53.563    11456.115     7318.681     2868.943        4.830        1.082      273.132       53.102        0.038      341.474       16.208      863.377
04/14/2014  22:33:00     -223.483      -47.080      -18.244       81.261       43.244       36.557     6603.349     1870.011     1336.429        3.115        0.490      228.389       36.736        0.026      341.475       16.210      863.379
04/14/2014  22:34:00     -213.138     -106.392      -15.691       99.539       76.480       43.278     9908.022     5849.149     1873.026        3.731        0.882      238.216       38.255        0.026      341.439       16.150      863.387
04/14/2014  22:35:00     -279.661     -132.901      -12.384      107.385       77.431       59.622    11531.629     5995.556     3554.812        5.855        1.054      309.634       45.749        0.022      341.427       16.129      863.400
04/14/2014  22:36:00     -253.256      -48.587      -24.239       65.193       58.046       27.940     4250.166     3369.373      780.649        3.774        0.420      257.875       24.910        0.009      341.430       16.133      863.412
04/14/2014  22:37:00     -288.178      -82.902      -24.125      118.212       80.189       51.824    13974.093     6430.297     2685.733        5.679        1.155      299.865       46.189        0.024      341.519       16.284      863.413
04/14/2014  22:38:00     -214.283      -58.134      -31.356       83.066      119.488       43.426     6900.019    14277.425     1885.853        3.667        1.153      222.029       36.025        0.026      341.514       16.275      863.412
04/14/2014  22:39:00     -249.377       16.087      -23.241       81.074       95.965       56.472     6573.065     9209.340     3189.132        4.098        0.949      249.895       44.119        0.031      341.519       16.284      863.420
04/14/2014  22:40:00     -239.489      -84.605      -14.104       88.151       55.047       41.462     7770.555     3030.166     1719.079        3.861        0.626      253.994       10.282        0.002      341.430       16.135      863.429
04/14/2014  22:41:00     -316.808      -61.593      -35.176       84.683       93.219       47.663     7171.203     8689.765     2271.715        6.176        0.907      322.740       43.576        0.018      341.403       16.087      863.446
04/14/2014  22:42:00     -290.875      -90.615      -24.873       78.748       81.787       38.014     6201.295     6689.073     1445.086        5.388        0.717      304.663       31.152        0.010      341.414       16.105      863.446
04/14/2014  22:43:00     -237.594      -40.075      -15.009       98.070       73.055       46.757     9617.746     5337.062     2186.231        3.771        0.857      240.950       44.358        0.034      341.545       16.327      863.443
04/14/2014  22:44:00     -265.019      -20.265      -25.904       83.182       57.748       41.442     6919.318     3334.880     1717.420        4.164        0.599      265.793       43.753        0.027      341.552       16.339      863.433
04/14/2014  22:45:00     -268.400      -77.180       -9.272       89.294       62.037       40.561     7973.499     3848.617     1645.234        4.577        0.673      279.276       39.831        0.020      341.490       16.235      863.431
04/14/2014  22:46:00     -315.771      -29.701      -32.657       83.396       66.322       39.230     6954.834     4398.625     1538.996        5.727        0.645      317.165       33.639        0.011      341.512       16.271      863.427
04/14/2014  22:47:00     -236.485      -85.937       -6.366       86.220       76.002       36.602     7433.835     5776.354     1339.706        3.895        0.727      251.616       31.614        0.016      341.476       16.212      863.422
04/14/2014  22:48:00     -266.726      -40.002      -17.338      106.447       81.355       50.006    11331.067     6618.686     2500.640        4.674        1.023      269.709       56.088        0.043      341.499       16.250      863.406
04/14/2014  22:49:00     -342.049        0.062      -20.543      104.778       83.237       59.165    10978.525     6928.476     3500.498        6.941        1.070      342.049       53.381        0.024      341.562       16.357      863.404
04/14/2014  22:50:00     -201.374      -74.304       -0.291      105.556       99.100       51.104    11142.155     9820.722     2611.660        3.482        1.179      214.645       51.211        0.057      341.482       16.222      863.389
04/14/2014  22:51:00     -240.251      -36.476       -4.886      103.439       91.576       50.400    10699.549     8386.166     2540.195        4.035        1.081      243.004       50.874        0.044      341.503       16.257      863.390
04/14/2014  22:52:00     -373.053      -87.930       -9.684      121.971      101.464       62.545    14877.003    10295.039     3911.888        8.803        1.454      383.275       53.543        0.020      341.485       16.226      863.387
04/14/2014  22:53:00     -118.630      -87.597       11.796      113.054      112.817       68.569    12781.317    12727.717     4701.754        2.604        1.511      147.467       64.434        0.191      341.414       16.109      863.378
04/14/2014  22:54:00     -295.629     -150.602      -17.992      167.051      109.396       73.985    27905.923    11967.589     5473.830        7.787        2.267      331.779       77.531        0.055      341.472       16.205      863.379
04/14/2014  22:55:00     -206.281        4.570        3.646      159.242       95.471       65.245    25358.033     9114.770     4256.892        4.065        1.936      206.332       67.991        0.109      341.521       16.289      863.362
04/14/2014  22:56:00     -254.353      -65.026      -16.537      117.392       82.850       48.335    13780.859     6864.064     2336.224        4.608        1.149      262.534       44.482        0.029      341.510       16.267      863.365
04/14/2014  22:57:00     -156.468      -38.022       14.411      116.416       92.752       58.685    13552.699     8602.861     3443.937        2.586        1.280      161.022       52.244        0.105      341.447       16.164      863.362
04/14/2014  22:58:00     -172.614      -49.193        4.008      114.890       87.171       51.401    13199.619     7598.794     2642.055        2.783        1.172      179.487       48.915        0.074      341.438       16.150      863.351
04/14/2014  22:59:00     -203.949      -49.967       -5.649      143.702       74.303       54.321    20650.237     5520.972     2950.807        3.662        1.456      209.981       67.573        0.104      341.453       16.174      863.342
04/14/2014  23:00:00     -226.789      -57.494       -3.747       89.725       95.704       48.126     8050.565     9159.319     2316.083        3.714        0.976      233.963       36.729        0.025      341.439       16.149      863.330
04/14/2014  23:01:00     -246.812     -106.371        0.811      136.825      111.242       66.438    18720.970    12374.747     4413.963        5.386        1.775      268.758       65.975        0.060      341.455       16.177      863.319
04/14/2014  23:02:00     -157.533      -52.183       13.888      124.546      123.924       51.826    15511.728    15357.147     2685.982        3.064        1.678      165.951       57.153        0.119      341.443       16.158      863.303
04/14/2014  23:03:00     -186.104      -67.757        4.964      100.211       95.634       54.591    10042.151     9145.934     2980.206        3.070        1.108      198.055       49.239        0.062      341.471       16.203      863.292
04/14/2014  23:04:00     -282.883       -5.154       -6.674       87.186       71.898       52.892     7601.411     5169.317     2797.584        4.783        0.778      282.930       49.331        0.030      341.437       16.145      863.301
04/14/2014  23:05:00     -282.182      -54.437       -9.651      112.756       93.658       54.077    12713.912     8771.827     2924.343        5.354        1.221      287.385       60.834        0.045      341.397       16.079      863.306
04/14/2014  23:06:00     -308.083      -14.729      -13.485      122.036       79.378       50.478    14892.898     6300.927     2548.023        5.952        1.187      308.434       48.356        0.025      341.383       16.053      863.314
04/14/2014  23:07:00     -325.131      -59.363      -24.173      104.628      103.234       53.147    10947.081    10657.192     2824.628        6.712        1.221      330.506       50.057        0.023      341.387       16.059      863.323
04/14/2014  23:08:00     -291.088      -59.559       -3.860      131.382       86.647       58.652    17261.099     7507.665     3440.043        5.825        1.410      297.118       63.959        0.046      341.343       15.986      863.323
04/14/2014  23:09:00     -282.878      -42.475      -17.611      126.487       91.220       51.807    15998.917     8321.036     2683.956        5.456        1.350      286.049       56.658        0.039      341.384       16.056      863.320
04/14/2014  23:10:00     -305.041      -67.125      -11.701       92.058      112.022       50.600     8474.625    12548.924     2560.404        6.063        1.179      312.339       42.371        0.018      341.359       16.015      863.329
04/14/2014  23:11:00     -321.481      -60.797       -5.526       97.998      120.809       48.745     9603.521    14594.906     2376.083        6.682        1.329      327.179       38.584        0.014      341.400       16.083      863.329
04/14/2014  23:12:00     -258.121      -64.963       -5.041      138.852      112.447       60.175    19279.917    12644.358     3620.999        5.320        1.777      266.170       69.053        0.067      341.427       16.129      863.320
04/14/2014  23:13:00     -274.759      -76.450        3.574      119.052       92.559       54.667    14173.372     8567.217     2988.506        5.353        1.286      285.196       57.825        0.041      341.406       16.092      863.318
04/14/2014  23:14:00     -361.832      -58.959      -11.594       84.200       69.479       45.293     7089.717     4827.365     2051.447        7.425        0.698      366.604       45.035        0.015      341.372       16.036      863.323
04/14/2014  23:15:00     -248.772      -50.544       -0.331      115.327       96.874       57.087    13300.300     9384.520     3258.889        4.519        1.297      253.855       53.434        0.044      341.363       16.021      863.320
04/14/2014  23:16:00     -356.143      -60.628      -18.766      134.873       93.869       54.491    18190.623     8811.376     2969.226        8.041        1.499      361.267       59.306        0.027      341.441       16.153      863.313
04/14/2014  23:17:00     -298.357      -59.757       -9.000      101.796       84.888       53.306    10362.352     7205.950     2841.552        5.654        1.020      304.282       54.592        0.032      341.440       16.150      863.301
04/14/2014  23:18:00     -275.882      -67.391       -3.498      123.907       89.788       61.339    15352.963     8061.939     3762.503        5.392        1.359      283.993       67.078        0.056      341.396       16.077      863.292
04/14/2014  23:19:00     -325.282      -70.831      -11.313      101.210       88.440       53.012    10243.391     7821.634     2810.258        6.591        1.044      332.904       47.106        0.020      341.404       16.088      863.265
04/14/2014  23:20:00     -339.282       16.305      -14.951      112.611       90.021       65.474    12681.267     8103.789     4286.830        7.033        1.254      339.673       64.841        0.036      341.516       16.279      863.240
04/14/2014  23:21:00     -184.535      -35.862       16.065      113.631       91.358       54.114    12912.070     8346.326     2928.316        2.989        1.209      187.987       61.729        0.108      341.449       16.165      863.226
04/14/2014  23:22:00     -305.829      -72.990       -8.666      104.599       88.007       47.468    10941.001     7745.257     2253.196        5.993        1.047      314.419       45.307        0.021      341.438       16.146      863.216
04/14/2014  23:23:00     -271.179      -12.052       -6.321      115.107       93.989       58.133    13249.550     8833.993     3379.498        4.959        1.273      271.446       60.002        0.049      341.497       16.248      863.194
04/14/2014  23:24:00     -262.422      -75.913      -16.426      113.592       98.938       49.965    12903.051     9788.692     2496.485        5.004        1.259      273.181       49.692        0.033      341.464       16.189      863.171
04/14/2014  23:25:00     -180.991     -103.821      -17.184       74.273       78.612       43.917     5516.513     6179.888     1928.694        2.873        0.681      208.654       23.000        0.012      341.440       16.151      863.155
04/14/2014  23:26:00     -209.434       -8.162        4.103      149.142       83.522       62.983    22243.459     6975.857     3966.895        3.856        1.659      209.593       63.456        0.092      341.469       16.200      863.139
04/14/2014  23:27:00     -110.484      -49.595       10.987      109.666       80.516       55.669    12026.697     6482.772     3098.984        1.819        1.080      121.105       59.276        0.240      341.425       16.127      863.132
04/14/2014  23:28:00     -152.479      -80.728       -1.075      104.065       77.579       57.807    10829.573     6018.481     3341.598        2.497        1.009      172.531       60.473        0.123      341.417       16.111      863.136
04/14/2014  23:29:00     -281.863      -65.711       -3.255      137.164      111.364       49.404    18813.880    12401.849     2440.744        5.871        1.683      289.421       53.613        0.034      341.521       16.288      863.130
04/14/2014  23:30:00     -264.972      -63.792       -4.819      112.779       76.920       51.595    12719.082     5916.712     2662.038        4.780        1.065      272.543       59.724        0.048      341.504       16.258      863.120
04/14/2014  23:31:00     -143.299      -57.031        4.673       92.515       72.514       47.154     8558.947     5258.288     2223.540        1.992        0.802      154.231       43.836        0.081      341.491       16.238      863.112
04/14/2014  23:32:00     -187.049      -63.706      -12.533      100.573       70.051       42.706    10114.915     4907.142     1823.817        2.802        0.842      197.600       47.020        0.057      341.461       16.185      863.094
04/14/2014  23:33:00     -211.038      -22.399      -20.748      100.162       65.332       47.968    10032.355     4268.230     2300.935        3.103        0.830      212.224       61.005        0.083      341.414       16.107      863.082
04/14/2014  23:34:00     -228.496      -43.789        5.411      125.801      106.644       57.310    15825.825    11372.980     3284.490        4.231        1.524      232.654       67.674        0.085      341.423       16.123      863.076
04/14/2014  23:35:00     -241.561      -21.636       -0.364      140.411       83.156       56.468    19715.216     6914.922     3188.640        4.431        1.491      242.528       60.554        0.062      341.521       16.289      863.077
04/14/2014  23:36:00     -188.787      -42.674        0.660      103.274      103.699       52.153    10665.541    10753.437     2719.945        3.080        1.207      193.550       52.088        0.072      341.440       16.152      863.091
04/14/2014  23:37:00     -291.594      -21.509      -14.733      120.369       89.102       61.987    14488.682     7939.192     3842.381        5.598        1.314      292.386       72.332        0.061      341.450       16.167      863.112
04/14/2014  23:38:00     -217.977      -66.471       -0.179      108.000       75.820       44.056    11663.967     5748.661     1940.949        3.564        0.968      227.887       53.586        0.055      341.399       16.081      863.116
04/14/2014  23:39:00     -222.645      -37.781       -7.363      101.892       74.782       45.339    10381.897     5592.322     2055.607        3.454        0.901      225.827       51.796        0.053      341.377       16.044      863.116
04/14/2014  23:40:00     -153.625      -65.944       -8.735       86.339       80.166       42.403     7454.369     6426.602     1798.018        2.185        0.784      167.180       40.957        0.060      341.406       16.094      863.114
04/14/2014  23:41:00     -303.823      -93.486      -17.597      102.718       84.684       49.581    10551.075     7171.418     2458.300        6.077        1.009      317.881       45.314        0.020      341.447       16.161      863.117
04/14/2014  23:42:00     -166.427      -41.365       12.960      114.299       89.453       58.559    13064.288     8001.818     3429.159        2.703        1.225      171.491       64.012        0.139      341.337       15.979      863.130
04/14/2014  23:43:00     -219.186      -27.818        1.744      111.236       93.869       49.974    12373.367     8811.469     2497.420        3.625        1.184      220.944       52.268        0.056      341.357       16.011      863.127
04/14/2014  23:44:00     -205.986     -117.436        5.051       93.641      120.825       50.065     8768.701    14598.666     2506.478        4.106        1.294      237.111       43.690        0.034      341.345       15.990      863.111
04/14/2014  23:45:00     -217.207      -42.134       -6.961       97.367       52.304       46.625     9480.266     2735.739     2173.886        3.169        0.719      221.256       47.999        0.047      341.359       16.014      863.095
04/14/2014  23:46:00     -256.416      -89.917      -26.675      117.425       81.009       40.720    13788.564     6562.516     1658.100        4.827        1.100      271.724       39.214        0.021      341.387       16.060      863.082
04/14/2014  23:47:00     -206.652      -65.289      -13.151       90.677       90.289       44.430     8222.249     8152.109     1974.066        3.274        0.917      216.720       40.718        0.035      341.408       16.096      863.063
04/14/2014  23:48:00     -174.410      -56.506       -0.829       94.321       83.247       41.715     8896.526     6930.136     1740.178        2.559        0.878      183.335       43.262        0.056      341.316       15.943      863.048
04/14/2014  23:49:00     -130.010      -79.561        9.466       94.727       96.887       51.927     8973.190     9387.179     2696.449        2.219        1.053      152.422       50.299        0.109      341.325       15.957      863.035
04/14/2014  23:50:00     -114.895      -69.005        9.909      106.670       76.031       48.063    11378.551     5780.661     2310.029        1.876        0.973      134.024       45.477        0.115      341.357       16.012      863.026
04/14/2014  23:51:00     -210.708     -117.033       -6.647       91.017       87.813       54.616     8284.115     7711.040     2982.902        3.855        0.949      241.028       45.968        0.036      341.352       16.001      863.006
04/14/2014  23:52:00     -139.717      -44.211        3.796       95.636       65.973       45.440     9146.244     4352.477     2064.783        1.852        0.778      146.545       46.337        0.100      341.307       15.928      862.997
04/14/2014  23:53:00     -195.171      -94.449       -8.973       93.277       71.374       38.422     8700.561     5094.221     1476.261        3.118        0.764      216.823       29.679        0.019      341.368       16.029      862.983
04/14/2014  23:54:00     -239.881     -155.224       -6.567       98.295       75.312       61.643     9661.848     5671.907     3799.906        5.040        0.957      285.723       60.230        0.044      341.391       16.066      862.961
04/14/2014  23:55:00     -232.607      -98.932       -7.153       71.684       58.114       36.325     5138.547     3377.221     1319.511        3.689        0.492      252.772       26.722        0.011      341.375       16.038      862.951
04/14/2014  23:56:00     -142.974      -60.159        6.600       76.480       60.492       43.725     5849.134     3659.314     1911.903        1.776        0.571      155.115       34.650        0.050      341.345       15.991      862.955
04/14/2014  23:57:00     -132.772      -67.342       15.067      129.219       83.084       60.162    16697.471     6902.923     3619.427        2.480        1.361      148.874       72.493        0.237      341.317       15.945      862.950
04/14/2014  23:58:00     -186.244      -76.972       -2.843      107.971       73.800       45.586    11657.767     5446.372     2078.096        2.990        0.959      201.523       47.313        0.055      341.349       15.994      862.937
04/14/2014  23:59:00     -204.561      -90.394       -4.801      128.815       98.170       51.960    16593.371     9637.329     2699.804        3.948        1.447      223.643       54.328        0.059      341.426       16.128      862.922
